Darstellungsparameter: Aktuell verwendete Einstellungen:
Skalierung der Graphiken ... ?
xyx+y,   Skalierungsfaktor:      Skalierung: Modus: x, Faktor: 1
Darstellungszeitraum ... ?
Vom - - bis: - -   Zeitraum: 22.04.2015 - 21.04.2020
Min/Max/Avg-Anzeige ... ?
Zeige MMA aktuell
Zeige MMA Monat
Zeige MMA alles
Zeige --A aktuell
Zeige --A Monat
Zeige --A alles
Keine MMA-Anzeige
MMA:
Keine MMA-Graphiken
MMA-Basis: 22.04.2015 - 21.04.2020
Quicknavigation für Darstellung... ?
Tage:      1T, 2T, 3T, 5T -1T -2T -3T -5T +1T +2T +3T +5T
Wochen: 1W, 2W, 3W -1W -2W -3W +1W +2W +3W
Monate: 1M, 3M, 6M -1M -3M -6M +1M +3M +6M
Jahre:    1J, 3J, 5J, 10J -1J -3J -5J -10J +1J +3J +5J +10J
Nutze für die Darstellung ... ?
Originaldaten oder ...
Mittelwerte Minima Maxima auf...
Stundenbasis Tagesbasis Wochenbasis
Monatsbasis Jahresbasis      Datenbasis: Mittelwerte auf Tagesbasis
Darstellen als:
Statistik (Auto) Statistik J:M      Darstellung:
Zur Graphik,    zurück zur Übersicht aller Sensoren.
 
Tabellarische Datenbersicht: ?
 
Sensor: Nr:Datum:Temp:Feuchte:
Aussen-T/F 1 22-04-2015 00:00:00 10.60917 C 54.1250 %
2 23-04-2015 00:00:00 10.63083 C 58.6417 %
3 24-04-2015 00:00:00 13.17667 C 52.5417 %
4 25-04-2015 00:00:00 12.9125 C 66.3667 %
5 26-04-2015 00:00:00 15.42667 C 65.8083 %
6 27-04-2015 00:00:00 10.30417 C 87.7167 %
7 28-04-2015 00:00:00 8.89333 C 63.8833 %
8 29-04-2015 00:00:00 8.29083 C 62.8750 %
9 30-04-2015 00:00:00 9.585 C 68.6333 %
10 01-05-2015 00:00:00 8.0975 C 73.7083 %
11 02-05-2015 00:00:00 9.81083 C 66.7417 %
12 03-05-2015 00:00:00 13.81833 C 78.0667 %
13 04-05-2015 00:00:00 16.06417 C 72.1250 %
14 05-05-2015 00:00:00 18.12917 C 62.4750 %
15 06-05-2015 00:00:00 13.25833 C 57.6083 %
16 07-05-2015 00:00:00 13.39 C 52.4500 %
17 08-05-2015 00:00:00 14.455 C 53.7000 %
18 09-05-2015 00:00:00 15.36583 C 62.0667 %
19 10-05-2015 00:00:00 14.795 C 62.0917 %
20 11-05-2015 00:00:00 17.42583 C 57.7500 %
21 12-05-2015 00:00:00 17.955 C 59.3167 %
22 13-05-2015 00:00:00 14.00083 C 55.4667 %
23 14-05-2015 00:00:00 13.93833 C 58.5750 %
24 15-05-2015 00:00:00 15.25583 C 63.9333 %
25 16-05-2015 00:00:00 12.21167 C 62.2833 %
Sensor: Nr:Datum:Temp:Feuchte:
Aussen-T/F 26 17-05-2015 00:00:00 14.40083 C 55.0333 %
27 18-05-2015 00:00:00 15.42833 C 52.3583 %
28 19-05-2015 00:00:00 13.43277 C 49.9160 %
29 20-05-2015 00:00:00 11.94083 C 55.4083 %
30 21-05-2015 00:00:00 11.78 C 56.4083 %
31 22-05-2015 00:00:00 15.78583 C 47.5667 %
32 23-05-2015 00:00:00 16.27917 C 52.1083 %
33 24-05-2015 00:00:00 17.4275 C 57.6750 %
34 25-05-2015 00:00:00 13.7775 C 75.4667 %
35 26-05-2015 00:00:00 11.96333 C 58.6000 %
36 27-05-2015 00:00:00 12.29333 C 53.7917 %
37 28-05-2015 00:00:00 14.33917 C 53.4000 %
38 29-05-2015 00:00:00 13.34417 C 59.1167 %
39 30-05-2015 00:00:00 12.57583 C 59.2667 %
40 31-05-2015 00:00:00 14.7625 C 58.4500 %
41 01-06-2015 00:00:00 15.34667 C 64.0000 %
42 02-06-2015 00:00:00 17.45167 C 60.0000 %
43 03-06-2015 00:00:00 18.26417 C 53.1417 %
44 04-06-2015 00:00:00 19.22 C 49.2167 %
45 05-06-2015 00:00:00 23.11167 C 51.2333 %
46 06-06-2015 00:00:00 20.8725 C 60.6750 %
47 07-06-2015 00:00:00 18.5075 C 45.7667 %
48 08-06-2015 00:00:00 16.31333 C 46.7083 %
49 09-06-2015 00:00:00 15.34083 C 43.8833 %
50 10-06-2015 00:00:00 17.59417 C 47.5417 %
Sensor: Nr:Datum:Temp:Feuchte:
Aussen-T/F 51 11-06-2015 00:00:00 20.22167 C 43.8250 %
52 12-06-2015 00:00:00 19.73167 C 62.0667 %
53 13-06-2015 00:00:00 19.42333 C 70.8167 %
54 14-06-2015 00:00:00 19.36333 C 56.1083 %
55 15-06-2015 00:00:00 18.30667 C 55.0333 %
56 16-06-2015 00:00:00 16.365 C 45.2083 %
57 17-06-2015 00:00:00 16.1175 C 49.9583 %
58 18-06-2015 00:00:00 17.6175 C 59.4333 %
59 19-06-2015 00:00:00 12.8725 C 67.0250 %
60 20-06-2015 00:00:00 13.48333 C 66.2250 %
61 21-06-2015 00:00:00 15.8562 C 67.7025 %
62 22-06-2015 00:00:00 12.87 C 76.3000 %
63 23-06-2015 00:00:00 11.54917 C 84.2667 %
64 24-06-2015 00:00:00 15.69333 C 64.0667 %
65 25-06-2015 00:00:00 18.91333 C 58.4917 %
66 26-06-2015 00:00:00 19.88167 C 59.7083 %
67 27-06-2015 00:00:00 20.10862 C 61.3448 %
68 28-06-2015 00:00:00 18.18333 C 57.8250 %
69 29-06-2015 00:00:00 22.07 C 49.5167 %
70 30-06-2015 00:00:00 22.66333 C 50.9083 %
71 01-07-2015 00:00:00 25.10083 C 48.9333 %
72 02-07-2015 00:00:00 27.395 C 48.2250 %
73 03-07-2015 00:00:00 27.8825 C 47.1750 %
74 04-07-2015 00:00:00 28.28667 C 49.8167 %
75 05-07-2015 00:00:00 27.28 C 47.5083 %
Sensor: Nr:Datum:Temp:Feuchte:
Aussen-T/F 76 06-07-2015 00:00:00 22.0075 C 56.0833 %
77 07-07-2015 00:00:00 22.37583 C 51.2500 %
78 08-07-2015 00:00:00 17.825 C 55.9333 %
79 09-07-2015 00:00:00 17.09917 C 50.3417 %
80 10-07-2015 00:00:00 17.43417 C 47.0417 %
81 11-07-2015 00:00:00 21.45167 C 42.0333 %
82 12-07-2015 00:00:00 18.76167 C 56.9083 %
83 13-07-2015 00:00:00 17.3875 C 71.7500 %
84 14-07-2015 00:00:00 20.77083 C 57.6583 %
85 15-07-2015 00:00:00 21.76333 C 57.2167 %
86 16-07-2015 00:00:00 24.265 C 54.6750 %
87 17-07-2015 00:00:00 28.4475 C 37.8417 %
88 18-07-2015 00:00:00 24.14833 C 42.5417 %
89 19-07-2015 00:00:00 20.34667 C 63.1167 %
90 20-07-2015 00:00:00 21.0825 C 72.4167 %
91 21-07-2015 00:00:00 24.695 C 58.8083 %
92 22-07-2015 00:00:00 23.58083 C 55.3333 %
93 23-07-2015 00:00:00 20.82917 C 45.8417 %
94 24-07-2015 00:00:00 21.54 C 51.6667 %
95 25-07-2015 00:00:00 17.33667 C 64.7667 %
96 26-07-2015 00:00:00 15.33782 C 62.9412 %
97 27-07-2015 00:00:00 17.56583 C 67.1833 %
98 28-07-2015 00:00:00 17.15417 C 47.7833 %
99 29-07-2015 00:00:00 16.69 C 46.4167 %
100 30-07-2015 00:00:00 13.83583 C 60.6417 %
Sensor: Nr:Datum:Temp:Feuchte:
Aussen-T/F 101 31-07-2015 00:00:00 16.04333 C 56.5167 %
102 01-08-2015 00:00:00 19.1175 C 44.3917 %
103 02-08-2015 00:00:00 20.51583 C 47.2333 %
104 03-08-2015 00:00:00 23.50333 C 44.3083 %
105 04-08-2015 00:00:00 19.1575 C 64.7917 %
106 05-08-2015 00:00:00 20.32667 C 60.8500 %
107 06-08-2015 00:00:00 24.22667 C 51.2917 %
108 07-08-2015 00:00:00 26.84583 C 43.1000 %
109 08-08-2015 00:00:00 23.22583 C 56.8250 %
110 09-08-2015 00:00:00 22.54 C 54.8750 %
111 10-08-2015 00:00:00 20.13583 C 63.9667 %
112 11-08-2015 00:00:00 22.12917 C 54.1167 %
113 12-08-2015 00:00:00 23.5925 C 55.8667 %
114 13-08-2015 00:00:00 25.41083 C 52.2583 %
115 14-08-2015 00:00:00 24.8725 C 48.6583 %
116 15-08-2015 00:00:00 21.19667 C 51.7000 %
117 16-08-2015 00:00:00 15.85333 C 76.6667 %
118 17-08-2015 00:00:00 14.77917 C 76.5750 %
119 18-08-2015 00:00:00 15.985 C 67.1167 %
120 19-08-2015 00:00:00 15.55667 C 62.6583 %
121 20-08-2015 00:00:00 17.8975 C 56.5500 %
122 21-08-2015 00:00:00 18.76 C 55.2583 %
123 22-08-2015 00:00:00 18.9875 C 50.1583 %
124 23-08-2015 00:00:00 19.48417 C 48.7167 %
125 24-08-2015 00:00:00 19.7175 C 67.7583 %
Sensor: Nr:Datum:Temp:Feuchte:
Aussen-T/F 126 25-08-2015 00:00:00 17.94583 C 48.2417 %
127 26-08-2015 00:00:00 19.86833 C 48.8500 %
128 27-08-2015 00:00:00 18.44167 C 67.6167 %
129 28-08-2015 00:00:00 17.17167 C 72.7583 %
130 29-08-2015 00:00:00 20.18333 C 69.6583 %
131 30-08-2015 00:00:00 23.21917 C 66.6083 %
132 31-08-2015 00:00:00 24.31417 C 55.9917 %
133 01-09-2015 00:00:00 17.54 C 77.1833 %
134 02-09-2015 00:00:00 15.07917 C 71.6750 %
135 03-09-2015 00:00:00 14.1425 C 71.6833 %
136 04-09-2015 00:00:00 13.65917 C 64.6833 %
137 05-09-2015 00:00:00 13.05583 C 69.7417 %
138 06-09-2015 00:00:00 13.10917 C 56.4833 %
139 07-09-2015 00:00:00 13.455 C 71.1750 %
140 08-09-2015 00:00:00 15.4175 C 67.9250 %
141 09-09-2015 00:00:00 15.76167 C 57.9417 %
142 10-09-2015 00:00:00 12.94833 C 61.4583 %
143 11-09-2015 00:00:00 13.1675 C 62.5833 %
144 12-09-2015 00:00:00 15.18667 C 66.6583 %
145 13-09-2015 00:00:00 16.93167 C 79.4833 %
146 14-09-2015 00:00:00 15.35833 C 80.5417 %
147 15-09-2015 00:00:00 13.065 C 73.8583 %
148 16-09-2015 00:00:00 14.7 C 83.4250 %
149 17-09-2015 00:00:00 14.20833 C 80.5000 %
150 18-09-2015 00:00:00 14.38667 C 73.0167 %
Sensor: Nr:Datum:Temp:Feuchte:
Aussen-T/F 151 19-09-2015 00:00:00 14.08917 C 73.5250 %
152 20-09-2015 00:00:00 13.44417 C 70.9167 %
153 21-09-2015 00:00:00 12.42583 C 74.5917 %
154 22-09-2015 00:00:00 12.75833 C 80.1333 %
155 23-09-2015 00:00:00 11.50667 C 85.6250 %
156 24-09-2015 00:00:00 13.10833 C 79.6333 %
157 25-09-2015 00:00:00 13.78333 C 71.6917 %
158 26-09-2015 00:00:00 12.60917 C 72.9083 %
159 27-09-2015 00:00:00 11.13167 C 71.3417 %
160 28-09-2015 00:00:00 10.20667 C 70.9417 %
161 29-09-2015 00:00:00 10.215 C 70.4167 %
162 30-09-2015 00:00:00 10.06583 C 66.1000 %
163 01-10-2015 00:00:00 9.29917 C 61.2667 %
164 02-10-2015 00:00:00 8.59917 C 74.0083 %
165 03-10-2015 00:00:00 10.44917 C 75.1833 %
166 04-10-2015 00:00:00 12.28417 C 78.5750 %
167 05-10-2015 00:00:00 11.84583 C 79.5750 %
168 06-10-2015 00:00:00 15.80167 C 83.4417 %
169 07-10-2015 00:00:00 14.7 C 74.2167 %
170 08-10-2015 00:00:00 13.32333 C 68.8000 %
171 09-10-2015 00:00:00 12.07083 C 80.7417 %
172 10-10-2015 00:00:00 12.105 C 72.4833 %
173 11-10-2015 00:00:00 7.89833 C 59.4083 %
174 12-10-2015 00:00:00 4.42167 C 68.4750 %
175 13-10-2015 00:00:00 3.95167 C 78.6917 %
Sensor: Nr:Datum:Temp:Feuchte:
Aussen-T/F 176 14-10-2015 00:00:00 3.28417 C 89.8583 %
177 15-10-2015 00:00:00 3.80417 C 90.4250 %
178 16-10-2015 00:00:00 6.35 C 81.6917 %
179 17-10-2015 00:00:00 6.735 C 73.5833 %
180 18-10-2015 00:00:00 7.18 C 77.1667 %
181 19-10-2015 00:00:00 8.16667 C 76.7333 %
182 20-10-2015 00:00:00 9.0175 C 82.7417 %
183 21-10-2015 00:00:00 9.47 C 80.4667 %
184 22-10-2015 00:00:00 10.8575 C 70.3000 %
185 23-10-2015 00:00:00 9.86917 C 85.9750 %
186 24-10-2015 00:00:00 10.69583 C 72.8083 %
187 25-10-2015 00:00:00 11.2568 C 79.4000 %
188 26-10-2015 00:00:00 8.69667 C 85.5250 %
189 27-10-2015 00:00:00 8.0525 C 82.0167 %
190 28-10-2015 00:00:00 9.38917 C 72.9917 %
191 29-10-2015 00:00:00 9.7475 C 80.2750 %
192 30-10-2015 00:00:00 7.32333 C 86.3250 %
193 31-10-2015 00:00:00 6.77583 C 83.6250 %
194 01-11-2015 00:00:00 6.29 C 87.0333 %
195 02-11-2015 00:00:00 4.25083 C 91.1250 %
196 03-11-2015 00:00:00 4.7125 C 84.8500 %
197 04-11-2015 00:00:00 7.2225 C 83.8667 %
198 05-11-2015 00:00:00 9.55417 C 87.5250 %
199 06-11-2015 00:00:00 12.8575 C 78.4333 %
200 07-11-2015 00:00:00 15.96833 C 79.7667 %
Sensor: Nr:Datum:Temp:Feuchte:
Aussen-T/F 201 08-11-2015 00:00:00 12.09333 C 87.1417 %
202 09-11-2015 00:00:00 14.4975 C 61.9250 %
203 10-11-2015 00:00:00 12.95167 C 58.9500 %
204 11-11-2015 00:00:00 11.47167 C 60.8250 %
205 12-11-2015 00:00:00 11.10833 C 67.1417 %
206 13-11-2015 00:00:00 10.18 C 68.2667 %
207 14-11-2015 00:00:00 8.45667 C 58.9833 %
208 15-11-2015 00:00:00 12.26417 C 57.5667 %
209 16-11-2015 00:00:00 11.36917 C 57.1750 %
210 17-11-2015 00:00:00 13.67167 C 66.9000 %
211 18-11-2015 00:00:00 13.59083 C 45.0667 %
212 19-11-2015 00:00:00 11.8225 C 65.8333 %
213 20-11-2015 00:00:00 7.22083 C 84.0833 %
214 21-11-2015 00:00:00 3.41917 C 75.5000 %
215 22-11-2015 00:00:00 2.13833 C 82.4667 %
216 23-11-2015 00:00:00 1.88 C 76.4500 %
217 24-11-2015 00:00:00 1.28583 C 77.3333 %
218 25-11-2015 00:00:00 4.00833 C 74.3167 %
219 26-11-2015 00:00:00 4.22333 C 78.5917 %
220 27-11-2015 00:00:00 1.90417 C 82.8750 %
221 28-11-2015 00:00:00 3.72167 C 64.4917 %
222 29-11-2015 00:00:00 8.60917 C 59.6500 %
223 30-11-2015 00:00:00 9.42083 C 70.1917 %
224 01-12-2015 00:00:00 10.81583 C 72.9000 %
225 02-12-2015 00:00:00 9.32917 C 63.8917 %
Sensor: Nr:Datum:Temp:Feuchte:
Aussen-T/F 226 03-12-2015 00:00:00 6.91 C 65.0667 %
227 04-12-2015 00:00:00 6.15833 C 77.1333 %
228 05-12-2015 00:00:00 5.30417 C 71.3500 %
229 06-12-2015 00:00:00 7.65083 C 65.3750 %
230 07-12-2015 00:00:00 7.24333 C 79.5333 %
231 08-12-2015 00:00:00 3.85333 C 92.6417 %
232 09-12-2015 00:00:00 5.81417 C 86.4083 %
233 10-12-2015 00:00:00 2.24167 C 82.4000 %
234 11-12-2015 00:00:00 4.06583 C 76.6167 %
235 12-12-2015 00:00:00 7.5325 C 83.2833 %
236 13-12-2015 00:00:00 8.14 C 69.1250 %
237 14-12-2015 00:00:00 5.15417 C 90.8417 %
238 15-12-2015 00:00:00 4.89833 C 89.1833 %
239 16-12-2015 00:00:00 9.15083 C 89.9750 %
240 17-12-2015 00:00:00 11.63417 C 75.1167 %
241 18-12-2015 00:00:00 10.56667 C 76.0500 %
242 19-12-2015 00:00:00 10.50417 C 68.5583 %
243 20-12-2015 00:00:00 7.115 C 88.6750 %
244 21-12-2015 00:00:00 9.43583 C 63.8417 %
245 22-12-2015 00:00:00 11.1725 C 48.5000 %
246 23-12-2015 00:00:00 9.01167 C 57.9417 %
247 24-12-2015 00:00:00 8.45833 C 72.2833 %
248 25-12-2015 00:00:00 10.48417 C 60.2500 %
249 26-12-2015 00:00:00 9.345 C 61.1667 %
250 27-12-2015 00:00:00 6.45333 C 76.4917 %
Sensor: Nr:Datum:Temp:Feuchte:
Aussen-T/F 251 28-12-2015 00:00:00 2.05083 C 89.9000 %
252 29-12-2015 00:00:00 2.285 C 91.8750 %
253 30-12-2015 00:00:00 3.93417 C 81.2500 %
254 31-12-2015 00:00:00 4.05417 C 73.4333 %
255 01-01-2016 00:00:00 3.65167 C 83.7833 %
256 02-01-2016 00:00:00 3.92083 C 70.8833 %
257 03-01-2016 00:00:00 4.92917 C 64.7583 %
258 04-01-2016 00:00:00 4.6675 C 74.2000 %
259 05-01-2016 00:00:00 5.86833 C 64.5917 %
260 06-01-2016 00:00:00 5.34667 C 76.1417 %
261 07-01-2016 00:00:00 4.32417 C 76.2500 %
262 08-01-2016 00:00:00 2.07833 C 65.9667 %
263 09-01-2016 00:00:00 0.6125 C 88.5167 %
264 10-01-2016 00:00:00 5.36218 C 74.0840 %
265 11-01-2016 00:00:00 4.41333 C 78.4417 %
266 12-01-2016 00:00:00 4.76167 C 54.9417 %
267 13-01-2016 00:00:00 4.1675 C 55.5500 %
268 14-01-2016 00:00:00 2.565 C 55.8250 %
269 15-01-2016 00:00:00 2.09667 C 60.7500 %
270 16-01-2016 00:00:00 1.19 C 66.6250 %
271 17-01-2016 00:00:00 -0.53083 C 48.5583 %
272 18-01-2016 00:00:00 -5.885 C 57.7333 %
273 19-01-2016 00:00:00 -6.08333 C 53.1500 %
274 20-01-2016 00:00:00 -2.2525 C 57.0583 %
275 21-01-2016 00:00:00 -0.195 C 66.5583 %
Sensor: Nr:Datum:Temp:Feuchte:
Aussen-T/F 276 22-01-2016 00:00:00 -3.03833 C 60.6333 %
277 23-01-2016 00:00:00 3.43583 C 67.1417 %
278 24-01-2016 00:00:00 4.5925 C 67.4167 %
279 25-01-2016 00:00:00 6.55917 C 65.2583 %
280 26-01-2016 00:00:00 8.70083 C 45.6583 %
281 27-01-2016 00:00:00 10.98917 C 31.4833 %
282 28-01-2016 00:00:00 6.53417 C 55.1333 %
283 29-01-2016 00:00:00 4.86917 C 53.8667 %
284 30-01-2016 00:00:00 6.82167 C 49.3750 %
285 31-01-2016 00:00:00 5.65333 C 53.5417 %
286 01-02-2016 00:00:00 11.48583 C 43.6167 %
287 02-02-2016 00:00:00 10.0775 C 46.2083 %
288 03-02-2016 00:00:00 4.48833 C 46.5167 %
289 04-02-2016 00:00:00 3.8175 C 58.8833 %
290 05-02-2016 00:00:00 6.95917 C 59.9667 %
291 06-02-2016 00:00:00 7.20083 C 56.1333 %
292 07-02-2016 00:00:00 8.2525 C 37.4667 %
293 08-02-2016 00:00:00 7.405 C 40.7250 %
294 09-02-2016 00:00:00 6.3125 C 48.5500 %
295 10-02-2016 00:00:00 4.2375 C 44.8083 %
296 11-02-2016 00:00:00 4.22833 C 49.3500 %
297 12-02-2016 00:00:00 2.40917 C 49.6917 %
298 13-02-2016 00:00:00 0.93917 C 68.9833 %
299 14-02-2016 00:00:00 4.075 C 74.4500 %
300 15-02-2016 00:00:00 1.52083 C 58.3750 %
Sensor: Nr:Datum:Temp:Feuchte:
Aussen-T/F 301 16-02-2016 00:00:00 -0.7275 C 42.6083 %
302 17-02-2016 00:00:00 -0.33333 C 53.4250 %
303 18-02-2016 00:00:00 1.44583 C 49.3833 %
304 19-02-2016 00:00:00 0.79417 C 58.8333 %
305 20-02-2016 00:00:00 5.52417 C 63.4000 %
306 21-02-2016 00:00:00 11.48417 C 44.6750 %
307 22-02-2016 00:00:00 9.25167 C 42.6667 %
308 23-02-2016 00:00:00 1.70083 C 74.3167 %
309 24-02-2016 00:00:00 1.25 C 67.2667 %
310 25-02-2016 00:00:00 0.10917 C 60.8667 %
311 26-02-2016 00:00:00 1.8675 C 47.5667 %
312 27-02-2016 00:00:00 1.35083 C 40.6333 %
313 28-02-2016 00:00:00 1.14833 C 40.8167 %
314 29-02-2016 00:00:00 2.51 C 31.5917 %
315 01-03-2016 00:00:00 0.29417 C 46.5000 %
316 02-03-2016 00:00:00 5.84 C 42.0250 %
317 03-03-2016 00:00:00 3.0875 C 47.3000 %
318 04-03-2016 00:00:00 1.0725 C 69.0667 %
319 05-03-2016 00:00:00 4.1 C 62.7917 %
320 06-03-2016 00:00:00 2.515 C 59.7833 %
321 07-03-2016 00:00:00 1.795 C 65.8667 %
322 08-03-2016 00:00:00 1.35667 C 59.3500 %
323 09-03-2016 00:00:00 1.89667 C 45.6500 %
324 10-03-2016 00:00:00 2.14917 C 47.1250 %
325 11-03-2016 00:00:00 3.7425 C 45.0833 %
Sensor: Nr:Datum:Temp:Feuchte:
Aussen-T/F 326 12-03-2016 00:00:00 3.90583 C 30.9667 %
327 13-03-2016 00:00:00 4.57167 C 31.1833 %
328 14-03-2016 00:00:00 3.825 C 30.8417 %
329 15-03-2016 00:00:00 2.91833 C 38.5833 %
330 16-03-2016 00:00:00 4.03667 C 32.4833 %
331 17-03-2016 00:00:00 3.92083 C 39.7500 %
332 18-03-2016 00:00:00 4.26833 C 40.0000 %
333 19-03-2016 00:00:00 5.375 C 40.8000 %
334 20-03-2016 00:00:00 5.61917 C 31.5500 %
335 21-03-2016 00:00:00 6.80333 C 40.1750 %
336 22-03-2016 00:00:00 7.90167 C 33.8500 %
337 23-03-2016 00:00:00 7.75 C 36.0500 %
338 24-03-2016 00:00:00 6.74417 C 40.9500 %
339 25-03-2016 00:00:00 6.3375 C 53.9250 %
340 26-03-2016 00:00:00 8.95333 C 46.6167 %
341 27-03-2016 00:00:00 9.04783 C 40.2957 %
342 28-03-2016 00:00:00 7.90667 C 40.1750 %
343 29-03-2016 00:00:00 9.055 C 31.4333 %
344 30-03-2016 00:00:00 9.75 C 41.6917 %
345 31-03-2016 00:00:00 6.63583 C 56.8333 %
346 01-04-2016 00:00:00 6.93083 C 50.1417 %
347 02-04-2016 00:00:00 8.0475 C 51.6750 %
348 03-04-2016 00:00:00 13.42583 C 38.0667 %
349 04-04-2016 00:00:00 13.64583 C 46.2083 %
350 05-04-2016 00:00:00 10.9925 C 55.3417 %
Sensor: Nr:Datum:Temp:Feuchte:
Aussen-T/F 351 06-04-2016 00:00:00 10.6875 C 44.1083 %
352 07-04-2016 00:00:00 8.1575 C 34.2667 %
353 08-04-2016 00:00:00 5.99083 C 43.5583 %
354 09-04-2016 00:00:00 7.77083 C 41.4333 %
355 10-04-2016 00:00:00 11.51583 C 29.2333 %
356 11-04-2016 00:00:00 11.9225 C 31.8917 %
357 12-04-2016 00:00:00 10.91917 C 41.5500 %
358 13-04-2016 00:00:00 8.84833 C 59.7333 %
359 14-04-2016 00:00:00 11.13 C 45.5583 %
360 15-04-2016 00:00:00 13.36 C 32.9000 %
361 16-04-2016 00:00:00 11.87917 C 35.3083 %
362 17-04-2016 00:00:00 9.01167 C 40.1167 %
363 18-04-2016 00:00:00 7.2325 C 38.2167 %
364 19-04-2016 00:00:00 8.9975 C 25.7167 %
365 20-04-2016 00:00:00 9.22 C 32.0333 %
366 21-04-2016 00:00:00 11.33083 C 29.5500 %
367 22-04-2016 00:00:00 13.95583 C 21.0667 %
368 23-04-2016 00:00:00 8.31083 C 30.3000 %
369 24-04-2016 00:00:00 5.44 C 28.0917 %
370 25-04-2016 00:00:00 4.0775 C 43.0917 %
371 26-04-2016 00:00:00 4.38 C 39.0417 %
372 27-04-2016 00:00:00 5.32667 C 23.8250 %
373 28-04-2016 00:00:00 6.70333 C 30.5583 %
374 29-04-2016 00:00:00 7.80583 C 30.1000 %
375 30-04-2016 00:00:00 7.91583 C 30.9333 %
Sensor: Nr:Datum:Temp:Feuchte:
Aussen-T/F 376 01-05-2016 00:00:00 10.01083 C 35.3833 %
377 02-05-2016 00:00:00 10.51083 C 42.4750 %
378 03-05-2016 00:00:00 11.25917 C 31.6333 %
379 04-05-2016 00:00:00 9.2375 C 32.9917 %
380 05-05-2016 00:00:00 11.535 C 29.8083 %
381 06-05-2016 00:00:00 15.30667 C 31.8167 %
382 07-05-2016 00:00:00 17.3 C 30.4750 %
383 08-05-2016 00:00:00 18.64833 C 20.2833 %
384 09-05-2016 00:00:00 18.325 C 21.9833 %
385 10-05-2016 00:00:00 17.15833 C 26.3000 %
386 11-05-2016 00:00:00 17.9975 C 38.7333 %
387 12-05-2016 00:00:00 18.35667 C 21.6500 %
388 13-05-2016 00:00:00 14.43917 C 42.0583 %
389 14-05-2016 00:00:00 10.66167 C 30.2500 %
390 15-05-2016 00:00:00 9.19333 C 21.1750 %
391 16-05-2016 00:00:00 10.65167 C 22.1667 %
392 17-05-2016 00:00:00 13.08417 C 23.7167 %
393 18-05-2016 00:00:00 15.07 C 26.4167 %
394 19-05-2016 00:00:00 14.705 C 31.9083 %
395 20-05-2016 00:00:00 14.36917 C 27.7333 %
396 21-05-2016 00:00:00 18.82083 C 30.1667 %
397 22-05-2016 00:00:00 19.6125 C 26.3750 %
398 23-05-2016 00:00:00 14.36417 C 28.3667 %
399 24-05-2016 00:00:00 11.07083 C 39.1667 %
400 25-05-2016 00:00:00 13.16083 C 39.4917 %
Sensor: Nr:Datum:Temp:Feuchte:
Aussen-T/F 401 26-05-2016 00:00:00 15.82333 C 37.5500 %
402 27-05-2016 00:00:00 17.00333 C 47.2000 %
403 28-05-2016 00:00:00 17.40167 C 48.0833 %
404 29-05-2016 00:00:00 18.06417 C 41.2500 %
405 30-05-2016 00:00:00 17.56333 C 48.6833 %
406 31-05-2016 00:00:00 16.76452 C 37.3387 %
407 01-06-2016 00:00:00 15.94792 C 43.6458 %
408 02-06-2016 00:00:00 17.97014 C 45.8819 %
409 03-06-2016 00:00:00 16.98542 C 47.4514 %
410 04-06-2016 00:00:00 18.03125 C 41.6979 %
411 05-06-2016 00:00:00 19.83507 C 41.0556 %
412 06-06-2016 00:00:00 19.82222 C 34.2014 %
413 07-06-2016 00:00:00 21.12847 C 28.7604 %
414 08-06-2016 00:00:00 20.43993 C 25.7188 %
415 09-06-2016 00:00:00 18.36771 C 23.1875 %
416 10-06-2016 00:00:00 18.63125 C 23.3715 %
417 11-06-2016 00:00:00 18.52465 C 22.4410 %
418 12-06-2016 00:00:00 17.77604 C 31.9792 %
419 13-06-2016 00:00:00 15.89306 C 47.6493 %
420 14-06-2016 00:00:00 16.98229 C 36.8542 %
421 15-06-2016 00:00:00 15.80937 C 33.7951 %
422 16-06-2016 00:00:00 14.31493 C 43.6597 %
423 17-06-2016 00:00:00 14.91493 C 39.4757 %
424 18-06-2016 00:00:00 15.14896 C 40.0104 %
425 19-06-2016 00:00:00 16.51979 C 24.7535 %
Sensor: Nr:Datum:Temp:Feuchte:
Aussen-T/F 426 20-06-2016 00:00:00 11.56903 C 28.5044 %
427 21-06-2016 00:00:00 18.65833 C 35.7667 %
428 22-06-2016 00:00:00 21.28833 C 37.0667 %
429 23-06-2016 00:00:00 24.72417 C 30.6083 %
430 24-06-2016 00:00:00 22.49417 C 33.0667 %
431 25-06-2016 00:00:00 16.69 C 56.2917 %
432 26-06-2016 00:00:00 15.84 C 41.2917 %
433 27-06-2016 00:00:00 16.38083 C 29.8417 %
434 28-06-2016 00:00:00 18.94333 C 36.5667 %
435 29-06-2016 00:00:00 19.7075 C 23.8250 %
436 30-06-2016 00:00:00 19.33333 C 24.7167 %
437 01-07-2016 00:00:00 20.47833 C 25.5250 %
438 02-07-2016 00:00:00 17.3875 C 25.1167 %
439 03-07-2016 00:00:00 15.7475 C 25.1667 %
440 04-07-2016 00:00:00 18.435 C 26.2833 %
441 05-07-2016 00:00:00 19.94667 C 23.7917 %
442 06-07-2016 00:00:00 17.5575 C 24.4167 %
443 07-07-2016 00:00:00 17.9175 C 26.9333 %
444 08-07-2016 00:00:00 19.34833 C 26.2250 %
445 09-07-2016 00:00:00 21.7525 C 22.1750 %
446 10-07-2016 00:00:00 22.6725 C 26.1833 %
447 11-07-2016 00:00:00 22.19583 C 23.5083 %
448 12-07-2016 00:00:00 19.9525 C 24.3500 %
449 13-07-2016 00:00:00 15.24 C 37.0917 %
450 14-07-2016 00:00:00 15.65 C 34.8167 %
Sensor: Nr:Datum:Temp:Feuchte:
Aussen-T/F 451 15-07-2016 00:00:00 16.855 C 23.0750 %
452 16-07-2016 00:00:00 17.50333 C 26.4917 %
453 17-07-2016 00:00:00 21.88917 C 26.5250 %
454 18-07-2016 00:00:00 22.8375 C 27.4083 %
455 19-07-2016 00:00:00 22.66917 C 25.7000 %
456 20-07-2016 00:00:00 24.1625 C 25.4250 %
457 21-07-2016 00:00:00 21.46167 C 33.7500 %
458 22-07-2016 00:00:00 21.44167 C 39.8500 %
459 23-07-2016 00:00:00 20.57167 C 37.5917 %
460 24-07-2016 00:00:00 22.89083 C 37.5500 %
461 25-07-2016 00:00:00 22.56417 C 25.9000 %
462 26-07-2016 00:00:00 20.86333 C 26.3667 %
463 27-07-2016 00:00:00 20.36667 C 26.3583 %
464 28-07-2016 00:00:00 21.32 C 23.3917 %
465 29-07-2016 00:00:00 20.3725 C 27.6167 %
466 30-07-2016 00:00:00 21.31667 C 25.1000 %
467 31-07-2016 00:00:00 19.395 C 24.8500 %
468 01-08-2016 00:00:00 17.6775 C 27.5167 %
469 02-08-2016 00:00:00 16.10333 C 37.3833 %
470 03-08-2016 00:00:00 18.46667 C 38.4083 %
471 04-08-2016 00:00:00 17.91417 C 46.6333 %
472 05-08-2016 00:00:00 16.71833 C 33.8500 %
473 06-08-2016 00:00:00 18.14583 C 31.5833 %
474 07-08-2016 00:00:00 19.73 C 30.8917 %
475 08-08-2016 00:00:00 19.59083 C 23.6917 %
Sensor: Nr:Datum:Temp:Feuchte:
Aussen-T/F 476 09-08-2016 00:00:00 17.05833 C 22.3000 %
477 10-08-2016 00:00:00 13.89917 C 26.0167 %
478 11-08-2016 00:00:00 12.59832 C 32.7059 %
479 12-08-2016 00:00:00 17.455 C 33.2250 %
480 13-08-2016 00:00:00 21.15833 C 31.2167 %
481 14-08-2016 00:00:00 19.95 C 30.1750 %
482 15-08-2016 00:00:00 19.69667 C 27.2250 %
483 16-08-2016 00:00:00 18.98167 C 26.7333 %
484 17-08-2016 00:00:00 18.93333 C 25.7417 %
485 18-08-2016 00:00:00 17.52 C 26.5500 %
486 19-08-2016 00:00:00 19.7325 C 28.2667 %
487 20-08-2016 00:00:00 19.64167 C 27.2333 %
488 21-08-2016 00:00:00 17.60333 C 26.8583 %
489 22-08-2016 00:00:00 17.8025 C 27.1750 %
490 23-08-2016 00:00:00 19.51 C 30.9333 %
491 24-08-2016 00:00:00 20.755 C 28.3583 %
492 25-08-2016 00:00:00 21.70333 C 28.8500 %
493 26-08-2016 00:00:00 22.62333 C 27.2417 %
494 27-08-2016 00:00:00 24.03 C 28.2583 %
495 28-08-2016 00:00:00 23.51417 C 25.0417 %
496 29-08-2016 00:00:00 19.5725 C 24.0250 %
497 30-08-2016 00:00:00 18.9625 C 29.8667 %
498 31-08-2016 00:00:00 18.09833 C 24.6000 %
499 01-09-2016 00:00:00 19.885 C 25.6167 %
500 02-09-2016 00:00:00 18.95833 C 28.4750 %
Sensor: Nr:Datum:Temp:Feuchte:
Aussen-T/F 501 03-09-2016 00:00:00 21.2725 C 24.6250 %
502 04-09-2016 00:00:00 18.2375 C 25.8750 %
503 05-09-2016 00:00:00 18.54917 C 25.8167 %
504 06-09-2016 00:00:00 16.93333 C 34.4917 %
505 07-09-2016 00:00:00 17.405 C 33.5750 %
506 08-09-2016 00:00:00 19.405 C 32.5083 %
507 09-09-2016 00:00:00 20.46333 C 21.3833 %
508 10-09-2016 00:00:00 19.22583 C 28.1083 %
509 11-09-2016 00:00:00 19.21667 C 26.7417 %
510 12-09-2016 00:00:00 19.5625 C 29.1333 %
511 13-09-2016 00:00:00 21.00833 C 29.4083 %
512 14-09-2016 00:00:00 20.675 C 27.7083 %
513 15-09-2016 00:00:00 19.8875 C 25.4083 %
514 16-09-2016 00:00:00 17.43917 C 39.9167 %
515 17-09-2016 00:00:00 15.91333 C 35.6083 %
516 18-09-2016 00:00:00 17.29167 C 42.7083 %
517 19-09-2016 00:00:00 15.64833 C 27.5250 %
518 20-09-2016 00:00:00 15.07833 C 30.5000 %
519 21-09-2016 00:00:00 13.86667 C 27.4167 %
520 22-09-2016 00:00:00 11.25083 C 34.2583 %
521 23-09-2016 00:00:00 13.09417 C 32.6000 %
522 24-09-2016 00:00:00 13.36667 C 40.9167 %
523 25-09-2016 00:00:00 13.76917 C 38.9417 %
524 26-09-2016 00:00:00 14.44333 C 39.0333 %
525 27-09-2016 00:00:00 13.11333 C 52.0083 %
Sensor: Nr:Datum:Temp:Feuchte:
Aussen-T/F 526 28-09-2016 00:00:00 15.245 C 38.0583 %
527 29-09-2016 00:00:00 18.65167 C 25.3417 %
528 30-09-2016 00:00:00 15.06167 C 29.6500 %
529 01-10-2016 00:00:00 13.58917 C 51.5333 %
530 02-10-2016 00:00:00 12.33333 C 43.2667 %
531 03-10-2016 00:00:00 12.23083 C 37.2000 %
532 04-10-2016 00:00:00 11.06833 C 47.8083 %
533 05-10-2016 00:00:00 8.02083 C 40.7917 %
534 06-10-2016 00:00:00 7.89917 C 32.8250 %
535 07-10-2016 00:00:00 10.76917 C 41.6833 %
536 08-10-2016 00:00:00 9.0625 C 53.2250 %
537 09-10-2016 00:00:00 8.21917 C 43.8417 %
538 10-10-2016 00:00:00 6.4375 C 44.8333 %
539 11-10-2016 00:00:00 7.66667 C 44.1250 %
540 12-10-2016 00:00:00 8.5225 C 34.6417 %
541 13-10-2016 00:00:00 7.0825 C 42.1917 %
542 14-10-2016 00:00:00 9.04333 C 34.3583 %
543 15-10-2016 00:00:00 10.78083 C 44.4417 %
544 16-10-2016 00:00:00 8.045 C 54.9250 %
545 17-10-2016 00:00:00 10.0225 C 63.0667 %
546 18-10-2016 00:00:00 10.67917 C 47.8917 %
547 19-10-2016 00:00:00 8.77083 C 33.0917 %
548 20-10-2016 00:00:00 7.5975 C 52.8000 %
549 21-10-2016 00:00:00 7.21667 C 51.6083 %
550 22-10-2016 00:00:00 7.28167 C 49.5250 %
Sensor: Nr:Datum:Temp:Feuchte:
Aussen-T/F 551 23-10-2016 00:00:00 6.66083 C 50.6500 %
552 24-10-2016 00:00:00 8.92167 C 63.3000 %
553 25-10-2016 00:00:00 11.005 C 51.3333 %
554 26-10-2016 00:00:00 8.985 C 42.9167 %
555 27-10-2016 00:00:00 8.2675 C 50.5250 %
556 28-10-2016 00:00:00 11.03667 C 37.9750 %
557 29-10-2016 00:00:00 11.12583 C 38.1417 %
558 30-10-2016 00:00:00 7.1712 C 54.7680 %
559 31-10-2016 00:00:00 6.11333 C 61.1167 %
560 01-11-2016 00:00:00 6.55083 C 60.1167 %
561 02-11-2016 00:00:00 6.48667 C 37.7417 %
562 03-11-2016 00:00:00 5.62917 C 36.2750 %
563 04-11-2016 00:00:00 4.18583 C 57.1667 %
564 05-11-2016 00:00:00 6.1875 C 59.2417 %
565 06-11-2016 00:00:00 4.91833 C 30.0917 %
566 07-11-2016 00:00:00 3.88333 C 40.0667 %
567 08-11-2016 00:00:00 2.37583 C 46.3750 %
568 09-11-2016 00:00:00 2.99583 C 53.2667 %
569 10-11-2016 00:00:00 4.55333 C 50.0000 %
570 11-11-2016 00:00:00 4.3825 C 59.9250 %
571 12-11-2016 00:00:00 1.26417 C 47.5333 %
572 13-11-2016 00:00:00 1.32333 C 37.8333 %
573 14-11-2016 00:00:00 -1.67833 C 46.0917 %
574 15-11-2016 00:00:00 3.8725 C 39.5000 %
575 16-11-2016 00:00:00 9.1725 C 50.0750 %
Sensor: Nr:Datum:Temp:Feuchte:
Aussen-T/F 576 17-11-2016 00:00:00 10.28167 C 32.9917 %
577 18-11-2016 00:00:00 8.59583 C 26.5250 %
578 19-11-2016 00:00:00 4.45417 C 39.7333 %
579 20-11-2016 00:00:00 8.31583 C 26.6583 %
580 21-11-2016 00:00:00 9.31917 C 45.5333 %
581 22-11-2016 00:00:00 9.50167 C 52.0583 %
582 23-11-2016 00:00:00 7.95417 C 67.0083 %
583 24-11-2016 00:00:00 7.5675 C 53.7583 %
584 25-11-2016 00:00:00 7.12917 C 22.5167 %
585 26-11-2016 00:00:00 6.3675 C 25.9417 %
586 27-11-2016 00:00:00 4.2 C 40.8667 %
587 28-11-2016 00:00:00 -1.0125 C 46.3583 %
588 29-11-2016 00:00:00 -4.42 C 35.8000 %
589 30-11-2016 00:00:00 -4.23833 C 36.9833 %
590 01-12-2016 00:00:00 2.62667 C 21.5583 %
591 02-12-2016 00:00:00 4.245 C 43.0250 %
592 03-12-2016 00:00:00 -0.60083 C 60.1250 %
593 04-12-2016 00:00:00 -3.84417 C 47.8167 %
594 05-12-2016 00:00:00 -5.46833 C 44.0333 %
595 06-12-2016 00:00:00 -4.63417 C 45.9417 %
596 07-12-2016 00:00:00 -1.23 C 55.7333 %
597 08-12-2016 00:00:00 -0.39583 C 54.6667 %
598 09-12-2016 00:00:00 5.92583 C 21.0417 %
599 10-12-2016 00:00:00 3.77833 C 40.4750 %
600 11-12-2016 00:00:00 7.3925 C 25.0750 %
Sensor: Nr:Datum:Temp:Feuchte:
Aussen-T/F 601 12-12-2016 00:00:00 5.93583 C 39.9833 %
602 13-12-2016 00:00:00 3.34583 C 65.2250 %
603 14-12-2016 00:00:00 5.935 C 48.1167 %
604 15-12-2016 00:00:00 6.37417 C 39.5917 %
605 16-12-2016 00:00:00 4.1375 C 22.6833 %
606 17-12-2016 00:00:00 3.35083 C 34.1750 %
607 18-12-2016 00:00:00 4.61167 C 41.6167 %
608 19-12-2016 00:00:00 3.69083 C 40.5917 %
609 20-12-2016 00:00:00 -0.2625 C 40.4500 %
610 21-12-2016 00:00:00 1.50833 C 37.0917 %
611 22-12-2016 00:00:00 3.135 C 42.5833 %
612 23-12-2016 00:00:00 3.4975 C 50.4417 %
613 24-12-2016 00:00:00 6.43833 C 23.7750 %
614 25-12-2016 00:00:00 7.98083 C 27.9917 %
615 26-12-2016 00:00:00 6.85083 C 28.5167 %
616 27-12-2016 00:00:00 3.36083 C 31.3417 %
617 28-12-2016 00:00:00 2.765 C 32.3750 %
618 29-12-2016 00:00:00 -2.31583 C 49.4333 %
619 30-12-2016 00:00:00 -2.7975 C 45.7583 %
620 31-12-2016 00:00:00 -4.97167 C 40.1167 %
621 01-01-2017 00:00:00 -2.645 C 37.8583 %
622 02-01-2017 00:00:00 -0.26417 C 43.1250 %
623 03-01-2017 00:00:00 0.27717 C 59.5652 %
624 04-01-2017 00:00:00 2.4725 C 33.8417 %
625 05-01-2017 00:00:00 -1.62667 C 32.9833 %
Sensor: Nr:Datum:Temp:Feuchte:
Aussen-T/F 626 06-01-2017 00:00:00 -8.04417 C 33.4250 %
627 07-01-2017 00:00:00 -5.00833 C 28.8833 %
628 08-01-2017 00:00:00 -0.27333 C 48.8667 %
629 09-01-2017 00:00:00 1.305 C 49.9167 %
630 10-01-2017 00:00:00 0.33833 C 54.5917 %
631 11-01-2017 00:00:00 2.7675 C 49.3083 %
632 12-01-2017 00:00:00 3.39 C 26.6583 %
633 13-01-2017 00:00:00 1.16833 C 32.4417 %
634 14-01-2017 00:00:00 1.5625 C 26.2083 %
635 15-01-2017 00:00:00 -0.2875 C 38.9417 %
636 16-01-2017 00:00:00 -2.95333 C 40.8917 %
637 17-01-2017 00:00:00 -5.14333 C 33.6917 %
638 18-01-2017 00:00:00 -7.12917 C 33.7333 %
639 19-01-2017 00:00:00 -8.02917 C 34.5500 %
640 20-01-2017 00:00:00 -8.47167 C 31.5833 %
641 21-01-2017 00:00:00 -7.91167 C 34.8083 %
642 22-01-2017 00:00:00 -9.46417 C 33.6583 %
643 23-01-2017 00:00:00 -6.45667 C 35.5667 %
644 24-01-2017 00:00:00 -1.59917 C 36.1417 %
645 25-01-2017 00:00:00 -2.06134 C 21.1008 %
646 26-01-2017 00:00:00 -3.27167 C 23.9917 %
647 27-01-2017 00:00:00 -4.87833 C 33.7583 %
648 28-01-2017 00:00:00 -3.13417 C 35.4000 %
649 29-01-2017 00:00:00 1.74917 C 38.4417 %
650 30-01-2017 00:00:00 3.64583 C 50.8083 %
Sensor: Nr:Datum:Temp:Feuchte:
Aussen-T/F 651 31-01-2017 00:00:00 2.45083 C 33.8167 %
652 01-02-2017 00:00:00 2.82417 C 29.1583 %
653 02-02-2017 00:00:00 3.84417 C 50.3250 %
654 03-02-2017 00:00:00 4.79833 C 53.5417 %
655 04-02-2017 00:00:00 4.85833 C 34.5500 %
656 05-02-2017 00:00:00 3.81333 C 37.2333 %
657 06-02-2017 00:00:00 2.905 C 39.3000 %
658 07-02-2017 00:00:00 3.68333 C 32.7000 %
659 08-02-2017 00:00:00 2.47583 C 26.7500 %
660 09-02-2017 00:00:00 -0.87083 C 28.4083 %
661 10-02-2017 00:00:00 0.07583 C 21.2250 %
662 11-02-2017 00:00:00 1.1675 C 39.9583 %
663 12-02-2017 00:00:00 1.77167 C 49.6917 %
664 13-02-2017 00:00:00 2.44917 C 24.7083 %
665 14-02-2017 00:00:00 0.02083 C 31.7250 %
666 15-02-2017 00:00:00 0.65333 C 38.4083 %
667 16-02-2017 00:00:00 2.98583 C 54.9000 %
668 17-02-2017 00:00:00 5.05167 C 53.0917 %
669 18-02-2017 00:00:00 5.56917 C 38.1000 %
670 19-02-2017 00:00:00 2.74417 C 39.9417 %
671 20-02-2017 00:00:00 7.83667 C 30.5667 %
672 21-02-2017 00:00:00 9.77417 C 33.2917 %
673 22-02-2017 00:00:00 10.86167 C 22.7083 %
674 23-02-2017 00:00:00 8.95167 C 22.1250 %
675 24-02-2017 00:00:00 4.4525 C 26.0917 %
Sensor: Nr:Datum:Temp:Feuchte:
Aussen-T/F 676 25-02-2017 00:00:00 3.06333 C 34.4667 %
677 26-02-2017 00:00:00 8.2025 C 22.5667 %
678 27-02-2017 00:00:00 10.56417 C 22.7417 %
679 28-02-2017 00:00:00 5.03667 C 25.5167 %
680 01-03-2017 00:00:00 6.07333 C 27.2250 %
681 02-03-2017 00:00:00 7.615 C 21.8417 %
682 03-03-2017 00:00:00 5.64417 C 27.7417 %
683 04-03-2017 00:00:00 10.41667 C 24.1750 %
684 05-03-2017 00:00:00 6.48667 C 29.1917 %
685 06-03-2017 00:00:00 5.80083 C 30.7583 %
686 07-03-2017 00:00:00 5.375 C 37.1500 %
687 08-03-2017 00:00:00 4.1425 C 57.5333 %
688 09-03-2017 00:00:00 10.71 C 40.6917 %
689 10-03-2017 00:00:00 7.1775 C 21.1917 %
690 11-03-2017 00:00:00 5.8775 C 29.0333 %
691 12-03-2017 00:00:00 5.82167 C 27.9833 %
692 13-03-2017 00:00:00 5.775 C 26.7667 %
693 14-03-2017 00:00:00 8.80333 C 26.7000 %
694 15-03-2017 00:00:00 10.8 C 22.7333 %
695 16-03-2017 00:00:00 7.71667 C 32.6833 %
696 17-03-2017 00:00:00 8.33917 C 22.4167 %
697 18-03-2017 00:00:00 8.97583 C 28.3167 %
698 19-03-2017 00:00:00 12.0025 C 29.0167 %
699 20-03-2017 00:00:00 11.53917 C 20.0000 %
700 21-03-2017 00:00:00 8.86 C 25.1667 %
Sensor: Nr:Datum:Temp:Feuchte:
Aussen-T/F 701 22-03-2017 00:00:00 5.1675 C 32.8583 %
702 23-03-2017 00:00:00 8.915 C 31.3000 %
703 24-03-2017 00:00:00 9.54583 C 23.0250 %
704 25-03-2017 00:00:00 9.54417 C 26.8417 %
705 26-03-2017 00:00:00 9.08696 C 20.0000 %
706 27-03-2017 00:00:00 8.34583 C 26.6083 %
707 28-03-2017 00:00:00 9.97417 C 22.6583 %
708 29-03-2017 00:00:00 12.77833 C 22.9417 %
709 30-03-2017 00:00:00 14.22417 C 22.9833 %
710 31-03-2017 00:00:00 13.35333 C 29.3000 %
711 01-04-2017 00:00:00 13.83417 C 20.9000 %
712 02-04-2017 00:00:00 11.94167 C 24.9167 %
713 03-04-2017 00:00:00 10.62 C 26.7750 %
714 04-04-2017 00:00:00 9.20333 C 28.3417 %
715 05-04-2017 00:00:00 8.82333 C 22.4667 %
716 06-04-2017 00:00:00 9.21083 C 20.3667 %
717 07-04-2017 00:00:00 10.40583 C 23.0667 %
718 08-04-2017 00:00:00 13.42167 C 20.0917 %
719 09-04-2017 00:00:00 12.59 C 28.2250 %
720 10-04-2017 00:00:00 10.98833 C 23.4333 %
721 11-04-2017 00:00:00 10.6675 C 20.0000 %
722 12-04-2017 00:00:00 11.54667 C 20.0083 %
723 13-04-2017 00:00:00 12.27417 C 20.7667 %
724 14-04-2017 00:00:00 10.30417 C 22.3083 %
725 15-04-2017 00:00:00 8.6675 C 21.4500 %
Sensor: Nr:Datum:Temp:Feuchte:
Aussen-T/F 726 16-04-2017 00:00:00 7.34417 C 23.7417 %
727 17-04-2017 00:00:00 6.805 C 28.0667 %
728 18-04-2017 00:00:00 5.69667 C 20.6333 %
729 19-04-2017 00:00:00 4.65667 C 28.3500 %
730 20-04-2017 00:00:00 6.6825 C 23.4667 %
731 21-04-2017 00:00:00 8.16917 C 22.1500 %
732 22-04-2017 00:00:00 9.88 C 20.0000 %
733 23-04-2017 00:00:00 7.65 C 20.5333 %
734 24-04-2017 00:00:00 6.5875 C 27.3250 %
735 25-04-2017 00:00:00 7.13193 C 20.0000 %
736 26-04-2017 00:00:00 7.62583 C 20.1500 %
737 27-04-2017 00:00:00 7.74917 C 23.9083 %
738 28-04-2017 00:00:00 6.26083 C 27.3167 %
739 29-04-2017 00:00:00 9.68667 C 30.5750 %
740 30-04-2017 00:00:00 11.3975 C 20.0000 %
741 01-05-2017 00:00:00 9.75083 C 27.4250 %
742 02-05-2017 00:00:00 8.5825 C 45.3500 %
743 03-05-2017 00:00:00 10.7175 C 39.5000 %
744 04-05-2017 00:00:00 11.94833 C 30.7750 %
745 05-05-2017 00:00:00 12.685 C 23.2667 %
746 06-05-2017 00:00:00 13.30333 C 33.1667 %
747 07-05-2017 00:00:00 12.8375 C 37.3083 %
748 08-05-2017 00:00:00 9.69083 C 26.5500 %
749 09-05-2017 00:00:00 11.87667 C 24.9000 %
750 10-05-2017 00:00:00 11.33833 C 26.9167 %
Sensor: Nr:Datum:Temp:Feuchte:
Aussen-T/F 751 11-05-2017 00:00:00 14.63833 C 25.1750 %
752 12-05-2017 00:00:00 16.395 C 30.7500 %
753 13-05-2017 00:00:00 18.05917 C 28.5167 %
754 14-05-2017 00:00:00 16.575 C 24.9333 %
755 15-05-2017 00:00:00 16.65 C 33.9583 %
756 16-05-2017 00:00:00 20.58167 C 20.0000 %
757 17-05-2017 00:00:00 21.33 C 20.8417 %
758 18-05-2017 00:00:00 18.02917 C 26.7583 %
759 19-05-2017 00:00:00 13.17667 C 46.5833 %
760 20-05-2017 00:00:00 12.655 C 37.4083 %
761 21-05-2017 00:00:00 14.64917 C 29.2750 %
762 22-05-2017 00:00:00 17.3675 C 27.8667 %
763 23-05-2017 00:00:00 19.65167 C 23.7417 %
764 24-05-2017 00:00:00 17.405 C 20.4000 %
765 25-05-2017 00:00:00 20.29 C 21.8917 %
766 26-05-2017 00:00:00 19.73833 C 24.5250 %
767 27-05-2017 00:00:00 22.6075 C 24.8667 %
768 28-05-2017 00:00:00 21.81583 C 24.8250 %
769 29-05-2017 00:00:00 24.57833 C 34.4500 %
770 30-05-2017 00:00:00 22.94833 C 21.0500 %
771 31-05-2017 00:00:00 20.15917 C 21.0333 %
772 01-06-2017 00:00:00 20.24833 C 23.6500 %
773 02-06-2017 00:00:00 19.48083 C 25.5083 %
774 03-06-2017 00:00:00 19.46417 C 36.0000 %
775 04-06-2017 00:00:00 16.96583 C 37.9333 %
Sensor: Nr:Datum:Temp:Feuchte:
Aussen-T/F 776 05-06-2017 00:00:00 17.975 C 34.7083 %
777 06-06-2017 00:00:00 16.04667 C 23.7250 %
778 07-06-2017 00:00:00 14.48333 C 20.5500 %
779 08-06-2017 00:00:00 19.25 C 21.2917 %
780 09-06-2017 00:00:00 18.0925 C 23.5250 %
781 10-06-2017 00:00:00 19.44 C 25.5417 %
782 11-06-2017 00:00:00 21.575 C 23.5750 %
783 12-06-2017 00:00:00 22.1675 C 20.1333 %
784 13-06-2017 00:00:00 19.81833 C 20.2667 %
785 14-06-2017 00:00:00 20.985 C 24.1917 %
786 15-06-2017 00:00:00 22.28333 C 21.9500 %
787 16-06-2017 00:00:00 20.18667 C 20.0000 %
788 17-06-2017 00:00:00 18.07917 C 20.4667 %
789 18-06-2017 00:00:00 23.58667 C 21.1333 %
790 19-06-2017 00:00:00 24.0825 C 23.3000 %
791 20-06-2017 00:00:00 25.57083 C 21.0333 %
792 21-06-2017 00:00:00 27.36167 C 20.0000 %
793 22-06-2017 00:00:00 24.04083 C 25.6833 %
794 23-06-2017 00:00:00 23.645 C 21.6583 %
795 24-06-2017 00:00:00 21.56417 C 21.1667 %
796 25-06-2017 00:00:00 20.95 C 20.0000 %
797 26-06-2017 00:00:00 23.18333 C 20.0000 %
798 27-06-2017 00:00:00 19.20417 C 25.8000 %
799 28-06-2017 00:00:00 20.19167 C 37.8250 %
800 29-06-2017 00:00:00 18.5125 C 27.5083 %
Sensor: Nr:Datum:Temp:Feuchte:
Aussen-T/F 801 30-06-2017 00:00:00 18.34833 C 22.5167 %
802 01-07-2017 00:00:00 16.22083 C 30.4250 %
803 02-07-2017 00:00:00 16.92 C 32.0250 %
804 03-07-2017 00:00:00 18.83333 C 27.3833 %
805 04-07-2017 00:00:00 21.9375 C 21.4833 %
806 05-07-2017 00:00:00 23.425 C 23.6833 %
807 06-07-2017 00:00:00 22.78417 C 24.7917 %
808 07-07-2017 00:00:00 24.54667 C 34.9667 %
809 08-07-2017 00:00:00 24.04167 C 22.1750 %
810 09-07-2017 00:00:00 23.87667 C 21.6750 %
811 10-07-2017 00:00:00 19.995 C 36.4250 %
812 11-07-2017 00:00:00 19.97417 C 25.9167 %
813 12-07-2017 00:00:00 17.8025 C 27.7583 %
814 13-07-2017 00:00:00 17.10583 C 27.2083 %
815 14-07-2017 00:00:00 16.94333 C 24.9917 %
816 15-07-2017 00:00:00 17.56583 C 24.2833 %
817 16-07-2017 00:00:00 19.83833 C 21.7500 %
818 17-07-2017 00:00:00 22.11583 C 25.7917 %
819 18-07-2017 00:00:00 23.18917 C 26.1500 %
820 19-07-2017 00:00:00 24.29083 C 22.7083 %
821 20-07-2017 00:00:00 22.56083 C 28.0583 %
822 21-07-2017 00:00:00 21.25917 C 21.7417 %
823 22-07-2017 00:00:00 22.86083 C 31.7667 %
824 23-07-2017 00:00:00 19.16417 C 32.9917 %
825 24-07-2017 00:00:00 15.17 C 34.9083 %
Sensor: Nr:Datum:Temp:Feuchte:
Aussen-T/F 826 25-07-2017 00:00:00 14.17917 C 53.8250 %
827 26-07-2017 00:00:00 17.7925 C 34.8833 %
828 27-07-2017 00:00:00 19.165 C 34.9917 %
829 28-07-2017 00:00:00 17.4625 C 30.7500 %
830 29-07-2017 00:00:00 20.93333 C 25.8500 %
831 30-07-2017 00:00:00 23.44917 C 24.9833 %
832 31-07-2017 00:00:00 21.3325 C 25.8250 %
833 01-08-2017 00:00:00 20.18333 C 47.5000 %
834 02-08-2017 00:00:00 22.01833 C 35.3417 %
835 03-08-2017 00:00:00 21.82833 C 28.1250 %
836 04-08-2017 00:00:00 21.0775 C 24.1917 %
837 05-08-2017 00:00:00 19.94833 C 23.8417 %
838 06-08-2017 00:00:00 18.32583 C 25.1000 %
839 07-08-2017 00:00:00 17.93417 C 26.7083 %
840 08-08-2017 00:00:00 17.9375 C 27.5583 %
841 09-08-2017 00:00:00 18.1525 C 23.5583 %
842 10-08-2017 00:00:00 15.35 C 47.5833 %
843 11-08-2017 00:00:00 14.705 C 51.5167 %
844 12-08-2017 00:00:00 15.305 C 40.2750 %
845 13-08-2017 00:00:00 18.60917 C 28.7333 %
846 14-08-2017 00:00:00 18.56167 C 33.7917 %
847 15-08-2017 00:00:00 18.83833 C 38.5333 %
848 16-08-2017 00:00:00 19.97167 C 37.3917 %
849 17-08-2017 00:00:00 19.57167 C 33.3667 %
850 18-08-2017 00:00:00 18.17417 C 43.5167 %
Sensor: Nr:Datum:Temp:Feuchte:
Aussen-T/F 851 19-08-2017 00:00:00 14.47417 C 43.3667 %
852 20-08-2017 00:00:00 14.925 C 30.8417 %
853 21-08-2017 00:00:00 16.3575 C 28.8917 %
854 22-08-2017 00:00:00 16.08833 C 31.8500 %
855 23-08-2017 00:00:00 17.92583 C 30.8917 %
856 24-08-2017 00:00:00 19.9075 C 26.1917 %
857 25-08-2017 00:00:00 18.30833 C 37.3750 %
858 26-08-2017 00:00:00 20.88833 C 44.3167 %
859 27-08-2017 00:00:00 19.63083 C 34.5250 %
860 28-08-2017 00:00:00 19.4775 C 30.1667 %
861 29-08-2017 00:00:00 20.03667 C 34.9500 %
862 30-08-2017 00:00:00 20.91167 C 31.6750 %
863 31-08-2017 00:00:00 17.32857 C 27.5210 %
864 01-09-2017 00:00:00 14.1 C 34.5083 %
865 02-09-2017 00:00:00 14.51417 C 34.0667 %
866 03-09-2017 00:00:00 12.90417 C 31.6750 %
867 04-09-2017 00:00:00 13.94167 C 34.8750 %
868 05-09-2017 00:00:00 17.87 C 36.6833 %
869 06-09-2017 00:00:00 17.47083 C 25.8083 %
870 07-09-2017 00:00:00 15.90083 C 21.1083 %
871 08-09-2017 00:00:00 15.99583 C 20.6583 %
872 09-09-2017 00:00:00 14.54 C 39.9417 %
873 10-09-2017 00:00:00 13.27583 C 43.1833 %
874 11-09-2017 00:00:00 14.27083 C 26.4083 %
875 12-09-2017 00:00:00 14.32583 C 26.1417 %
Sensor: Nr:Datum:Temp:Feuchte:
Aussen-T/F 876 13-09-2017 00:00:00 13.965 C 38.8333 %
877 14-09-2017 00:00:00 11.75417 C 39.2750 %
878 15-09-2017 00:00:00 12.5175 C 33.8750 %
879 16-09-2017 00:00:00 10.11333 C 40.9500 %
880 17-09-2017 00:00:00 9.67 C 51.4833 %
881 18-09-2017 00:00:00 10.46 C 46.2417 %
882 19-09-2017 00:00:00 11.76 C 32.8500 %
883 20-09-2017 00:00:00 11.29583 C 42.5167 %
884 21-09-2017 00:00:00 10.49 C 44.7417 %
885 22-09-2017 00:00:00 11.12417 C 43.8917 %
886 23-09-2017 00:00:00 13.495 C 40.1917 %
887 24-09-2017 00:00:00 12.475 C 44.1417 %
888 25-09-2017 00:00:00 12.56583 C 44.0250 %
889 26-09-2017 00:00:00 13.27167 C 41.8333 %
890 27-09-2017 00:00:00 13.05083 C 43.9333 %
891 28-09-2017 00:00:00 14.64667 C 44.6000 %
892 29-09-2017 00:00:00 17.38667 C 38.5083 %
893 30-09-2017 00:00:00 14.205 C 48.5667 %
894 01-10-2017 00:00:00 10.23667 C 56.3000 %
895 02-10-2017 00:00:00 13.38833 C 43.6167 %
896 03-10-2017 00:00:00 12.20667 C 42.3667 %
897 04-10-2017 00:00:00 11.05583 C 31.0333 %
898 05-10-2017 00:00:00 12.92833 C 21.9667 %
899 06-10-2017 00:00:00 9.4 C 33.6250 %
900 07-10-2017 00:00:00 9.55083 C 31.6583 %
Sensor: Nr:Datum:Temp:Feuchte:
Aussen-T/F 901 08-10-2017 00:00:00 11.81833 C 41.5417 %
902 09-10-2017 00:00:00 10.9925 C 47.1583 %
903 10-10-2017 00:00:00 12.88917 C 31.8167 %
904 11-10-2017 00:00:00 13.19167 C 31.2083 %
905 12-10-2017 00:00:00 13.13667 C 36.6500 %
906 13-10-2017 00:00:00 13.9275 C 38.7583 %
907 14-10-2017 00:00:00 12.47167 C 50.0167 %
908 15-10-2017 00:00:00 11.94833 C 54.6750 %
909 16-10-2017 00:00:00 12.63333 C 51.4833 %
910 17-10-2017 00:00:00 12.20667 C 52.4250 %
911 18-10-2017 00:00:00 11.85333 C 50.4167 %
912 19-10-2017 00:00:00 11.0025 C 50.7750 %
913 20-10-2017 00:00:00 11.63697 C 37.7479 %
914 21-10-2017 00:00:00 11.28083 C 38.1917 %
915 22-10-2017 00:00:00 10.28417 C 24.4167 %
916 23-10-2017 00:00:00 10.42417 C 23.7667 %
917 24-10-2017 00:00:00 12.76333 C 33.7917 %
918 25-10-2017 00:00:00 15.1425 C 27.6500 %
919 26-10-2017 00:00:00 13.17917 C 29.2667 %
920 27-10-2017 00:00:00 10.80833 C 33.6167 %
921 28-10-2017 00:00:00 10.09833 C 24.5250 %
922 29-10-2017 00:00:00 10.1184 C 26.6160 %
923 30-10-2017 00:00:00 6.43917 C 30.2667 %
924 31-10-2017 00:00:00 7.06917 C 27.1250 %
925 01-11-2017 00:00:00 7.99917 C 24.8000 %
Sensor: Nr:Datum:Temp:Feuchte:
Aussen-T/F 926 02-11-2017 00:00:00 7.76917 C 32.9583 %
927 03-11-2017 00:00:00 6.735 C 45.5833 %
928 04-11-2017 00:00:00 7.89167 C 53.2917 %
929 05-11-2017 00:00:00 8.26167 C 46.6500 %
930 06-11-2017 00:00:00 5.14 C 33.5917 %
931 07-11-2017 00:00:00 4.24333 C 45.0833 %
932 08-11-2017 00:00:00 6.0575 C 55.0333 %
933 09-11-2017 00:00:00 7.38917 C 46.1583 %
934 10-11-2017 00:00:00 6.65917 C 26.9667 %
935 11-11-2017 00:00:00 5.63583 C 40.7000 %
936 12-11-2017 00:00:00 3.91583 C 58.4500 %
937 13-11-2017 00:00:00 4.73833 C 41.6917 %
938 14-11-2017 00:00:00 3.73417 C 47.8500 %
939 15-11-2017 00:00:00 6.5375 C 27.1083 %
940 16-11-2017 00:00:00 4.27833 C 39.8500 %
941 17-11-2017 00:00:00 5.2975 C 48.8250 %
942 18-11-2017 00:00:00 2.87083 C 39.8833 %
943 19-11-2017 00:00:00 4.78583 C 32.4167 %
944 20-11-2017 00:00:00 4.46917 C 31.8667 %
945 21-11-2017 00:00:00 8.65667 C 28.5833 %
946 22-11-2017 00:00:00 7.285 C 30.5250 %
947 23-11-2017 00:00:00 8.5175 C 46.0583 %
948 24-11-2017 00:00:00 9.68 C 41.3083 %
949 25-11-2017 00:00:00 4.5475 C 53.6583 %
950 26-11-2017 00:00:00 2.92583 C 28.8917 %
Sensor: Nr:Datum:Temp:Feuchte:
Aussen-T/F 951 27-11-2017 00:00:00 4.8625 C 21.2917 %
952 28-11-2017 00:00:00 3.22667 C 51.1000 %
953 29-11-2017 00:00:00 2.265 C 55.6667 %
954 30-11-2017 00:00:00 1.60417 C 52.1417 %
955 01-12-2017 00:00:00 -0.2175 C 65.1167 %
956 02-12-2017 00:00:00 0.44833 C 41.3833 %
957 03-12-2017 00:00:00 -0.00667 C 31.2250 %
958 04-12-2017 00:00:00 2.29 C 46.3167 %
959 05-12-2017 00:00:00 3.6025 C 38.3333 %
960 06-12-2017 00:00:00 5.19833 C 24.6583 %
961 07-12-2017 00:00:00 4.21333 C 22.9083 %
962 08-12-2017 00:00:00 2.61083 C 31.9250 %
963 09-12-2017 00:00:00 0.24417 C 20.0083 %
964 10-12-2017 00:00:00 1.39167 C 28.5667 %
965 11-12-2017 00:00:00 4.91083 C 48.9333 %
966 12-12-2017 00:00:00 2.8125 C 21.0417 %
967 13-12-2017 00:00:00 2.70083 C 32.0833 %
968 14-12-2017 00:00:00 3.58417 C 33.7083 %
969 15-12-2017 00:00:00 2.05167 C 59.1500 %
970 16-12-2017 00:00:00 2.14667 C 54.8167 %
971 17-12-2017 00:00:00 2.22583 C 28.7000 %
972 18-12-2017 00:00:00 0.71333 C 56.1333 %
973 19-12-2017 00:00:00 2.67 C 67.9667 %
974 20-12-2017 00:00:00 4.95083 C 67.4833 %
975 21-12-2017 00:00:00 6.82667 C 61.0083 %
Sensor: Nr:Datum:Temp:Feuchte:
Aussen-T/F 976 22-12-2017 00:00:00 8.10417 C 67.4917 %
977 23-12-2017 00:00:00 8.1975 C 39.8417 %
978 24-12-2017 00:00:00 8.37583 C 20.1083 %
979 25-12-2017 00:00:00 6.34167 C 20.0583 %
980 26-12-2017 00:00:00 3.55917 C 38.0083 %
981 27-12-2017 00:00:00 4.2 C 40.9333 %
982 28-12-2017 00:00:00 2.28083 C 30.6667 %
983 29-12-2017 00:00:00 1.6 C 29.8333 %
984 30-12-2017 00:00:00 6.22583 C 44.3250 %
985 31-12-2017 00:00:00 12.09667 C 23.3583 %
986 01-01-2018 00:00:00 7.035 C 28.9500 %
987 02-01-2018 00:00:00 5.395 C 28.4083 %
988 03-01-2018 00:00:00 7.40667 C 26.8250 %
989 04-01-2018 00:00:00 7.375 C 35.2167 %
990 05-01-2018 00:00:00 7.45583 C 34.5250 %
991 06-01-2018 00:00:00 5.4075 C 71.1333 %
992 07-01-2018 00:00:00 4.365 C 39.4167 %
993 08-01-2018 00:00:00 3.86417 C 21.1167 %
994 09-01-2018 00:00:00 4.01083 C 35.8167 %
995 10-01-2018 00:00:00 5.88833 C 39.9000 %
996 11-01-2018 00:00:00 6.29167 C 52.8750 %
997 12-01-2018 00:00:00 5.70083 C 50.0167 %
998 13-01-2018 00:00:00 4.70917 C 38.6750 %
999 14-01-2018 00:00:00 2.06917 C 25.5583 %
1000 15-01-2018 00:00:00 2.675 C 35.7000 %
Sensor: Nr:Datum:Temp:Feuchte:
Aussen-T/F 1001 16-01-2018 00:00:00 5.00167 C 27.7500 %
1002 17-01-2018 00:00:00 2.35 C 27.4500 %
1003 18-01-2018 00:00:00 4.8775 C 25.4667 %
1004 19-01-2018 00:00:00 2.92583 C 27.3750 %
1005 20-01-2018 00:00:00 2.10833 C 38.1000 %
1006 21-01-2018 00:00:00 1.73917 C 43.8167 %
1007 22-01-2018 00:00:00 4.38583 C 45.1083 %
1008 23-01-2018 00:00:00 6.65593 C 27.4831 %
1009 24-01-2018 00:00:00 10.79316 C 24.5470 %
1010 25-01-2018 00:00:00 9.13917 C 43.9750 %
1011 26-01-2018 00:00:00 5.89167 C 56.7333 %
1012 27-01-2018 00:00:00 4.26583 C 45.6667 %
1013 28-01-2018 00:00:00 6.63917 C 22.5333 %
1014 29-01-2018 00:00:00 9.275 C 22.7417 %
1015 30-01-2018 00:00:00 4.25333 C 35.1167 %
1016 31-01-2018 00:00:00 6.62917 C 32.6500 %
1017 01-02-2018 00:00:00 2.0675 C 36.1083 %
1018 02-02-2018 00:00:00 2.36417 C 31.6667 %
1019 03-02-2018 00:00:00 2.65042 C 30.2269 %
1020 04-02-2018 00:00:00 0.38667 C 29.6333 %
1021 05-02-2018 00:00:00 -0.98583 C 20.2500 %
1022 06-02-2018 00:00:00 -1.55167 C 25.9583 %
1023 07-02-2018 00:00:00 -0.79667 C 32.3833 %
1024 08-02-2018 00:00:00 -3.34333 C 28.9667 %
1025 09-02-2018 00:00:00 -2.8975 C 36.1833 %
Sensor: Nr:Datum:Temp:Feuchte:
Aussen-T/F 1026 10-02-2018 00:00:00 1.41833 C 24.0167 %
1027 11-02-2018 00:00:00 2.22 C 26.3667 %
1028 12-02-2018 00:00:00 1.25083 C 34.8917 %
1029 13-02-2018 00:00:00 -1.44 C 29.8417 %
1030 14-02-2018 00:00:00 -3.14333 C 28.8667 %
1031 15-02-2018 00:00:00 0.80417 C 40.6583 %
1032 16-02-2018 00:00:00 0.98667 C 60.1667 %
1033 17-02-2018 00:00:00 -0.55 C 48.8833 %
1034 18-02-2018 00:00:00 -2.16917 C 38.4250 %
1035 19-02-2018 00:00:00 0.37083 C 35.6500 %
1036 20-02-2018 00:00:00 -0.54083 C 33.3417 %
1037 21-02-2018 00:00:00 -0.04917 C 22.5333 %
1038 22-02-2018 00:00:00 -1.265 C 21.2167 %
1039 23-02-2018 00:00:00 -2.0175 C 20.0000 %
1040 24-02-2018 00:00:00 -2.72667 C 20.0000 %
1041 25-02-2018 00:00:00 -3.74417 C 20.0000 %
1042 26-02-2018 00:00:00 -5.06167 C 20.0000 %
1043 27-02-2018 00:00:00 -7.2225 C 20.3500 %
1044 28-02-2018 00:00:00 -7.98333 C 20.0000 %
1045 01-03-2018 00:00:00 -3.74917 C 20.0000 %
1046 02-03-2018 00:00:00 -2.59083 C 20.0917 %
1047 03-03-2018 00:00:00 -0.72083 C 28.3583 %
1048 04-03-2018 00:00:00 3.2 C 37.8833 %
1049 05-03-2018 00:00:00 5.22833 C 42.3583 %
1050 06-03-2018 00:00:00 4.25 C 40.7750 %
Sensor: Nr:Datum:Temp:Feuchte:
Aussen-T/F 1051 07-03-2018 00:00:00 4.89167 C 43.0333 %
1052 08-03-2018 00:00:00 5.66417 C 23.5833 %
1053 09-03-2018 00:00:00 4.83667 C 41.9500 %
1054 10-03-2018 00:00:00 9.51333 C 45.7833 %
1055 11-03-2018 00:00:00 9.60833 C 40.1667 %
1056 12-03-2018 00:00:00 9.04083 C 37.0250 %
1057 13-03-2018 00:00:00 6.84083 C 24.1083 %
1058 14-03-2018 00:00:00 6.32917 C 26.1667 %
1059 15-03-2018 00:00:00 5.73833 C 33.0750 %
1060 16-03-2018 00:00:00 7.00917 C 47.9667 %
1061 17-03-2018 00:00:00 -0.93917 C 20.2583 %
1062 18-03-2018 00:00:00 -2.1675 C 20.0000 %
1063 19-03-2018 00:00:00 -0.63417 C 20.0000 %
1064 20-03-2018 00:00:00 -0.4175 C 20.0167 %
1065 21-03-2018 00:00:00 0.5225 C 24.8500 %
1066 22-03-2018 00:00:00 2.45417 C 30.2000 %
1067 23-03-2018 00:00:00 5.83583 C 38.3250 %
1068 24-03-2018 00:00:00 4.74917 C 35.3167 %
1069 25-03-2018 00:00:00 4.60522 C 30.4870 %
1070 26-03-2018 00:00:00 7.34167 C 20.0250 %
1071 27-03-2018 00:00:00 5.52083 C 29.7083 %
1072 28-03-2018 00:00:00 8.02667 C 36.4167 %
1073 29-03-2018 00:00:00 6.93667 C 20.9833 %
1074 30-03-2018 00:00:00 6.38833 C 34.0000 %
1075 31-03-2018 00:00:00 7.84583 C 39.4917 %
Sensor: Nr:Datum:Temp:Feuchte:
Aussen-T/F 1076 01-04-2018 00:00:00 7.26083 C 20.4250 %
1077 02-04-2018 00:00:00 8.7875 C 27.6500 %
1078 03-04-2018 00:00:00 13.26583 C 20.0000 %
1079 04-04-2018 00:00:00 10.6625 C 24.3500 %
1080 05-04-2018 00:00:00 7.485 C 30.3417 %
1081 06-04-2018 00:00:00 6.66833 C 35.5583 %
1082 07-04-2018 00:00:00 12.16083 C 22.7583 %
1083 08-04-2018 00:00:00 14.75333 C 22.3333 %
1084 09-04-2018 00:00:00 13.84583 C 24.6917 %
1085 10-04-2018 00:00:00 12.68 C 28.0833 %
1086 11-04-2018 00:00:00 11.99333 C 34.9833 %
1087 12-04-2018 00:00:00 13.34833 C 37.0500 %
1088 13-04-2018 00:00:00 9.9075 C 32.0833 %
1089 14-04-2018 00:00:00 12.74 C 36.2167 %
1090 15-04-2018 00:00:00 14.41667 C 27.2750 %
1091 16-04-2018 00:00:00 13.76083 C 31.1917 %
1092 17-04-2018 00:00:00 14.02167 C 29.2083 %
1093 18-04-2018 00:00:00 15.74583 C 26.0333 %
1094 19-04-2018 00:00:00 17.22083 C 26.6000 %
1095 20-04-2018 00:00:00 17.00083 C 24.1667 %
1096 21-04-2018 00:00:00 18.43667 C 23.5750 %
1097 22-04-2018 00:00:00 18.55417 C 25.1083 %
1098 23-04-2018 00:00:00 18.66417 C 20.2833 %
1099 24-04-2018 00:00:00 14.27333 C 24.2167 %
1100 25-04-2018 00:00:00 13.4125 C 21.6750 %
Sensor: Nr:Datum:Temp:Feuchte:
Aussen-T/F 1101 26-04-2018 00:00:00 11.21 C 20.0000 %
1102 27-04-2018 00:00:00 12.55083 C 22.6167 %
1103 28-04-2018 00:00:00 12.6075 C 23.1000 %
1104 29-04-2018 00:00:00 14.48167 C 29.9583 %
1105 30-04-2018 00:00:00 13.82167 C 24.6083 %
1106 01-05-2018 00:00:00 9.82667 C 20.0500 %
1107 02-05-2018 00:00:00 9.81083 C 27.0250 %
1108 03-05-2018 00:00:00 12.9575 C 23.3250 %
1109 04-05-2018 00:00:00 13.49833 C 21.9583 %
1110 05-05-2018 00:00:00 15.83583 C 20.0667 %
1111 06-05-2018 00:00:00 17.25 C 20.1167 %
1112 07-05-2018 00:00:00 17.88167 C 21.1000 %
1113 08-05-2018 00:00:00 18.43583 C 22.6667 %
1114 09-05-2018 00:00:00 17.19333 C 22.2583 %
1115 10-05-2018 00:00:00 14.13917 C 25.9500 %
1116 11-05-2018 00:00:00 14.92083 C 27.9167 %
1117 12-05-2018 00:00:00 17.0825 C 28.2750 %
1118 13-05-2018 00:00:00 14.3425 C 37.0500 %
1119 14-05-2018 00:00:00 17.16333 C 35.6750 %
1120 15-05-2018 00:00:00 16.0375 C 27.9417 %
1121 16-05-2018 00:00:00 15.7475 C 27.4000 %
1122 17-05-2018 00:00:00 14.55667 C 23.4833 %
1123 18-05-2018 00:00:00 13.17083 C 21.1083 %
1124 19-05-2018 00:00:00 13.845 C 23.5250 %
1125 20-05-2018 00:00:00 14.06917 C 31.8333 %
Sensor: Nr:Datum:Temp:Feuchte:
Aussen-T/F 1126 21-05-2018 00:00:00 17.55333 C 27.4333 %
1127 22-05-2018 00:00:00 17.09833 C 29.9833 %
1128 23-05-2018 00:00:00 17.23083 C 36.1833 %
1129 24-05-2018 00:00:00 17.22083 C 27.4917 %
1130 25-05-2018 00:00:00 20.19417 C 26.8083 %
1131 26-05-2018 00:00:00 21.1325 C 26.3667 %
1132 27-05-2018 00:00:00 20.4375 C 27.6917 %
1133 28-05-2018 00:00:00 21.70917 C 33.5833 %
1134 29-05-2018 00:00:00 20.88333 C 27.1500 %
1135 30-05-2018 00:00:00 21.6725 C 28.2333 %
1136 31-05-2018 00:00:00 23.08167 C 20.2750 %
1137 01-06-2018 00:00:00 19.3725 C 29.3667 %
1138 02-06-2018 00:00:00 19.64917 C 23.6750 %
1139 03-06-2018 00:00:00 20.04167 C 24.8250 %
1140 04-06-2018 00:00:00 21.5125 C 24.5417 %
1141 05-06-2018 00:00:00 21.2475 C 22.2500 %
1142 06-06-2018 00:00:00 21.6775 C 24.0000 %
1143 07-06-2018 00:00:00 21.58667 C 22.6167 %
1144 08-06-2018 00:00:00 21.40167 C 24.3000 %
1145 09-06-2018 00:00:00 22.3959 C 23.5984 %
1146 10-06-2018 00:00:00 21.64333 C 33.3000 %
1147 11-06-2018 00:00:00 19.07083 C 41.7083 %
1148 12-06-2018 00:00:00 16.44167 C 37.5250 %
1149 13-06-2018 00:00:00 15.1 C 22.7000 %
1150 14-06-2018 00:00:00 15.48083 C 30.2917 %
Sensor: Nr:Datum:Temp:Feuchte:
Aussen-T/F 1151 15-06-2018 00:00:00 17.9025 C 35.7250 %
1152 16-06-2018 00:00:00 20.2775 C 26.1583 %
1153 17-06-2018 00:00:00 18.42583 C 22.8083 %
1154 18-06-2018 00:00:00 18.235 C 21.9750 %
1155 19-06-2018 00:00:00 19.13333 C 25.5583 %
1156 20-06-2018 00:00:00 23.4825 C 24.4667 %
1157 21-06-2018 00:00:00 18.58 C 22.6500 %
1158 22-06-2018 00:00:00 14.12167 C 20.0000 %
1159 23-06-2018 00:00:00 14.19167 C 21.2750 %
1160 24-06-2018 00:00:00 16.46667 C 22.7833 %
1161 25-06-2018 00:00:00 17.57167 C 21.5583 %
1162 26-06-2018 00:00:00 18.34083 C 24.8583 %
1163 27-06-2018 00:00:00 19.81083 C 24.3333 %
1164 28-06-2018 00:00:00 21.28417 C 20.6000 %
1165 29-06-2018 00:00:00 24.82417 C 20.0000 %
1166 30-06-2018 00:00:00 22.8375 C 20.4583 %
1167 01-07-2018 00:00:00 21.52333 C 20.0000 %
1168 02-07-2018 00:00:00 21.06583 C 20.0000 %
1169 03-07-2018 00:00:00 21.34917 C 20.0000 %
1170 04-07-2018 00:00:00 19.00917 C 27.2667 %
1171 05-07-2018 00:00:00 19.70667 C 33.6083 %
1172 06-07-2018 00:00:00 20.57333 C 25.0417 %
1173 07-07-2018 00:00:00 21.3521 C 23.5630 %
1174 08-07-2018 00:00:00 20.38417 C 21.0583 %
1175 09-07-2018 00:00:00 20.71083 C 21.4167 %
Sensor: Nr:Datum:Temp:Feuchte:
Aussen-T/F 1176 10-07-2018 00:00:00 17.5975 C 22.4000 %
1177 11-07-2018 00:00:00 16.2875 C 33.6667 %
1178 12-07-2018 00:00:00 19.71583 C 32.5000 %
1179 13-07-2018 00:00:00 20.13 C 24.9667 %
1180 14-07-2018 00:00:00 22.01333 C 24.7500 %
1181 15-07-2018 00:00:00 22.10833 C 22.6333 %
1182 16-07-2018 00:00:00 23.10667 C 21.7167 %
1183 17-07-2018 00:00:00 21.59583 C 20.3583 %
1184 18-07-2018 00:00:00 20.9475 C 22.7500 %
1185 19-07-2018 00:00:00 21.47667 C 21.5833 %
1186 20-07-2018 00:00:00 21.81583 C 20.1917 %
1187 21-07-2018 00:00:00 20.94083 C 22.6750 %
1188 22-07-2018 00:00:00 22.115 C 25.1500 %
1189 23-07-2018 00:00:00 22.98917 C 21.2167 %
1190 24-07-2018 00:00:00 24.11417 C 22.5833 %
1191 25-07-2018 00:00:00 25.90417 C 20.1583 %
1192 26-07-2018 00:00:00 27.54333 C 20.0167 %
1193 27-07-2018 00:00:00 26.46167 C 20.0000 %
1194 28-07-2018 00:00:00 22.24 C 22.3250 %
1195 29-07-2018 00:00:00 23.87667 C 23.3500 %
1196 30-07-2018 00:00:00 24.435 C 20.3250 %
1197 31-07-2018 00:00:00 25.8025 C 21.1500 %
1198 01-08-2018 00:00:00 20.68583 C 32.5500 %
1199 02-08-2018 00:00:00 24.12 C 31.7333 %
1200 03-08-2018 00:00:00 26.79583 C 20.9083 %
Sensor: Nr:Datum:Temp:Feuchte:
Aussen-T/F 1201 04-08-2018 00:00:00 26.84 C 20.0667 %
1202 05-08-2018 00:00:00 25.5025 C 20.1667 %
1203 06-08-2018 00:00:00 24.4075 C 20.1500 %
1204 07-08-2018 00:00:00 26.99333 C 20.0000 %
1205 08-08-2018 00:00:00 25.83667 C 20.0000 %
1206 09-08-2018 00:00:00 20.8725 C 26.6583 %
1207 10-08-2018 00:00:00 18.73667 C 20.8917 %
1208 11-08-2018 00:00:00 18.76667 C 20.0000 %
1209 12-08-2018 00:00:00 18.38667 C 21.9833 %
1210 13-08-2018 00:00:00 17.82083 C 28.9750 %
1211 14-08-2018 00:00:00 18.755 C 28.1167 %
1212 15-08-2018 00:00:00 19.59583 C 29.0833 %
1213 16-08-2018 00:00:00 20.84333 C 28.0000 %
1214 17-08-2018 00:00:00 20.11583 C 22.3500 %
1215 18-08-2018 00:00:00 19.2675 C 26.3417 %
1216 19-08-2018 00:00:00 20.68667 C 23.5250 %
1217 20-08-2018 00:00:00 21.20333 C 20.6833 %
1218 21-08-2018 00:00:00 22.2425 C 24.3417 %
1219 22-08-2018 00:00:00 23.51417 C 22.7667 %
1220 23-08-2018 00:00:00 23.22 C 23.0167 %
1221 24-08-2018 00:00:00 19.31833 C 20.6583 %
1222 25-08-2018 00:00:00 14.65417 C 21.6083 %
1223 26-08-2018 00:00:00 13.95083 C 28.0000 %
1224 27-08-2018 00:00:00 18.20917 C 20.3667 %
1225 28-08-2018 00:00:00 18.39833 C 20.7167 %
Sensor: Nr:Datum:Temp:Feuchte:
Aussen-T/F 1226 29-08-2018 00:00:00 17.005 C 30.8917 %
1227 30-08-2018 00:00:00 17.4125 C 25.9167 %
1228 31-08-2018 00:00:00 15.33167 C 23.6000 %
1229 01-09-2018 00:00:00 14.445 C 26.6667 %
1230 02-09-2018 00:00:00 14.24833 C 24.8000 %
1231 03-09-2018 00:00:00 18.13417 C 22.9917 %
1232 04-09-2018 00:00:00 20.0425 C 27.0167 %
1233 05-09-2018 00:00:00 20.69 C 25.3083 %
1234 06-09-2018 00:00:00 18.0925 C 32.7583 %
1235 07-09-2018 00:00:00 15.6675 C 33.8500 %
1236 08-09-2018 00:00:00 13.5425 C 30.5333 %
1237 09-09-2018 00:00:00 16.80833 C 23.2500 %
1238 10-09-2018 00:00:00 17.5025 C 23.9000 %
1239 11-09-2018 00:00:00 18.86667 C 26.0333 %
1240 12-09-2018 00:00:00 19.03167 C 24.0083 %
1241 13-09-2018 00:00:00 16.5775 C 25.7417 %
1242 14-09-2018 00:00:00 17.1375 C 25.2000 %
1243 15-09-2018 00:00:00 15.17 C 21.0833 %
1244 16-09-2018 00:00:00 14.51 C 27.7833 %
1245 17-09-2018 00:00:00 16.24583 C 25.3583 %
1246 18-09-2018 00:00:00 18.72833 C 26.0000 %
1247 19-09-2018 00:00:00 20.545 C 25.3250 %
1248 20-09-2018 00:00:00 19.08833 C 26.8417 %
1249 21-09-2018 00:00:00 15.91167 C 24.5750 %
1250 22-09-2018 00:00:00 12.6825 C 25.6333 %
Sensor: Nr:Datum:Temp:Feuchte:
Aussen-T/F 1251 23-09-2018 00:00:00 12.18083 C 47.2250 %
1252 24-09-2018 00:00:00 9.66 C 36.3583 %
1253 25-09-2018 00:00:00 8.06417 C 42.7083 %
1254 26-09-2018 00:00:00 8.5625 C 35.2583 %
1255 27-09-2018 00:00:00 10.55833 C 35.5667 %
1256 28-09-2018 00:00:00 9.67833 C 43.7167 %
1257 29-09-2018 00:00:00 7.75083 C 41.1250 %
1258 30-09-2018 00:00:00 7.2475 C 35.9250 %
1259 01-10-2018 00:00:00 9.41583 C 29.7833 %
1260 02-10-2018 00:00:00 8.87917 C 33.7167 %
1261 03-10-2018 00:00:00 11.93917 C 34.0750 %
1262 04-10-2018 00:00:00 9.37167 C 38.3000 %
1263 05-10-2018 00:00:00 10.05917 C 42.4917 %
1264 06-10-2018 00:00:00 12.08583 C 44.5417 %
1265 07-10-2018 00:00:00 12.625 C 37.2750 %
1266 08-10-2018 00:00:00 9.9775 C 39.4833 %
1267 09-10-2018 00:00:00 11.14583 C 44.1500 %
1268 10-10-2018 00:00:00 12.71667 C 45.8500 %
1269 11-10-2018 00:00:00 13.6775 C 40.8667 %
1270 12-10-2018 00:00:00 15.05417 C 38.8667 %
1271 13-10-2018 00:00:00 14.68833 C 38.8250 %
1272 14-10-2018 00:00:00 13.92083 C 36.1000 %
1273 15-10-2018 00:00:00 12.87417 C 37.7167 %
1274 16-10-2018 00:00:00 12.0325 C 38.6083 %
1275 17-10-2018 00:00:00 12.01333 C 41.5083 %
Sensor: Nr:Datum:Temp:Feuchte:
Aussen-T/F 1276 18-10-2018 00:00:00 13.73917 C 38.0333 %
1277 19-10-2018 00:00:00 11.66417 C 37.7167 %
1278 20-10-2018 00:00:00 10.57167 C 36.9583 %
1279 21-10-2018 00:00:00 6.7725 C 44.7500 %
1280 22-10-2018 00:00:00 7.16833 C 43.7083 %
1281 23-10-2018 00:00:00 8.68 C 39.8083 %
1282 24-10-2018 00:00:00 13.58167 C 33.8333 %
1283 25-10-2018 00:00:00 12.74667 C 31.1083 %
1284 26-10-2018 00:00:00 9.95417 C 28.9917 %
1285 27-10-2018 00:00:00 5.7925 C 48.4000 %
1286 28-10-2018 00:00:00 5.2 C 33.7840 %
1287 29-10-2018 00:00:00 5.97083 C 33.6667 %
1288 30-10-2018 00:00:00 5.80583 C 46.3667 %
1289 31-10-2018 00:00:00 6.87167 C 39.3333 %
1290 01-11-2018 00:00:00 5.49083 C 58.1333 %
1291 02-11-2018 00:00:00 8.22333 C 53.4750 %
1292 03-11-2018 00:00:00 3.10583 C 60.6667 %
1293 04-11-2018 00:00:00 6.64167 C 47.4000 %
1294 05-11-2018 00:00:00 9.7725 C 45.3417 %
1295 06-11-2018 00:00:00 7.78167 C 57.6917 %
1296 07-11-2018 00:00:00 8.4 C 54.3917 %
1297 08-11-2018 00:00:00 9.7 C 41.1583 %
1298 09-11-2018 00:00:00 8.83167 C 49.0500 %
1299 10-11-2018 00:00:00 11.32 C 42.0250 %
1300 11-11-2018 00:00:00 11.46583 C 47.7500 %
Sensor: Nr:Datum:Temp:Feuchte:
Aussen-T/F 1301 12-11-2018 00:00:00 13.07917 C 44.0417 %
1302 13-11-2018 00:00:00 9.75583 C 50.0167 %
1303 14-11-2018 00:00:00 5.56917 C 61.4000 %
1304 15-11-2018 00:00:00 6.72833 C 38.5000 %
1305 16-11-2018 00:00:00 5.12667 C 41.4000 %
1306 17-11-2018 00:00:00 1.785 C 48.8667 %
1307 18-11-2018 00:00:00 0.80333 C 30.7417 %
1308 19-11-2018 00:00:00 2.95833 C 26.3167 %
1309 20-11-2018 00:00:00 2.95167 C 25.6167 %
1310 21-11-2018 00:00:00 1.93 C 37.9750 %
1311 22-11-2018 00:00:00 2.22833 C 39.2750 %
1312 23-11-2018 00:00:00 -0.8425 C 54.2583 %
1313 24-11-2018 00:00:00 4.05833 C 58.0917 %
1314 25-11-2018 00:00:00 5.29 C 56.7917 %
1315 26-11-2018 00:00:00 6.09333 C 35.8583 %
1316 27-11-2018 00:00:00 3.6075 C 30.9583 %
1317 28-11-2018 00:00:00 2.97583 C 45.6917 %
1318 29-11-2018 00:00:00 4.98333 C 47.6917 %
1319 30-11-2018 00:00:00 6.67167 C 48.6583 %
1320 01-12-2018 00:00:00 6.67417 C 47.9750 %
1321 02-12-2018 00:00:00 10.59167 C 45.4750 %
1322 03-12-2018 00:00:00 11.02333 C 51.1333 %
1323 04-12-2018 00:00:00 5.62 C 45.3833 %
1324 05-12-2018 00:00:00 3.15546 C 56.8487 %
1325 06-12-2018 00:00:00 9.21333 C 47.7750 %
Sensor: Nr:Datum:Temp:Feuchte:
Aussen-T/F 1326 07-12-2018 00:00:00 10.71583 C 33.9000 %
1327 08-12-2018 00:00:00 7.28083 C 37.2333 %
1328 09-12-2018 00:00:00 7.285 C 37.6917 %
1329 10-12-2018 00:00:00 3.9825 C 44.3833 %
1330 11-12-2018 00:00:00 2.87417 C 51.3500 %
1331 12-12-2018 00:00:00 2.0375 C 58.1583 %
1332 13-12-2018 00:00:00 0.49 C 37.0417 %
1333 14-12-2018 00:00:00 0.48 C 20.9833 %
1334 15-12-2018 00:00:00 -0.09083 C 24.2083 %
1335 16-12-2018 00:00:00 0.045 C 43.8833 %
1336 17-12-2018 00:00:00 3.4775 C 51.8333 %
1337 18-12-2018 00:00:00 4.1675 C 41.5083 %
1338 19-12-2018 00:00:00 5.75 C 37.3000 %
1339 20-12-2018 00:00:00 6.87083 C 39.0583 %
1340 21-12-2018 00:00:00 10.1725 C 34.4750 %
1341 22-12-2018 00:00:00 9.26167 C 35.0083 %
1342 23-12-2018 00:00:00 7.89333 C 46.8500 %
1343 24-12-2018 00:00:00 4.10333 C 44.5000 %
1344 25-12-2018 00:00:00 1.0625 C 49.8500 %
1345 26-12-2018 00:00:00 -1.61083 C 52.7667 %
1346 27-12-2018 00:00:00 -0.68583 C 57.2917 %
1347 28-12-2018 00:00:00 -0.61667 C 51.7667 %
1348 29-12-2018 00:00:00 2.0175 C 45.4833 %
1349 30-12-2018 00:00:00 6.73917 C 37.6417 %
1350 31-12-2018 00:00:00 6.84917 C 56.5417 %
Sensor: Nr:Datum:Temp:Feuchte:
Aussen-T/F 1351 01-01-2019 00:00:00 6.345 C 45.5833 %
1352 02-01-2019 00:00:00 2.72417 C 34.2083 %
1353 03-01-2019 00:00:00 1.28167 C 47.5833 %
1354 04-01-2019 00:00:00 2.41333 C 45.7833 %
1355 05-01-2019 00:00:00 5.14417 C 47.4583 %
1356 06-01-2019 00:00:00 5.0725 C 44.3083 %
1357 07-01-2019 00:00:00 4.8875 C 41.5500 %
1358 08-01-2019 00:00:00 5.74917 C 36.7000 %
1359 09-01-2019 00:00:00 3.05083 C 34.6917 %
1360 10-01-2019 00:00:00 1.36 C 32.5417 %
1361 11-01-2019 00:00:00 2.05417 C 54.0417 %
1362 12-01-2019 00:00:00 5.01833 C 46.3583 %
1363 13-01-2019 00:00:00 6.9225 C 47.7417 %
1364 14-01-2019 00:00:00 4.06833 C 43.5667 %
1365 15-01-2019 00:00:00 4.06833 C 40.0333 %
1366 16-01-2019 00:00:00 4.52583 C 35.3417 %
1367 17-01-2019 00:00:00 4.27167 C 37.9583 %
1368 18-01-2019 00:00:00 -0.2025 C 49.3250 %
1369 19-01-2019 00:00:00 -3.87667 C 48.1333 %
1370 20-01-2019 00:00:00 -6.33 C 47.2250 %
1371 21-01-2019 00:00:00 -7.505 C 46.8917 %
1372 22-01-2019 00:00:00 -5.97917 C 44.1750 %
1373 23-01-2019 00:00:00 -2.435 C 39.5667 %
1374 24-01-2019 00:00:00 -2.72417 C 26.7667 %
1375 25-01-2019 00:00:00 -0.50917 C 39.3333 %
Sensor: Nr:Datum:Temp:Feuchte:
Aussen-T/F 1376 26-01-2019 00:00:00 3.62167 C 45.9417 %
1377 27-01-2019 00:00:00 4.94833 C 43.1917 %
1378 28-01-2019 00:00:00 2.2025 C 45.2417 %
1379 29-01-2019 00:00:00 0.865 C 44.1667 %
1380 30-01-2019 00:00:00 -0.46833 C 49.8250 %
1381 31-01-2019 00:00:00 -1.03333 C 52.2750 %
1382 01-02-2019 00:00:00 0.72167 C 56.8333 %
1383 02-02-2019 00:00:00 1.59587 C 62.5950 %
1384 03-02-2019 00:00:00 1.86583 C 40.0750 %
1385 04-02-2019 00:00:00 0.99417 C 40.5833 %
1386 05-02-2019 00:00:00 3.66167 C 30.5917 %
1387 06-02-2019 00:00:00 0.09417 C 46.8417 %
1388 07-02-2019 00:00:00 4.26083 C 38.9917 %
1389 08-02-2019 00:00:00 6.77417 C 31.6250 %
1390 09-02-2019 00:00:00 8.02083 C 28.8667 %
1391 10-02-2019 00:00:00 7.15083 C 39.6167 %
1392 11-02-2019 00:00:00 4.03667 C 38.3917 %
1393 12-02-2019 00:00:00 3.01917 C 38.2083 %
1394 13-02-2019 00:00:00 0.96333 C 46.8167 %
1395 14-02-2019 00:00:00 -0.46667 C 51.0250 %
1396 15-02-2019 00:00:00 0.9925 C 45.0667 %
1397 16-02-2019 00:00:00 1.9325 C 47.3750 %
1398 17-02-2019 00:00:00 2.17333 C 49.1333 %
1399 18-02-2019 00:00:00 2.31167 C 43.0500 %
1400 19-02-2019 00:00:00 4.89 C 40.9750 %
Sensor: Nr:Datum:Temp:Feuchte:
Aussen-T/F 1401 20-02-2019 00:00:00 3.7725 C 45.5000 %
1402 21-02-2019 00:00:00 5.655 C 46.3667 %
1403 22-02-2019 00:00:00 9.27167 C 39.5167 %
1404 23-02-2019 00:00:00 4.58167 C 33.2583 %
1405 24-02-2019 00:00:00 2.29833 C 32.9417 %
1406 25-02-2019 00:00:00 3.65667 C 31.8250 %
1407 26-02-2019 00:00:00 4.75583 C 37.6333 %
1408 27-02-2019 00:00:00 5.17417 C 38.9250 %
1409 28-02-2019 00:00:00 8.185 C 29.8833 %
1410 01-03-2019 00:00:00 7.515 C 43.8250 %
1411 02-03-2019 00:00:00 8.29333 C 34.1417 %
1412 03-03-2019 00:00:00 10.72417 C 28.1417 %
1413 04-03-2019 00:00:00 9.1575 C 27.8167 %
1414 05-03-2019 00:00:00 6.32167 C 30.8917 %
1415 06-03-2019 00:00:00 9.5125 C 32.3667 %
1416 07-03-2019 00:00:00 9.61917 C 28.3833 %
1417 08-03-2019 00:00:00 7.73167 C 28.8250 %
1418 09-03-2019 00:00:00 10.01667 C 26.3333 %
1419 10-03-2019 00:00:00 9.11083 C 30.1417 %
1420 11-03-2019 00:00:00 4.19667 C 30.2417 %
1421 12-03-2019 00:00:00 6.18083 C 27.8583 %
1422 13-03-2019 00:00:00 5.6775 C 31.5250 %
1423 14-03-2019 00:00:00 6.3325 C 38.0083 %
1424 15-03-2019 00:00:00 9.61417 C 37.6917 %
1425 16-03-2019 00:00:00 9.76833 C 35.9667 %
Sensor: Nr:Datum:Temp:Feuchte:
Aussen-T/F 1426 17-03-2019 00:00:00 8.19083 C 26.8333 %
1427 18-03-2019 00:00:00 4.3225 C 36.6583 %
1428 19-03-2019 00:00:00 3.115 C 40.3583 %
1429 20-03-2019 00:00:00 4.81417 C 37.4250 %
1430 21-03-2019 00:00:00 6.76333 C 35.7167 %
1431 22-03-2019 00:00:00 8.43083 C 34.0750 %
1432 23-03-2019 00:00:00 5.40167 C 40.0083 %
1433 24-03-2019 00:00:00 5.90583 C 38.2167 %
1434 25-03-2019 00:00:00 4.41583 C 37.7583 %
1435 26-03-2019 00:00:00 6.33417 C 32.9583 %
1436 27-03-2019 00:00:00 6.36583 C 35.3083 %
1437 28-03-2019 00:00:00 6.955 C 36.2417 %
1438 29-03-2019 00:00:00 8.44167 C 38.7750 %
1439 30-03-2019 00:00:00 10.07583 C 34.1833 %
1440 31-03-2019 00:00:00 9.90957 C 33.8174 %
1441 01-04-2019 00:00:00 8.9475 C 32.5750 %
1442 02-04-2019 00:00:00 10.5425 C 29.3083 %
1443 03-04-2019 00:00:00 7.865 C 38.6750 %
1444 04-04-2019 00:00:00 5.56833 C 48.7000 %
1445 05-04-2019 00:00:00 5.95417 C 48.0167 %
1446 06-04-2019 00:00:00 9.88333 C 42.1917 %
1447 07-04-2019 00:00:00 11.50833 C 36.8000 %
1448 08-04-2019 00:00:00 12.34417 C 33.9167 %
1449 09-04-2019 00:00:00 12.00333 C 40.7333 %
1450 10-04-2019 00:00:00 10.585 C 23.8417 %
Sensor: Nr:Datum:Temp:Feuchte:
Aussen-T/F 1451 11-04-2019 00:00:00 6.52917 C 25.0583 %
1452 12-04-2019 00:00:00 4.68167 C 20.0000 %
1453 13-04-2019 00:00:00 3.585 C 24.4167 %
1454 14-04-2019 00:00:00 5.23833 C 34.7917 %
1455 15-04-2019 00:00:00 10.29167 C 25.8000 %
1456 16-04-2019 00:00:00 10.91333 C 23.2000 %
1457 17-04-2019 00:00:00 12.4 C 35.6083 %
1458 18-04-2019 00:00:00 13.7675 C 28.5500 %
1459 19-04-2019 00:00:00 14.94917 C 24.5083 %
1460 20-04-2019 00:00:00 14.60167 C 27.5833 %
1461 21-04-2019 00:00:00 15.24333 C 24.6417 %
1462 22-04-2019 00:00:00 14.7825 C 27.5667 %
1463 23-04-2019 00:00:00 15.12667 C 20.1083 %
1464 24-04-2019 00:00:00 15.10083 C 30.7083 %
1465 25-04-2019 00:00:00 13.2425 C 38.0667 %
1466 26-04-2019 00:00:00 11.8 C 32.0000 %
1467 27-04-2019 00:00:00 9.01583 C 40.3667 %
1468 28-04-2019 00:00:00 8.43333 C 30.9750 %
1469 29-04-2019 00:00:00 8.62417 C 38.4083 %
1470 30-04-2019 00:00:00 13.94583 C 26.0833 %
1471 01-05-2019 00:00:00 13.03833 C 29.5000 %
1472 02-05-2019 00:00:00 12.08333 C 31.3667 %
1473 03-05-2019 00:00:00 11.20833 C 25.1500 %
1474 04-05-2019 00:00:00 6.17583 C 33.4500 %
1475 05-05-2019 00:00:00 6.66333 C 32.0417 %
Sensor: Nr:Datum:Temp:Feuchte:
Aussen-T/F 1476 06-05-2019 00:00:00 7.6075 C 30.6583 %
1477 07-05-2019 00:00:00 9.645 C 28.6167 %
1478 08-05-2019 00:00:00 9.105 C 38.9750 %
1479 09-05-2019 00:00:00 11.085 C 36.9583 %
1480 10-05-2019 00:00:00 12.44538 C 33.3866 %
1481 11-05-2019 00:00:00 9.52833 C 47.9417 %
1482 12-05-2019 00:00:00 9.4 C 31.3083 %
1483 13-05-2019 00:00:00 9.985 C 30.9083 %
1484 14-05-2019 00:00:00 9.66333 C 26.4333 %
1485 15-05-2019 00:00:00 10.57083 C 24.3500 %
1486 16-05-2019 00:00:00 10.61167 C 23.0917 %
1487 17-05-2019 00:00:00 11.4775 C 39.7250 %
1488 18-05-2019 00:00:00 14.67167 C 39.3500 %
1489 19-05-2019 00:00:00 15.91083 C 38.3750 %
1490 20-05-2019 00:00:00 13.655 C 37.8667 %
1491 21-05-2019 00:00:00 11.88167 C 45.6167 %
1492 22-05-2019 00:00:00 13.2875 C 33.7833 %
1493 23-05-2019 00:00:00 15.22667 C 33.1417 %
1494 24-05-2019 00:00:00 17.24 C 28.7500 %
1495 25-05-2019 00:00:00 15.89917 C 22.8167 %
1496 26-05-2019 00:00:00 16.26667 C 29.2667 %
1497 27-05-2019 00:00:00 14.66667 C 40.5417 %
1498 28-05-2019 00:00:00 14.29917 C 38.6250 %
1499 29-05-2019 00:00:00 15.28667 C 25.9000 %
1500 30-05-2019 00:00:00 15.82833 C 28.8250 %
Sensor: Nr:Datum:Temp:Feuchte:
Aussen-T/F 1501 31-05-2019 00:00:00 19.45583 C 30.4167 %
1502 01-06-2019 00:00:00 20.21917 C 30.3583 %
1503 02-06-2019 00:00:00 22.16417 C 30.0500 %
1504 03-06-2019 00:00:00 21.1475 C 27.1667 %
1505 04-06-2019 00:00:00 21.80333 C 28.3333 %
1506 05-06-2019 00:00:00 23.57917 C 22.7833 %
1507 06-06-2019 00:00:00 16.14167 C 28.3667 %
1508 07-06-2019 00:00:00 16.10083 C 29.5250 %
1509 08-06-2019 00:00:00 16.40917 C 20.2667 %
1510 09-06-2019 00:00:00 16.72333 C 27.7667 %
1511 10-06-2019 00:00:00 19.705 C 23.4750 %
1512 11-06-2019 00:00:00 17.38 C 32.4667 %
1513 12-06-2019 00:00:00 16.405 C 33.2917 %
1514 13-06-2019 00:00:00 16.27917 C 34.4333 %
1515 14-06-2019 00:00:00 18.17 C 35.6583 %
1516 15-06-2019 00:00:00 19.72583 C 33.0250 %
1517 16-06-2019 00:00:00 19.94417 C 24.9167 %
1518 17-06-2019 00:00:00 19.5125 C 29.1250 %
1519 18-06-2019 00:00:00 22.02333 C 27.1333 %
1520 19-06-2019 00:00:00 22.62583 C 27.6917 %
1521 20-06-2019 00:00:00 20 C 28.0167 %
1522 21-06-2019 00:00:00 19.3425 C 27.3333 %
1523 22-06-2019 00:00:00 19.82667 C 26.6167 %
1524 23-06-2019 00:00:00 22.3125 C 27.3750 %
1525 24-06-2019 00:00:00 24.96167 C 26.2167 %
Sensor: Nr:Datum:Temp:Feuchte:
Aussen-T/F 1526 25-06-2019 00:00:00 26.83333 C 24.5583 %
1527 26-06-2019 00:00:00 27.635 C 23.0833 %
1528 27-06-2019 00:00:00 25.18917 C 20.6083 %
1529 28-06-2019 00:00:00 22.44833 C 23.4333 %
1530 29-06-2019 00:00:00 24.38417 C 22.1750 %
1531 30-06-2019 00:00:00 26.0575 C 22.2333 %
1532 01-07-2019 00:00:00 23.3825 C 20.0000 %
1533 02-07-2019 00:00:00 19.63333 C 21.8667 %
1534 03-07-2019 00:00:00 18.14583 C 22.9833 %
1535 04-07-2019 00:00:00 18.95917 C 21.7583 %
1536 05-07-2019 00:00:00 21.28 C 20.0000 %
1537 06-07-2019 00:00:00 21.86 C 21.2917 %
1538 07-07-2019 00:00:00 17.9975 C 24.5833 %
1539 08-07-2019 00:00:00 14.77583 C 24.3917 %
1540 09-07-2019 00:00:00 15.65583 C 24.6667 %
1541 10-07-2019 00:00:00 17.64083 C 24.2083 %
1542 11-07-2019 00:00:00 17.65083 C 31.2583 %
1543 12-07-2019 00:00:00 17.16583 C 43.6333 %
1544 13-07-2019 00:00:00 17.9575 C 34.1250 %
1545 14-07-2019 00:00:00 17.12917 C 26.6667 %
1546 15-07-2019 00:00:00 16.56667 C 21.0917 %
1547 16-07-2019 00:00:00 16.26 C 28.0333 %
1548 17-07-2019 00:00:00 17.56833 C 29.2083 %
1549 18-07-2019 00:00:00 19.38333 C 28.1917 %
1550 19-07-2019 00:00:00 20.12667 C 31.9750 %
Sensor: Nr:Datum:Temp:Feuchte:
Aussen-T/F 1551 20-07-2019 00:00:00 21.81667 C 30.3083 %
1552 21-07-2019 00:00:00 22.37333 C 25.8833 %
1553 22-07-2019 00:00:00 22.7225 C 26.2833 %
1554 23-07-2019 00:00:00 25.34083 C 25.5333 %
1555 24-07-2019 00:00:00 27.1975 C 24.2750 %
1556 25-07-2019 00:00:00 28.90167 C 21.7333 %
1557 26-07-2019 00:00:00 27.54417 C 21.2500 %
1558 27-07-2019 00:00:00 23.4375 C 26.6833 %
1559 28-07-2019 00:00:00 19.93083 C 38.1333 %
1560 29-07-2019 00:00:00 21.45583 C 29.3333 %
1561 30-07-2019 00:00:00 22.35833 C 26.7167 %
1562 31-07-2019 00:00:00 21.48417 C 20.5333 %
1563 01-08-2019 00:00:00 19.83417 C 22.9750 %
1564 02-08-2019 00:00:00 20.8775 C 22.8500 %
1565 03-08-2019 00:00:00 20.77167 C 24.6333 %
1566 04-08-2019 00:00:00 21.00667 C 28.3000 %
1567 05-08-2019 00:00:00 22.56833 C 24.9167 %
1568 06-08-2019 00:00:00 20.0075 C 30.3333 %
1569 07-08-2019 00:00:00 19.10167 C 41.3833 %
1570 08-08-2019 00:00:00 20.55667 C 30.6417 %
1571 09-08-2019 00:00:00 19.73833 C 39.4583 %
1572 10-08-2019 00:00:00 20.72917 C 37.6833 %
1573 11-08-2019 00:00:00 17.03333 C 35.9000 %
1574 12-08-2019 00:00:00 16.51583 C 38.9833 %
1575 13-08-2019 00:00:00 16.10833 C 35.2833 %
Sensor: Nr:Datum:Temp:Feuchte:
Aussen-T/F 1576 14-08-2019 00:00:00 16.6875 C 34.0417 %
1577 15-08-2019 00:00:00 17.20583 C 40.0250 %
1578 16-08-2019 00:00:00 17.84 C 34.2250 %
1579 17-08-2019 00:00:00 17.89333 C 38.0750 %
1580 18-08-2019 00:00:00 19.71833 C 44.5000 %
1581 19-08-2019 00:00:00 18.45167 C 33.8417 %
1582 20-08-2019 00:00:00 15.91167 C 33.3250 %
1583 21-08-2019 00:00:00 16.52917 C 33.4750 %
1584 22-08-2019 00:00:00 17.12333 C 32.3667 %
1585 23-08-2019 00:00:00 18.31667 C 31.5083 %
1586 24-08-2019 00:00:00 19.36333 C 30.9833 %
1587 25-08-2019 00:00:00 21.54583 C 29.8917 %
1588 26-08-2019 00:00:00 22.17 C 33.4833 %
1589 27-08-2019 00:00:00 22.70333 C 35.1667 %
1590 28-08-2019 00:00:00 23.4425 C 30.4583 %
1591 29-08-2019 00:00:00 22.20333 C 28.3583 %
1592 30-08-2019 00:00:00 21.07 C 29.2583 %
1593 31-08-2019 00:00:00 21.975 C 30.7583 %
1594 01-09-2019 00:00:00 18.8525 C 26.8333 %
1595 02-09-2019 00:00:00 15.49333 C 28.2000 %
1596 03-09-2019 00:00:00 15.72917 C 28.0833 %
1597 04-09-2019 00:00:00 16.9525 C 33.9667 %
1598 05-09-2019 00:00:00 15.59 C 26.2917 %
1599 06-09-2019 00:00:00 13.58917 C 31.1917 %
1600 07-09-2019 00:00:00 12.6975 C 39.5000 %
Sensor: Nr:Datum:Temp:Feuchte:
Aussen-T/F 1601 08-09-2019 00:00:00 12.7439 C 48.5935 %
1602 09-09-2019 00:00:00 15.23733 C 38.6667 %
1603 10-09-2019 00:00:00 12.20486 C 22.8264 %
1604 11-09-2019 00:00:00 13.35556 C 20.8472 %
1605 12-09-2019 00:00:00 19.325 C 20.0000 %
1606 13-09-2019 00:00:00 17.86806 C 20.1111 %
1607 14-09-2019 00:00:00 15.93333 C 22.4375 %
1608 15-09-2019 00:00:00 15.65694 C 21.2778 %
1609 16-09-2019 00:00:00 16.21389 C 20.0000 %
1610 17-09-2019 00:00:00 15.87708 C 20.0000 %
1611 18-09-2019 00:00:00 11.47361 C 20.7917 %
1612 19-09-2019 00:00:00 10.53333 C 21.8194 %
1613 20-09-2019 00:00:00 10.80486 C 20.8472 %
1614 21-09-2019 00:00:00 12.45278 C 20.6597 %
1615 22-09-2019 00:00:00 14.78542 C 20.7500 %
1616 23-09-2019 00:00:00 16.6875 C 22.1528 %
1617 24-09-2019 00:00:00 13.94306 C 26.6319 %
1618 25-09-2019 00:00:00 15.31806 C 25.0417 %
1619 26-09-2019 00:00:00 16.10903 C 26.0000 %
1620 27-09-2019 00:00:00 16.23333 C 23.7708 %
1621 28-09-2019 00:00:00 15.40208 C 22.5833 %
1622 29-09-2019 00:00:00 16.05972 C 21.6597 %
1623 30-09-2019 00:00:00 15.48194 C 21.1319 %
1624 01-10-2019 00:00:00 15.84375 C 23.4931 %
1625 02-10-2019 00:00:00 12.57569 C 23.6111 %
Sensor: Nr:Datum:Temp:Feuchte:
Aussen-T/F 1626 03-10-2019 00:00:00 9.35625 C 27.6944 %
1627 04-10-2019 00:00:00 10.03681 C 31.8403 %
1628 05-10-2019 00:00:00 10.32986 C 26.5903 %
1629 06-10-2019 00:00:00 7.85764 C 34.1250 %
1630 07-10-2019 00:00:00 9.80764 C 31.8819 %
1631 08-10-2019 00:00:00 12.35833 C 31.0694 %
1632 09-10-2019 00:00:00 11.56667 C 27.7431 %
1633 10-10-2019 00:00:00 11.49097 C 26.2153 %
1634 11-10-2019 00:00:00 12.41458 C 28.8194 %
1635 12-10-2019 00:00:00 13.21111 C 29.6875 %
1636 13-10-2019 00:00:00 16.35417 C 28.4722 %
1637 14-10-2019 00:00:00 15.8125 C 27.6528 %
1638 15-10-2019 00:00:00 13.94028 C 29.8611 %
1639 16-10-2019 00:00:00 12.42153 C 29.2917 %
1640 17-10-2019 00:00:00 14.32708 C 27.4167 %
1641 18-10-2019 00:00:00 12.3125 C 29.7292 %
1642 19-10-2019 00:00:00 12.78194 C 28.2083 %
1643 20-10-2019 00:00:00 13.0875 C 34.7778 %
1644 21-10-2019 00:00:00 13.30486 C 29.2014 %
1645 22-10-2019 00:00:00 11.45 C 27.8819 %
1646 23-10-2019 00:00:00 10.68403 C 31.1181 %
1647 24-10-2019 00:00:00 13.85208 C 27.9236 %
1648 25-10-2019 00:00:00 13.1625 C 24.9444 %
1649 26-10-2019 00:00:00 12.72639 C 27.5417 %
1650 27-10-2019 00:00:00 9.68467 C 30.8733 %
Sensor: Nr:Datum:Temp:Feuchte:
Aussen-T/F 1651 28-10-2019 00:00:00 5.91597 C 35.2014 %
1652 29-10-2019 00:00:00 6.21181 C 29.3264 %
1653 30-10-2019 00:00:00 2.93333 C 34.5347 %
1654 31-10-2019 00:00:00 1.41875 C 34.8333 %
1655 01-11-2019 00:00:00 5.44792 C 36.7292 %
1656 02-11-2019 00:00:00 12.8125 C 27.6458 %
1657 03-11-2019 00:00:00 11.45069 C 29.7639 %
1658 04-11-2019 00:00:00 9.88542 C 30.2153 %
1659 05-11-2019 00:00:00 9.25069 C 27.4306 %
1660 06-11-2019 00:00:00 8.33542 C 34.7014 %
1661 07-11-2019 00:00:00 7.30278 C 33.8333 %
1662 08-11-2019 00:00:00 4.29028 C 37.7153 %
1663 09-11-2019 00:00:00 4.26806 C 33.1111 %
1664 10-11-2019 00:00:00 2.51319 C 34.9861 %
1665 11-11-2019 00:00:00 4.2 C 27.4792 %
1666 12-11-2019 00:00:00 5.41667 C 25.4792 %
1667 13-11-2019 00:00:00 4.93472 C 22.9861 %
1668 14-11-2019 00:00:00 4.86042 C 26.9861 %
1669 15-11-2019 00:00:00 4.08472 C 26.3333 %
1670 16-11-2019 00:00:00 1.19444 C 38.8125 %
1671 17-11-2019 00:00:00 2.39861 C 40.2708 %
1672 18-11-2019 00:00:00 3.51667 C 36.2847 %
1673 19-11-2019 00:00:00 3.06736 C 36.5833 %
1674 20-11-2019 00:00:00 0.75972 C 37.8403 %
1675 21-11-2019 00:00:00 1.18951 C 39.3846 %
Sensor: Nr:Datum:Temp:Feuchte:
Aussen-T/F 1676 22-11-2019 00:00:00 3.65972 C 35.6806 %
1677 23-11-2019 00:00:00 4.64653 C 33.3889 %
1678 24-11-2019 00:00:00 1.99861 C 41.4722 %
1679 25-11-2019 00:00:00 4.16319 C 39.3681 %
1680 26-11-2019 00:00:00 7.75903 C 34.8472 %
1681 27-11-2019 00:00:00 9.72083 C 30.6875 %
1682 28-11-2019 00:00:00 10.55833 C 22.1319 %
1683 29-11-2019 00:00:00 5.75486 C 30.7639 %
1684 30-11-2019 00:00:00 0.48194 C 42.0972 %
1685 01-12-2019 00:00:00 1.14236 C 33.0139 %
1686 02-12-2019 00:00:00 1.20556 C 36.2986 %
1687 03-12-2019 00:00:00 3.97431 C 39.2292 %
1688 04-12-2019 00:00:00 0.41389 C 41.6111 %
1689 05-12-2019 00:00:00 -2.03194 C 42.0972 %
1690 06-12-2019 00:00:00 2.6125 C 34.4722 %
1691 07-12-2019 00:00:00 8.20694 C 27.7292 %
1692 08-12-2019 00:00:00 9.69931 C 24.2778 %
1693 09-12-2019 00:00:00 7.09444 C 23.9722 %
1694 10-12-2019 00:00:00 2.37361 C 34.0000 %
1695 11-12-2019 00:00:00 3.12569 C 39.3056 %
1696 12-12-2019 00:00:00 2.64931 C 37.2500 %
1697 13-12-2019 00:00:00 3.25278 C 34.0069 %
1698 14-12-2019 00:00:00 6.22222 C 28.0625 %
1699 15-12-2019 00:00:00 7.24792 C 30.8958 %
1700 16-12-2019 00:00:00 7.47361 C 39.2986 %
Sensor: Nr:Datum:Temp:Feuchte:
Aussen-T/F 1701 17-12-2019 00:00:00 9.69514 C 31.9653 %
1702 18-12-2019 00:00:00 6.95069 C 37.4792 %
1703 19-12-2019 00:00:00 4.60972 C 40.5417 %
1704 20-12-2019 00:00:00 6.87778 C 35.7847 %
1705 21-12-2019 00:00:00 6.42778 C 32.4306 %
1706 22-12-2019 00:00:00 7.57917 C 31.0556 %
1707 23-12-2019 00:00:00 7.34861 C 28.6111 %
1708 24-12-2019 00:00:00 7.20278 C 29.9097 %
1709 25-12-2019 00:00:00 6.91944 C 32.8333 %
1710 26-12-2019 00:00:00 4.25278 C 40.6250 %
1711 27-12-2019 00:00:00 4.41181 C 36.8819 %
1712 28-12-2019 00:00:00 -1.22431 C 42.5000 %
1713 29-12-2019 00:00:00 -2.07708 C 39.8819 %
1714 30-12-2019 00:00:00 -1.99931 C 39.1319 %
1715 31-12-2019 00:00:00 -0.41736 C 39.5556 %
1716 01-01-2020 00:00:00 -0.10764 C 41.3403 %
1717 02-01-2020 00:00:00 0.98958 C 39.7014 %
1718 03-01-2020 00:00:00 7.00972 C 33.4653 %
1719 04-01-2020 00:00:00 4.78264 C 32.5903 %
1720 05-01-2020 00:00:00 5.21806 C 35.8750 %
1721 06-01-2020 00:00:00 2.11667 C 38.1667 %
1722 07-01-2020 00:00:00 4.43611 C 34.6944 %
1723 08-01-2020 00:00:00 7.71389 C 34.4167 %
1724 09-01-2020 00:00:00 10.33542 C 35.2292 %
1725 10-01-2020 00:00:00 8.27917 C 30.8958 %
Sensor: Nr:Datum:Temp:Feuchte:
Aussen-T/F 1726 11-01-2020 00:00:00 3.61806 C 33.7639 %
1727 12-01-2020 00:00:00 4.57083 C 30.3889 %
1728 13-01-2020 00:00:00 5.88472 C 35.0903 %
1729 14-01-2020 00:00:00 9.28264 C 24.1181 %
1730 15-01-2020 00:00:00 10.27083 C 23.7500 %
1731 16-01-2020 00:00:00 7.07569 C 40.1944 %
1732 17-01-2020 00:00:00 5.27986 C 39.1944 %
1733 18-01-2020 00:00:00 3.79028 C 32.6042 %
1734 19-01-2020 00:00:00 3.01389 C 40.8194 %
1735 20-01-2020 00:00:00 1.64861 C 39.3889 %
1736 21-01-2020 00:00:00 -2.675 C 44.7986 %
1737 22-01-2020 00:00:00 -1.95347 C 44.7153 %
1738 23-01-2020 00:00:00 0.53819 C 43.6458 %
1739 24-01-2020 00:00:00 0.81319 C 35.7222 %
1740 25-01-2020 00:00:00 1.99236 C 39.2014 %
1741 26-01-2020 00:00:00 2.13056 C 41.5625 %
1742 27-01-2020 00:00:00 5.48542 C 39.8264 %
1743 28-01-2020 00:00:00 5.07708 C 30.3750 %
1744 29-01-2020 00:00:00 4.20764 C 29.8611 %
1745 30-01-2020 00:00:00 7.57569 C 29.5694 %
1746 31-01-2020 00:00:00 12.86181 C 27.9167 %
1747 01-02-2020 00:00:00 11.16597 C 32.0972 %
1748 02-02-2020 00:00:00 9.925 C 31.1319 %
1749 03-02-2020 00:00:00 10.19236 C 29.5139 %
1750 04-02-2020 00:00:00 4.29514 C 36.4097 %
Sensor: Nr:Datum:Temp:Feuchte:
Aussen-T/F 1751 05-02-2020 00:00:00 3.05069 C 37.1458 %
1752 06-02-2020 00:00:00 0.04514 C 42.7500 %
1753 07-02-2020 00:00:00 -0.30764 C 42.8264 %
1754 08-02-2020 00:00:00 1.01389 C 43.0069 %
1755 09-02-2020 00:00:00 8.36458 C 32.5764 %
1756 10-02-2020 00:00:00 7.85 C 31.3611 %
1757 11-02-2020 00:00:00 5.29167 C 24.6597 %
1758 12-02-2020 00:00:00 4.32083 C 30.5972 %
1759 13-02-2020 00:00:00 3.32917 C 42.1250 %
1760 14-02-2020 00:00:00 5.46458 C 39.2639 %
1761 15-02-2020 00:00:00 5.89931 C 38.0278 %
1762 16-02-2020 00:00:00 14.44931 C 23.2431 %
1763 17-02-2020 00:00:00 8.25903 C 32.4167 %
1764 18-02-2020 00:00:00 6.89097 C 31.0347 %
1765 19-02-2020 00:00:00 5.73889 C 30.1875 %
1766 20-02-2020 00:00:00 7.7125 C 32.9722 %
1767 21-02-2020 00:00:00 4.71042 C 33.5972 %
1768 22-02-2020 00:00:00 7.67986 C 30.0347 %
1769 23-02-2020 00:00:00 10.01389 C 35.3403 %
1770 24-02-2020 00:00:00 7.74653 C 36.3194 %
1771 25-02-2020 00:00:00 8.81597 C 32.2778 %
1772 26-02-2020 00:00:00 4.37431 C 33.6806 %
1773 27-02-2020 00:00:00 2.22153 C 41.6806 %
1774 28-02-2020 00:00:00 3.52431 C 38.4514 %
1775 29-02-2020 00:00:00 8.60556 C 34.8889 %
Sensor: Nr:Datum:Temp:Feuchte:
Aussen-T/F 1776 01-03-2020 00:00:00 7.15694 C 36.0000 %
1777 02-03-2020 00:00:00 5.99375 C 40.1667 %
1778 03-03-2020 00:00:00 4.26806 C 39.6458 %
1779 04-03-2020 00:00:00 5.28958 C 37.5764 %
1780 05-03-2020 00:00:00 5.45764 C 43.0833 %
1781 06-03-2020 00:00:00 5.63958 C 40.4931 %
1782 07-03-2020 00:00:00 6.26458 C 33.7569 %
1783 08-03-2020 00:00:00 9.46458 C 32.2361 %
1784 09-03-2020 00:00:00 7.81875 C 35.4514 %
1785 10-03-2020 00:00:00 9.06181 C 39.4514 %
1786 11-03-2020 00:00:00 14.0375 C 35.2639 %
1787 12-03-2020 00:00:00 11.01597 C 30.3681 %
1788 13-03-2020 00:00:00 6.99236 C 33.4236 %
1789 14-03-2020 00:00:00 5.89028 C 38.1667 %
1790 15-03-2020 00:00:00 9.14653 C 32.2153 %
1791 16-03-2020 00:00:00 9.43264 C 35.6667 %
1792 17-03-2020 00:00:00 12.02708 C 33.7847 %
1793 18-03-2020 00:00:00 9.92639 C 36.2153 %
1794 19-03-2020 00:00:00 12.58194 C 32.0417 %
1795 20-03-2020 00:00:00 10.52657 C 36.2308 %
1796 21-03-2020 00:00:00 5.89653 C 34.6597 %
1797 22-03-2020 00:00:00 4.30139 C 28.5278 %
1798 23-03-2020 00:00:00 3.12292 C 27.0764 %
1799 24-03-2020 00:00:00 2.82431 C 27.8403 %
1800 25-03-2020 00:00:00 3.67014 C 25.0486 %
Sensor: Nr:Datum:Temp:Feuchte:
Aussen-T/F 1801 26-03-2020 00:00:00 5.25486 C 23.4931 %
1802 27-03-2020 00:00:00 8.10139 C 29.8819 %
1803 28-03-2020 00:00:00 9.69236 C 30.9306 %
1804 29-03-2020 00:00:00 5.0942 C 30.1377 %
1805 30-03-2020 00:00:00 2.89028 C 29.9167 %
1806 31-03-2020 00:00:00 5.79792 C 30.1528 %
1807 01-04-2020 00:00:00 4.16111 C 29.6944 %
1808 02-04-2020 00:00:00 5.26806 C 31.1944 %
1809 03-04-2020 00:00:00 7.93542 C 28.5069 %
1810 04-04-2020 00:00:00 6.89375 C 31.8958 %
1811 05-04-2020 00:00:00 9.74514 C 32.0625 %
1812 06-04-2020 00:00:00 12.17708 C 29.7431 %
1813 07-04-2020 00:00:00 14.2875 C 28.9028 %
1814 08-04-2020 00:00:00 15.02153 C 31.1528 %
1815 09-04-2020 00:00:00 15.89514 C 27.6458 %
1816 10-04-2020 00:00:00 14.80972 C 29.8333 %
1817 11-04-2020 00:00:00 14.775 C 25.4861 %
1818 12-04-2020 00:00:00 15.71319 C 27.3056 %
1819 13-04-2020 00:00:00 9.43542 C 29.6944 %
1820 14-04-2020 00:00:00 6.54583 C 28.1042 %
1821 15-04-2020 00:00:00 9.17222 C 30.8750 %
1822 16-04-2020 00:00:00 13.09792 C 29.6667 %
1823 17-04-2020 00:00:00 15.68056 C 30.2500 %
1824 18-04-2020 00:00:00 14.81597 C 32.5000 %
1825 19-04-2020 00:00:00 13.35694 C 32.8889 %
Sensor: Nr:Datum:Temp:Feuchte:
Aussen-T/F 1826 20-04-2020 00:00:00 12.80069 C 22.9861 %
1827 21-04-2020 00:00:00 13.68472 C 21.3889 %
Sensor: Nr:Datum:Temp:Feuchte:
G-T/H 1 22-04-2015 00:00:00 12.6975 C 58.9083 %
2 23-04-2015 00:00:00 11.73833 C 61.1250 %
3 24-04-2015 00:00:00 11.9775 C 62.2250 %
4 25-04-2015 00:00:00 12.93167 C 66.2667 %
5 26-04-2015 00:00:00 13.24583 C 68.6917 %
6 27-04-2015 00:00:00 13.34833 C 69.2000 %
7 28-04-2015 00:00:00 11.89083 C 64.3333 %
8 29-04-2015 00:00:00 11.16667 C 61.7083 %
9 30-04-2015 00:00:00 12.04333 C 65.8333 %
10 01-05-2015 00:00:00 11.29333 C 65.6917 %
11 02-05-2015 00:00:00 11.58667 C 59.4000 %
12 03-05-2015 00:00:00 12.69833 C 65.7750 %
13 04-05-2015 00:00:00 13.4175 C 68.9250 %
14 05-05-2015 00:00:00 14.60308 C 69.0000 %
15 06-05-2015 00:00:00 14.5625 C 64.7667 %
16 07-05-2015 00:00:00 13.93583 C 63.4917 %
17 08-05-2015 00:00:00 13.885 C 63.8667 %
18 09-05-2015 00:00:00 14.42583 C 67.1250 %
19 10-05-2015 00:00:00 14.335 C 68.0333 %
20 11-05-2015 00:00:00 14.62917 C 68.3000 %
21 12-05-2015 00:00:00 15.545 C 69.8000 %
22 13-05-2015 00:00:00 14.80917 C 61.9917 %
23 14-05-2015 00:00:00 14.8 C 64.8583 %
24 15-05-2015 00:00:00 14.81083 C 67.7083 %
25 16-05-2015 00:00:00 14.17583 C 64.5750 %
Sensor: Nr:Datum:Temp:Feuchte:
G-T/H 26 17-05-2015 00:00:00 14.19833 C 66.5000 %
27 18-05-2015 00:00:00 14.45917 C 65.1583 %
28 19-05-2015 00:00:00 14.70336 C 62.5882 %
29 20-05-2015 00:00:00 14.285 C 61.3583 %
30 21-05-2015 00:00:00 13.67167 C 60.8917 %
31 22-05-2015 00:00:00 14.2 C 62.6500 %
32 23-05-2015 00:00:00 15.09417 C 64.1833 %
33 24-05-2015 00:00:00 15.51167 C 66.0667 %
34 25-05-2015 00:00:00 15.44167 C 67.6833 %
35 26-05-2015 00:00:00 14.56583 C 64.3667 %
36 27-05-2015 00:00:00 13.92167 C 61.9000 %
37 28-05-2015 00:00:00 14.09667 C 63.4417 %
38 29-05-2015 00:00:00 14.41083 C 66.2083 %
39 30-05-2015 00:00:00 14.2725 C 64.4167 %
40 31-05-2015 00:00:00 13.905 C 62.9500 %
41 01-06-2015 00:00:00 15 C 67.3083 %
42 02-06-2015 00:00:00 15.0325 C 66.7583 %
43 03-06-2015 00:00:00 15.72083 C 67.7250 %
44 04-06-2015 00:00:00 16.01917 C 67.6000 %
45 05-06-2015 00:00:00 17.0325 C 68.6917 %
46 06-06-2015 00:00:00 18.33167 C 69.6917 %
47 07-06-2015 00:00:00 17.33583 C 63.9667 %
48 08-06-2015 00:00:00 16.80667 C 62.2833 %
49 09-06-2015 00:00:00 16.3075 C 60.2500 %
50 10-06-2015 00:00:00 15.97333 C 63.2417 %
Sensor: Nr:Datum:Temp:Feuchte:
G-T/H 51 11-06-2015 00:00:00 17.04083 C 65.1750 %
52 12-06-2015 00:00:00 17.6475 C 66.8667 %
53 13-06-2015 00:00:00 17.74417 C 69.4250 %
54 14-06-2015 00:00:00 17.46333 C 68.0500 %
55 15-06-2015 00:00:00 17.66333 C 67.1417 %
56 16-06-2015 00:00:00 17.08667 C 62.2083 %
57 17-06-2015 00:00:00 16.53083 C 59.9583 %
58 18-06-2015 00:00:00 16.97917 C 64.2333 %
59 19-06-2015 00:00:00 16.2025 C 63.4083 %
60 20-06-2015 00:00:00 15.62667 C 66.2917 %
61 21-06-2015 00:00:00 15.70413 C 68.0579 %
62 22-06-2015 00:00:00 15.6825 C 68.9417 %
63 23-06-2015 00:00:00 14.70917 C 69.2083 %
64 24-06-2015 00:00:00 14.74417 C 70.1583 %
65 25-06-2015 00:00:00 15.75583 C 70.2250 %
66 26-06-2015 00:00:00 16.96 C 70.9417 %
67 27-06-2015 00:00:00 18.00603 C 70.2500 %
68 28-06-2015 00:00:00 17.55833 C 67.8250 %
69 29-06-2015 00:00:00 18.61083 C 67.1667 %
70 30-06-2015 00:00:00 18.97333 C 65.3917 %
71 01-07-2015 00:00:00 19.56417 C 65.4833 %
72 02-07-2015 00:00:00 20.71917 C 67.3083 %
73 03-07-2015 00:00:00 22.09333 C 67.5333 %
74 04-07-2015 00:00:00 23.02333 C 66.0667 %
75 05-07-2015 00:00:00 23.00667 C 66.4583 %
Sensor: Nr:Datum:Temp:Feuchte:
G-T/H 76 06-07-2015 00:00:00 21.73583 C 63.1500 %
77 07-07-2015 00:00:00 20.9225 C 64.1583 %
78 08-07-2015 00:00:00 20.17417 C 62.1917 %
79 09-07-2015 00:00:00 18.86667 C 60.0250 %
80 10-07-2015 00:00:00 18.11167 C 57.7167 %
81 11-07-2015 00:00:00 20.0325 C 52.9917 %
82 12-07-2015 00:00:00 19.95167 C 59.6083 %
83 13-07-2015 00:00:00 18.8825 C 64.7917 %
84 14-07-2015 00:00:00 18.82833 C 67.3417 %
85 15-07-2015 00:00:00 20.49667 C 63.8917 %
86 16-07-2015 00:00:00 20.81917 C 66.0000 %
87 17-07-2015 00:00:00 23.54583 C 55.9833 %
88 18-07-2015 00:00:00 22.705 C 60.1667 %
89 19-07-2015 00:00:00 21.30417 C 63.4167 %
90 20-07-2015 00:00:00 21.16667 C 70.0917 %
91 21-07-2015 00:00:00 22.84 C 66.7833 %
92 22-07-2015 00:00:00 23.2075 C 64.8667 %
93 23-07-2015 00:00:00 22.08917 C 55.4167 %
94 24-07-2015 00:00:00 21.55833 C 57.6333 %
95 25-07-2015 00:00:00 20.4825 C 59.9167 %
96 26-07-2015 00:00:00 18.76387 C 59.6723 %
97 27-07-2015 00:00:00 18.50833 C 64.7833 %
98 28-07-2015 00:00:00 18.6175 C 55.4750 %
99 29-07-2015 00:00:00 18.64917 C 50.9833 %
100 30-07-2015 00:00:00 17.90333 C 55.0083 %
Sensor: Nr:Datum:Temp:Feuchte:
G-T/H 101 31-07-2015 00:00:00 17.51667 C 56.3750 %
102 01-08-2015 00:00:00 17.9775 C 60.4250 %
103 02-08-2015 00:00:00 19.4225 C 58.7000 %
104 03-08-2015 00:00:00 20.1325 C 58.5833 %
105 04-08-2015 00:00:00 20.325 C 61.9083 %
106 05-08-2015 00:00:00 19.47833 C 64.3583 %
107 06-08-2015 00:00:00 20.25917 C 64.3583 %
108 07-08-2015 00:00:00 21.64083 C 65.0917 %
109 08-08-2015 00:00:00 22.08917 C 67.8167 %
110 09-08-2015 00:00:00 21.58083 C 67.9583 %
111 10-08-2015 00:00:00 21.44333 C 67.1417 %
112 11-08-2015 00:00:00 20.96333 C 67.0833 %
113 12-08-2015 00:00:00 21.32417 C 68.4000 %
114 13-08-2015 00:00:00 21.7175 C 68.6917 %
115 14-08-2015 00:00:00 22.36583 C 68.3750 %
116 15-08-2015 00:00:00 21.69333 C 66.6833 %
117 16-08-2015 00:00:00 20.2775 C 67.3583 %
118 17-08-2015 00:00:00 18.54417 C 68.6917 %
119 18-08-2015 00:00:00 18.02417 C 65.2417 %
120 19-08-2015 00:00:00 17.90417 C 60.9667 %
121 20-08-2015 00:00:00 19.13083 C 58.4750 %
122 21-08-2015 00:00:00 19.29417 C 60.4167 %
123 22-08-2015 00:00:00 18.915 C 60.9667 %
124 23-08-2015 00:00:00 18.9 C 61.1250 %
125 24-08-2015 00:00:00 19.19083 C 65.2833 %
Sensor: Nr:Datum:Temp:Feuchte:
G-T/H 126 25-08-2015 00:00:00 18.72667 C 64.5750 %
127 26-08-2015 00:00:00 18.58917 C 65.1833 %
128 27-08-2015 00:00:00 19.03083 C 67.3000 %
129 28-08-2015 00:00:00 18.38333 C 69.0250 %
130 29-08-2015 00:00:00 18.38417 C 70.4583 %
131 30-08-2015 00:00:00 19.39 C 72.3917 %
132 31-08-2015 00:00:00 20.6975 C 69.4083 %
133 01-09-2015 00:00:00 20.15 C 70.1583 %
134 02-09-2015 00:00:00 18.33167 C 68.7667 %
135 03-09-2015 00:00:00 17.54583 C 67.2417 %
136 04-09-2015 00:00:00 16.6275 C 64.0667 %
137 05-09-2015 00:00:00 14.8325 C 67.1583 %
138 06-09-2015 00:00:00 15.50833 C 66.5667 %
139 07-09-2015 00:00:00 15.67333 C 69.1250 %
140 08-09-2015 00:00:00 16.0075 C 71.3833 %
141 09-09-2015 00:00:00 16.68 C 65.9000 %
142 10-09-2015 00:00:00 15.92 C 64.2000 %
143 11-09-2015 00:00:00 15.59583 C 63.3917 %
144 12-09-2015 00:00:00 15.57 C 65.8583 %
145 13-09-2015 00:00:00 16.57667 C 71.0667 %
146 14-09-2015 00:00:00 16.69 C 71.9500 %
147 15-09-2015 00:00:00 15.7175 C 69.5500 %
148 16-09-2015 00:00:00 15.56417 C 72.2167 %
149 17-09-2015 00:00:00 15.93583 C 73.4417 %
150 18-09-2015 00:00:00 15.6125 C 73.4833 %
Sensor: Nr:Datum:Temp:Feuchte:
G-T/H 151 19-09-2015 00:00:00 15.85667 C 71.3750 %
152 20-09-2015 00:00:00 15.74917 C 72.2333 %
153 21-09-2015 00:00:00 15.62167 C 69.7583 %
154 22-09-2015 00:00:00 15.61417 C 71.9750 %
155 23-09-2015 00:00:00 14.74167 C 72.0667 %
156 24-09-2015 00:00:00 15.12083 C 72.9833 %
157 25-09-2015 00:00:00 15.3225 C 73.5083 %
158 26-09-2015 00:00:00 15.25667 C 72.2500 %
159 27-09-2015 00:00:00 14.47833 C 70.7250 %
160 28-09-2015 00:00:00 13.82083 C 63.8500 %
161 29-09-2015 00:00:00 13.9225 C 64.3833 %
162 30-09-2015 00:00:00 13.78667 C 63.5833 %
163 01-10-2015 00:00:00 12.79667 C 62.8583 %
164 02-10-2015 00:00:00 11.94833 C 64.4333 %
165 03-10-2015 00:00:00 12.395 C 70.0000 %
166 04-10-2015 00:00:00 13.28417 C 73.1000 %
167 05-10-2015 00:00:00 13.6925 C 73.3583 %
168 06-10-2015 00:00:00 14.75417 C 74.7000 %
169 07-10-2015 00:00:00 15.23833 C 74.9833 %
170 08-10-2015 00:00:00 15.18667 C 73.9750 %
171 09-10-2015 00:00:00 14.90167 C 74.2417 %
172 10-10-2015 00:00:00 14.54667 C 73.4250 %
173 11-10-2015 00:00:00 13.0525 C 61.8500 %
174 12-10-2015 00:00:00 11.29 C 60.7667 %
175 13-10-2015 00:00:00 10.26417 C 62.5750 %
Sensor: Nr:Datum:Temp:Feuchte:
G-T/H 176 14-10-2015 00:00:00 10.07 C 64.2000 %
177 15-10-2015 00:00:00 10.03 C 67.6500 %
178 16-10-2015 00:00:00 10.35583 C 70.7583 %
179 17-10-2015 00:00:00 10.84417 C 70.2250 %
180 18-10-2015 00:00:00 11.1475 C 71.3417 %
181 19-10-2015 00:00:00 11.18917 C 70.2667 %
182 20-10-2015 00:00:00 11.92083 C 73.4083 %
183 21-10-2015 00:00:00 12.1125 C 74.2667 %
184 22-10-2015 00:00:00 12.43083 C 74.8083 %
185 23-10-2015 00:00:00 12.8525 C 74.9750 %
186 24-10-2015 00:00:00 12.94083 C 73.2333 %
187 25-10-2015 00:00:00 12.9792 C 75.2880 %
188 26-10-2015 00:00:00 12.87083 C 74.4417 %
189 27-10-2015 00:00:00 11.90417 C 71.7000 %
190 28-10-2015 00:00:00 12.22417 C 74.5667 %
191 29-10-2015 00:00:00 12.4025 C 76.0083 %
192 30-10-2015 00:00:00 11.73667 C 72.8167 %
193 31-10-2015 00:00:00 11.19583 C 71.7583 %
194 01-11-2015 00:00:00 11.01 C 71.9750 %
195 02-11-2015 00:00:00 10.25583 C 69.3417 %
196 03-11-2015 00:00:00 9.9 C 70.3417 %
197 04-11-2015 00:00:00 10.06333 C 72.9667 %
198 05-11-2015 00:00:00 11.00667 C 76.0333 %
199 06-11-2015 00:00:00 12.04833 C 77.4500 %
200 07-11-2015 00:00:00 13.56417 C 78.3083 %
Sensor: Nr:Datum:Temp:Feuchte:
G-T/H 201 08-11-2015 00:00:00 13.79583 C 78.0000 %
202 09-11-2015 00:00:00 13.61583 C 78.0000 %
203 10-11-2015 00:00:00 13.80667 C 77.5667 %
204 11-11-2015 00:00:00 13.58 C 75.5167 %
205 12-11-2015 00:00:00 13.18583 C 76.2500 %
206 13-11-2015 00:00:00 12.58833 C 74.3167 %
207 14-11-2015 00:00:00 11.79167 C 70.2667 %
208 15-11-2015 00:00:00 12.18917 C 75.3083 %
209 16-11-2015 00:00:00 12.73 C 76.3750 %
210 17-11-2015 00:00:00 13.1775 C 77.0250 %
211 18-11-2015 00:00:00 13.73417 C 75.3917 %
212 19-11-2015 00:00:00 13.50583 C 75.1167 %
213 20-11-2015 00:00:00 12.18583 C 73.3667 %
214 21-11-2015 00:00:00 10.22417 C 66.4333 %
215 22-11-2015 00:00:00 8.77167 C 65.9583 %
216 23-11-2015 00:00:00 8.46833 C 67.1833 %
217 24-11-2015 00:00:00 8.06917 C 63.9917 %
218 25-11-2015 00:00:00 8.435 C 70.2917 %
219 26-11-2015 00:00:00 8.96833 C 72.8250 %
220 27-11-2015 00:00:00 8.3625 C 67.3417 %
221 28-11-2015 00:00:00 8.02333 C 67.4417 %
222 29-11-2015 00:00:00 8.965 C 72.4583 %
223 30-11-2015 00:00:00 10.345 C 74.4000 %
224 01-12-2015 00:00:00 11.16167 C 75.7250 %
225 02-12-2015 00:00:00 11.5875 C 75.8583 %
Sensor: Nr:Datum:Temp:Feuchte:
G-T/H 226 03-12-2015 00:00:00 11.085 C 72.3083 %
227 04-12-2015 00:00:00 10.09583 C 70.4250 %
228 05-12-2015 00:00:00 9.69167 C 72.4167 %
229 06-12-2015 00:00:00 9.48167 C 73.3917 %
230 07-12-2015 00:00:00 10.12083 C 75.0750 %
231 08-12-2015 00:00:00 9.17917 C 71.0417 %
232 09-12-2015 00:00:00 9.33333 C 74.2750 %
233 10-12-2015 00:00:00 8.84 C 70.2167 %
234 11-12-2015 00:00:00 8.05417 C 68.8833 %
235 12-12-2015 00:00:00 9.27583 C 74.2583 %
236 13-12-2015 00:00:00 10.04333 C 75.4167 %
237 14-12-2015 00:00:00 9.92917 C 75.1000 %
238 15-12-2015 00:00:00 8.91417 C 73.0167 %
239 16-12-2015 00:00:00 9.75667 C 76.1250 %
240 17-12-2015 00:00:00 11.36167 C 76.8583 %
241 18-12-2015 00:00:00 11.77417 C 77.0000 %
242 19-12-2015 00:00:00 12.04333 C 76.6167 %
243 20-12-2015 00:00:00 10.83917 C 74.4583 %
244 21-12-2015 00:00:00 10.93667 C 76.5083 %
245 22-12-2015 00:00:00 11.40833 C 76.6833 %
246 23-12-2015 00:00:00 11.51 C 76.4250 %
247 24-12-2015 00:00:00 10.82167 C 76.2250 %
248 25-12-2015 00:00:00 11.42167 C 77.0000 %
249 26-12-2015 00:00:00 11.68 C 77.0000 %
250 27-12-2015 00:00:00 10.6275 C 76.1250 %
Sensor: Nr:Datum:Temp:Feuchte:
G-T/H 251 28-12-2015 00:00:00 8.98083 C 70.9167 %
252 29-12-2015 00:00:00 7.58917 C 69.2083 %
253 30-12-2015 00:00:00 8.2025 C 73.7833 %
254 31-12-2015 00:00:00 8.56 C 74.3250 %
255 01-01-2016 00:00:00 8.00917 C 72.2667 %
256 02-01-2016 00:00:00 8.71833 C 74.2667 %
257 03-01-2016 00:00:00 8.725 C 75.2083 %
258 04-01-2016 00:00:00 8.69917 C 74.9333 %
259 05-01-2016 00:00:00 9.12417 C 76.0333 %
260 06-01-2016 00:00:00 9.33417 C 76.5000 %
261 07-01-2016 00:00:00 8.90667 C 74.1667 %
262 08-01-2016 00:00:00 7.98 C 70.4583 %
263 09-01-2016 00:00:00 6.60833 C 68.3250 %
264 10-01-2016 00:00:00 7.60084 C 74.0504 %
265 11-01-2016 00:00:00 8.1325 C 75.1500 %
266 12-01-2016 00:00:00 8.33667 C 75.0583 %
267 13-01-2016 00:00:00 8.1275 C 74.2917 %
268 14-01-2016 00:00:00 7.54667 C 70.0167 %
269 15-01-2016 00:00:00 7.395 C 71.2083 %
270 16-01-2016 00:00:00 6.98083 C 69.2833 %
271 17-01-2016 00:00:00 6.295 C 64.9750 %
272 18-01-2016 00:00:00 5.49917 C 64.8333 %
273 19-01-2016 00:00:00 4.78917 C 65.5000 %
274 20-01-2016 00:00:00 4.82833 C 66.9000 %
275 21-01-2016 00:00:00 5.51167 C 69.6167 %
Sensor: Nr:Datum:Temp:Feuchte:
G-T/H 276 22-01-2016 00:00:00 5.29667 C 68.5750 %
277 23-01-2016 00:00:00 5.67667 C 71.7167 %
278 24-01-2016 00:00:00 6.94167 C 74.3250 %
279 25-01-2016 00:00:00 8.14667 C 75.6833 %
280 26-01-2016 00:00:00 8.69 C 76.0750 %
281 27-01-2016 00:00:00 9.62167 C 75.4667 %
282 28-01-2016 00:00:00 9.90917 C 71.6667 %
283 29-01-2016 00:00:00 8.14667 C 68.8333 %
284 30-01-2016 00:00:00 9.08833 C 72.6167 %
285 31-01-2016 00:00:00 8.2675 C 70.5417 %
286 01-02-2016 00:00:00 9.75167 C 74.1417 %
287 02-02-2016 00:00:00 10.6475 C 74.2833 %
288 03-02-2016 00:00:00 9.35 C 67.8167 %
289 04-02-2016 00:00:00 8.42333 C 69.5417 %
290 05-02-2016 00:00:00 8.7975 C 72.7417 %
291 06-02-2016 00:00:00 9.6175 C 74.0000 %
292 07-02-2016 00:00:00 9.48833 C 73.2917 %
293 08-02-2016 00:00:00 9.44917 C 72.5417 %
294 09-02-2016 00:00:00 9.0575 C 70.2250 %
295 10-02-2016 00:00:00 8.62667 C 70.6833 %
296 11-02-2016 00:00:00 8.3975 C 71.5583 %
297 12-02-2016 00:00:00 7.87 C 67.5667 %
298 13-02-2016 00:00:00 7.18917 C 68.7583 %
299 14-02-2016 00:00:00 7.68417 C 72.7250 %
300 15-02-2016 00:00:00 7.525 C 70.2000 %
Sensor: Nr:Datum:Temp:Feuchte:
G-T/H 301 16-02-2016 00:00:00 6.49167 C 61.4583 %
302 17-02-2016 00:00:00 5.91083 C 64.0333 %
303 18-02-2016 00:00:00 6.93833 C 65.5917 %
304 19-02-2016 00:00:00 6.6725 C 64.0250 %
305 20-02-2016 00:00:00 6.87083 C 67.9667 %
306 21-02-2016 00:00:00 9.16417 C 72.3250 %
307 22-02-2016 00:00:00 10.13333 C 71.9167 %
308 23-02-2016 00:00:00 8.49917 C 67.6583 %
309 24-02-2016 00:00:00 7.5 C 68.0167 %
310 25-02-2016 00:00:00 6.74417 C 63.8250 %
311 26-02-2016 00:00:00 7.16167 C 63.9917 %
312 27-02-2016 00:00:00 7.0225 C 62.2167 %
313 28-02-2016 00:00:00 6.65833 C 63.3667 %
314 29-02-2016 00:00:00 7.045 C 60.9750 %
315 01-03-2016 00:00:00 6.78 C 60.8000 %
316 02-03-2016 00:00:00 7.31917 C 67.4500 %
317 03-03-2016 00:00:00 7.86333 C 68.0000 %
318 04-03-2016 00:00:00 7.1075 C 67.2583 %
319 05-03-2016 00:00:00 7.6825 C 73.4167 %
320 06-03-2016 00:00:00 7.565 C 70.6083 %
321 07-03-2016 00:00:00 7.475 C 71.4583 %
322 08-03-2016 00:00:00 6.84833 C 68.9583 %
323 09-03-2016 00:00:00 6.70833 C 65.5750 %
324 10-03-2016 00:00:00 6.68667 C 63.9583 %
325 11-03-2016 00:00:00 7.33667 C 67.2750 %
Sensor: Nr:Datum:Temp:Feuchte:
G-T/H 326 12-03-2016 00:00:00 7.66833 C 66.7333 %
327 13-03-2016 00:00:00 7.70417 C 66.4583 %
328 14-03-2016 00:00:00 7.42583 C 60.7917 %
329 15-03-2016 00:00:00 7.42583 C 63.4250 %
330 16-03-2016 00:00:00 7.295 C 63.0833 %
331 17-03-2016 00:00:00 6.89417 C 62.0000 %
332 18-03-2016 00:00:00 6.8975 C 63.3667 %
333 19-03-2016 00:00:00 7.8175 C 67.6500 %
334 20-03-2016 00:00:00 8.15083 C 68.6333 %
335 21-03-2016 00:00:00 8.68667 C 70.5417 %
336 22-03-2016 00:00:00 9.1375 C 70.2917 %
337 23-03-2016 00:00:00 9.6 C 70.4500 %
338 24-03-2016 00:00:00 9.6925 C 70.1333 %
339 25-03-2016 00:00:00 9.5625 C 71.4250 %
340 26-03-2016 00:00:00 9.97667 C 69.9250 %
341 27-03-2016 00:00:00 10.11913 C 70.8522 %
342 28-03-2016 00:00:00 9.8125 C 71.8083 %
343 29-03-2016 00:00:00 9.8175 C 71.2500 %
344 30-03-2016 00:00:00 10.3175 C 71.9583 %
345 31-03-2016 00:00:00 10.36417 C 72.2333 %
346 01-04-2016 00:00:00 9.36833 C 70.1750 %
347 02-04-2016 00:00:00 9.53083 C 70.8583 %
348 03-04-2016 00:00:00 11.37 C 71.6750 %
349 04-04-2016 00:00:00 12.26583 C 72.9083 %
350 05-04-2016 00:00:00 12.2875 C 73.0000 %
Sensor: Nr:Datum:Temp:Feuchte:
G-T/H 351 06-04-2016 00:00:00 11.68833 C 72.7250 %
352 07-04-2016 00:00:00 11.33 C 66.9500 %
353 08-04-2016 00:00:00 9.98417 C 63.2583 %
354 09-04-2016 00:00:00 10.4475 C 56.7917 %
355 10-04-2016 00:00:00 11.64167 C 62.6500 %
356 11-04-2016 00:00:00 12.65833 C 59.8833 %
357 12-04-2016 00:00:00 12.55833 C 64.0000 %
358 13-04-2016 00:00:00 11.98167 C 66.8667 %
359 14-04-2016 00:00:00 11.6325 C 68.1250 %
360 15-04-2016 00:00:00 12.27917 C 68.8667 %
361 16-04-2016 00:00:00 12.6725 C 69.5750 %
362 17-04-2016 00:00:00 12.02583 C 64.1750 %
363 18-04-2016 00:00:00 10.66333 C 60.4083 %
364 19-04-2016 00:00:00 10.79083 C 61.0333 %
365 20-04-2016 00:00:00 10.72417 C 60.2417 %
366 21-04-2016 00:00:00 11.09917 C 62.1167 %
367 22-04-2016 00:00:00 12.2725 C 64.0500 %
368 23-04-2016 00:00:00 12.21833 C 62.2583 %
369 24-04-2016 00:00:00 10.46833 C 58.8250 %
370 25-04-2016 00:00:00 9.705 C 62.8083 %
371 26-04-2016 00:00:00 9.39833 C 63.1083 %
372 27-04-2016 00:00:00 9.11583 C 62.9500 %
373 28-04-2016 00:00:00 9.37917 C 62.3333 %
374 29-04-2016 00:00:00 10.05167 C 61.3083 %
375 30-04-2016 00:00:00 10.66583 C 63.3250 %
Sensor: Nr:Datum:Temp:Feuchte:
G-T/H 376 01-05-2016 00:00:00 10.81833 C 66.3917 %
377 02-05-2016 00:00:00 11.39917 C 66.7083 %
378 03-05-2016 00:00:00 12.1925 C 66.1750 %
379 04-05-2016 00:00:00 11.66667 C 60.8083 %
380 05-05-2016 00:00:00 12.47917 C 58.2167 %
381 06-05-2016 00:00:00 13.25583 C 62.6333 %
382 07-05-2016 00:00:00 15.64667 C 58.6167 %
383 08-05-2016 00:00:00 16.73667 C 55.0000 %
384 09-05-2016 00:00:00 17.65083 C 55.0000 %
385 10-05-2016 00:00:00 16.9875 C 60.4583 %
386 11-05-2016 00:00:00 17.78917 C 59.5583 %
387 12-05-2016 00:00:00 18.00333 C 57.3333 %
388 13-05-2016 00:00:00 16.81833 C 62.8500 %
389 14-05-2016 00:00:00 15.055 C 60.3667 %
390 15-05-2016 00:00:00 13.6825 C 58.5667 %
391 16-05-2016 00:00:00 13.37833 C 57.1917 %
392 17-05-2016 00:00:00 14.11583 C 54.8500 %
393 18-05-2016 00:00:00 15.44083 C 56.8667 %
394 19-05-2016 00:00:00 15.42417 C 61.6833 %
395 20-05-2016 00:00:00 15.11917 C 63.5583 %
396 21-05-2016 00:00:00 17.11417 C 61.2417 %
397 22-05-2016 00:00:00 17.1375 C 63.3083 %
398 23-05-2016 00:00:00 16.6675 C 65.4333 %
399 24-05-2016 00:00:00 15.11083 C 66.7500 %
400 25-05-2016 00:00:00 14.5625 C 67.5333 %
Sensor: Nr:Datum:Temp:Feuchte:
G-T/H 401 26-05-2016 00:00:00 15.84083 C 64.6833 %
402 27-05-2016 00:00:00 16.43417 C 67.0667 %
403 28-05-2016 00:00:00 16.33333 C 69.2250 %
404 29-05-2016 00:00:00 16.47 C 70.2000 %
405 30-05-2016 00:00:00 16.7675 C 71.2917 %
406 31-05-2016 00:00:00 17.39032 C 69.3145 %
407 01-06-2016 00:00:00 16.90764 C 69.8090 %
408 02-06-2016 00:00:00 16.60486 C 71.1215 %
409 03-06-2016 00:00:00 16.82674 C 71.6979 %
410 04-06-2016 00:00:00 17.00764 C 72.5278 %
411 05-06-2016 00:00:00 17.47083 C 72.4375 %
412 06-06-2016 00:00:00 19.17188 C 71.5417 %
413 07-06-2016 00:00:00 19.49514 C 71.1979 %
414 08-06-2016 00:00:00 19.99896 C 67.3368 %
415 09-06-2016 00:00:00 19.07396 C 58.3681 %
416 10-06-2016 00:00:00 18.28403 C 60.7847 %
417 11-06-2016 00:00:00 18.9066 C 59.1458 %
418 12-06-2016 00:00:00 18.61424 C 63.5208 %
419 13-06-2016 00:00:00 17.83333 C 67.1563 %
420 14-06-2016 00:00:00 17.39931 C 68.4757 %
421 15-06-2016 00:00:00 17.24583 C 68.5903 %
422 16-06-2016 00:00:00 16.24236 C 71.1944 %
423 17-06-2016 00:00:00 16.34861 C 71.3090 %
424 18-06-2016 00:00:00 16.23056 C 71.5174 %
425 19-06-2016 00:00:00 16.85556 C 67.8368 %
Sensor: Nr:Datum:Temp:Feuchte:
G-T/H 426 20-06-2016 00:00:00 16.76798 C 58.9298 %
427 21-06-2016 00:00:00 18.16552 C 65.3017 %
428 22-06-2016 00:00:00 18.4725 C 69.0917 %
429 23-06-2016 00:00:00 19.365 C 71.3250 %
430 24-06-2016 00:00:00 20.41417 C 72.4667 %
431 25-06-2016 00:00:00 19.32667 C 72.2667 %
432 26-06-2016 00:00:00 17.69417 C 71.1667 %
433 27-06-2016 00:00:00 17.605 C 66.4750 %
434 28-06-2016 00:00:00 19.10167 C 64.6917 %
435 29-06-2016 00:00:00 19.85417 C 57.5417 %
436 30-06-2016 00:00:00 19.8875 C 60.6333 %
437 01-07-2016 00:00:00 20.32 C 62.7500 %
438 02-07-2016 00:00:00 19.3525 C 63.5667 %
439 03-07-2016 00:00:00 17.94167 C 64.7167 %
440 04-07-2016 00:00:00 18.07917 C 66.9333 %
441 05-07-2016 00:00:00 19.50833 C 65.1500 %
442 06-07-2016 00:00:00 18.59333 C 64.1000 %
443 07-07-2016 00:00:00 18.89 C 58.9500 %
444 08-07-2016 00:00:00 20.49583 C 59.9917 %
445 09-07-2016 00:00:00 20.265 C 63.4500 %
446 10-07-2016 00:00:00 20.23583 C 66.0667 %
447 11-07-2016 00:00:00 21.90583 C 60.9500 %
448 12-07-2016 00:00:00 21.28583 C 56.5333 %
449 13-07-2016 00:00:00 19.58583 C 61.2667 %
450 14-07-2016 00:00:00 18.12833 C 63.5000 %
Sensor: Nr:Datum:Temp:Feuchte:
G-T/H 451 15-07-2016 00:00:00 17.85833 C 64.4333 %
452 16-07-2016 00:00:00 17.93083 C 65.6917 %
453 17-07-2016 00:00:00 20.08 C 64.7667 %
454 18-07-2016 00:00:00 21.79667 C 59.9333 %
455 19-07-2016 00:00:00 22.34917 C 60.7583 %
456 20-07-2016 00:00:00 21.63333 C 64.3000 %
457 21-07-2016 00:00:00 21.57583 C 66.2500 %
458 22-07-2016 00:00:00 20.68417 C 68.0833 %
459 23-07-2016 00:00:00 20.68833 C 68.8750 %
460 24-07-2016 00:00:00 20.48333 C 69.4167 %
461 25-07-2016 00:00:00 20.91333 C 69.4000 %
462 26-07-2016 00:00:00 20.91083 C 69.4500 %
463 27-07-2016 00:00:00 20.35 C 69.0333 %
464 28-07-2016 00:00:00 20.44667 C 69.0333 %
465 29-07-2016 00:00:00 20.34167 C 68.9833 %
466 30-07-2016 00:00:00 20.43833 C 68.3250 %
467 31-07-2016 00:00:00 20.0325 C 68.5917 %
468 01-08-2016 00:00:00 19.39333 C 58.7417 %
469 02-08-2016 00:00:00 19.16833 C 63.6417 %
470 03-08-2016 00:00:00 18.67333 C 68.2083 %
471 04-08-2016 00:00:00 18.74667 C 70.3583 %
472 05-08-2016 00:00:00 18.29667 C 70.3333 %
473 06-08-2016 00:00:00 19.07417 C 69.3750 %
474 07-08-2016 00:00:00 19.03 C 69.0833 %
475 08-08-2016 00:00:00 20.345 C 62.8750 %
Sensor: Nr:Datum:Temp:Feuchte:
G-T/H 476 09-08-2016 00:00:00 19.3975 C 57.0333 %
477 10-08-2016 00:00:00 18.12167 C 59.1917 %
478 11-08-2016 00:00:00 16.77899 C 61.9748 %
479 12-08-2016 00:00:00 17.08917 C 67.0000 %
480 13-08-2016 00:00:00 18.70167 C 66.4667 %
481 14-08-2016 00:00:00 19.23583 C 66.2917 %
482 15-08-2016 00:00:00 19.80833 C 63.8583 %
483 16-08-2016 00:00:00 20.05583 C 57.9917 %
484 17-08-2016 00:00:00 19.5975 C 59.9500 %
485 18-08-2016 00:00:00 19.10667 C 62.0250 %
486 19-08-2016 00:00:00 19.285 C 65.6833 %
487 20-08-2016 00:00:00 19.33917 C 67.0167 %
488 21-08-2016 00:00:00 18.56083 C 67.8500 %
489 22-08-2016 00:00:00 18.2 C 68.1000 %
490 23-08-2016 00:00:00 18.51083 C 68.4750 %
491 24-08-2016 00:00:00 20.7375 C 63.8417 %
492 25-08-2016 00:00:00 21.7675 C 61.5667 %
493 26-08-2016 00:00:00 21.88833 C 64.2083 %
494 27-08-2016 00:00:00 21.44167 C 67.6000 %
495 28-08-2016 00:00:00 21.2675 C 68.1333 %
496 29-08-2016 00:00:00 20.725 C 67.0750 %
497 30-08-2016 00:00:00 19.75833 C 63.6083 %
498 31-08-2016 00:00:00 19.81833 C 59.3500 %
499 01-09-2016 00:00:00 20.415 C 61.3167 %
500 02-09-2016 00:00:00 20.5325 C 60.0417 %
Sensor: Nr:Datum:Temp:Feuchte:
G-T/H 501 03-09-2016 00:00:00 21.2775 C 58.3833 %
502 04-09-2016 00:00:00 20.23417 C 62.0333 %
503 05-09-2016 00:00:00 19.63 C 61.6750 %
504 06-09-2016 00:00:00 19.45667 C 59.8000 %
505 07-09-2016 00:00:00 17.9625 C 62.8833 %
506 08-09-2016 00:00:00 20.22417 C 62.2667 %
507 09-09-2016 00:00:00 20.395 C 59.8500 %
508 10-09-2016 00:00:00 19.37583 C 63.5083 %
509 11-09-2016 00:00:00 19.84167 C 61.8500 %
510 12-09-2016 00:00:00 19.2425 C 63.9750 %
511 13-09-2016 00:00:00 19.18917 C 67.2250 %
512 14-09-2016 00:00:00 19.21167 C 67.7167 %
513 15-09-2016 00:00:00 20.69 C 62.9250 %
514 16-09-2016 00:00:00 19.985 C 62.3917 %
515 17-09-2016 00:00:00 18.71583 C 62.1417 %
516 18-09-2016 00:00:00 18.4775 C 65.9583 %
517 19-09-2016 00:00:00 18.15833 C 63.7833 %
518 20-09-2016 00:00:00 17.68667 C 65.4583 %
519 21-09-2016 00:00:00 16.9825 C 64.3250 %
520 22-09-2016 00:00:00 16.06167 C 59.4417 %
521 23-09-2016 00:00:00 15.82583 C 65.3667 %
522 24-09-2016 00:00:00 15.64417 C 67.9583 %
523 25-09-2016 00:00:00 15.26917 C 68.1167 %
524 26-09-2016 00:00:00 16.33 C 68.2917 %
525 27-09-2016 00:00:00 15.98083 C 69.3167 %
Sensor: Nr:Datum:Temp:Feuchte:
G-T/H 526 28-09-2016 00:00:00 16.32 C 68.9750 %
527 29-09-2016 00:00:00 16.83 C 70.3417 %
528 30-09-2016 00:00:00 17.00583 C 70.6167 %
529 01-10-2016 00:00:00 16.32667 C 71.0000 %
530 02-10-2016 00:00:00 15.67333 C 71.6083 %
531 03-10-2016 00:00:00 15.18 C 72.4000 %
532 04-10-2016 00:00:00 14.88 C 72.3167 %
533 05-10-2016 00:00:00 12.96083 C 60.0750 %
534 06-10-2016 00:00:00 12.69583 C 64.3417 %
535 07-10-2016 00:00:00 13.35833 C 70.4250 %
536 08-10-2016 00:00:00 13.4975 C 71.5583 %
537 09-10-2016 00:00:00 13.15583 C 69.0833 %
538 10-10-2016 00:00:00 12.26667 C 65.6583 %
539 11-10-2016 00:00:00 12.15083 C 68.7417 %
540 12-10-2016 00:00:00 12.37167 C 69.5583 %
541 13-10-2016 00:00:00 11.78 C 63.9417 %
542 14-10-2016 00:00:00 12.04583 C 65.1000 %
543 15-10-2016 00:00:00 12.9775 C 69.8500 %
544 16-10-2016 00:00:00 12.80667 C 68.1833 %
545 17-10-2016 00:00:00 12.835 C 72.4250 %
546 18-10-2016 00:00:00 13.08 C 73.2750 %
547 19-10-2016 00:00:00 12.90917 C 72.6917 %
548 20-10-2016 00:00:00 12.49167 C 72.9250 %
549 21-10-2016 00:00:00 12.16917 C 72.9667 %
550 22-10-2016 00:00:00 11.97167 C 73.1167 %
Sensor: Nr:Datum:Temp:Feuchte:
G-T/H 551 23-10-2016 00:00:00 11.56167 C 71.1250 %
552 24-10-2016 00:00:00 11.85333 C 73.8167 %
553 25-10-2016 00:00:00 12.67417 C 75.2000 %
554 26-10-2016 00:00:00 12.92083 C 72.7667 %
555 27-10-2016 00:00:00 11.9975 C 70.7667 %
556 28-10-2016 00:00:00 12.79417 C 71.9083 %
557 29-10-2016 00:00:00 13.4925 C 73.2500 %
558 30-10-2016 00:00:00 12.6816 C 71.9200 %
559 31-10-2016 00:00:00 11.75083 C 70.0667 %
560 01-11-2016 00:00:00 11.04417 C 69.4750 %
561 02-11-2016 00:00:00 11.27917 C 71.5500 %
562 03-11-2016 00:00:00 10.86 C 69.9917 %
563 04-11-2016 00:00:00 10.0325 C 67.5750 %
564 05-11-2016 00:00:00 10.58917 C 71.7750 %
565 06-11-2016 00:00:00 10.1525 C 69.2083 %
566 07-11-2016 00:00:00 9.85 C 68.7833 %
567 08-11-2016 00:00:00 9.42417 C 66.2417 %
568 09-11-2016 00:00:00 8.82583 C 66.7333 %
569 10-11-2016 00:00:00 9.30167 C 70.3000 %
570 11-11-2016 00:00:00 9.65417 C 71.9000 %
571 12-11-2016 00:00:00 8.685 C 64.9333 %
572 13-11-2016 00:00:00 8.31083 C 64.6083 %
573 14-11-2016 00:00:00 7.62917 C 61.3083 %
574 15-11-2016 00:00:00 8.05833 C 68.3083 %
575 16-11-2016 00:00:00 9.605 C 73.2917 %
Sensor: Nr:Datum:Temp:Feuchte:
G-T/H 576 17-11-2016 00:00:00 10.72917 C 74.0000 %
577 18-11-2016 00:00:00 11.2175 C 72.3333 %
578 19-11-2016 00:00:00 9.86333 C 67.3833 %
579 20-11-2016 00:00:00 9.69583 C 70.2250 %
580 21-11-2016 00:00:00 10.8675 C 72.8417 %
581 22-11-2016 00:00:00 11.305 C 73.8750 %
582 23-11-2016 00:00:00 11.27583 C 74.1333 %
583 24-11-2016 00:00:00 11.035 C 74.8083 %
584 25-11-2016 00:00:00 10.7 C 72.8750 %
585 26-11-2016 00:00:00 10.5825 C 71.8333 %
586 27-11-2016 00:00:00 10.20167 C 70.9917 %
587 28-11-2016 00:00:00 8.60417 C 61.3417 %
588 29-11-2016 00:00:00 7.215 C 58.6917 %
589 30-11-2016 00:00:00 5.98167 C 59.2667 %
590 01-12-2016 00:00:00 3.9525 C 66.1500 %
591 02-12-2016 00:00:00 8.02083 C 70.3667 %
592 03-12-2016 00:00:00 7.42417 C 63.9833 %
593 04-12-2016 00:00:00 6.275 C 61.7083 %
594 05-12-2016 00:00:00 5.36667 C 64.7667 %
595 06-12-2016 00:00:00 4.82967 C 64.3626 %
596 07-12-2016 00:00:00 5.38252 C 68.3883 %
597 08-12-2016 00:00:00 5.9125 C 69.6000 %
598 09-12-2016 00:00:00 6.99833 C 71.6333 %
599 10-12-2016 00:00:00 7.755 C 72.6417 %
600 11-12-2016 00:00:00 8.39667 C 74.1583 %
Sensor: Nr:Datum:Temp:Feuchte:
G-T/H 601 12-12-2016 00:00:00 9.10083 C 74.1333 %
602 13-12-2016 00:00:00 8.56083 C 71.4833 %
603 14-12-2016 00:00:00 8.81583 C 74.0417 %
604 15-12-2016 00:00:00 9.39 C 74.3000 %
605 16-12-2016 00:00:00 9.12417 C 69.5333 %
606 17-12-2016 00:00:00 7.19138 C 66.8793 %
607 18-12-2016 00:00:00 6.47667 C 73.8167 %
608 19-12-2016 00:00:00 6.53917 C 69.9833 %
609 20-12-2016 00:00:00 7.37 C 63.5167 %
610 21-12-2016 00:00:00 6.99 C 64.7917 %
611 22-12-2016 00:00:00 7.68917 C 69.0917 %
612 23-12-2016 00:00:00 7.73917 C 71.5917 %
613 24-12-2016 00:00:00 8.2975 C 72.4083 %
614 25-12-2016 00:00:00 8.90417 C 73.3417 %
615 26-12-2016 00:00:00 9.52917 C 72.0250 %
616 27-12-2016 00:00:00 8.22333 C 68.1667 %
617 28-12-2016 00:00:00 8.0975 C 69.3167 %
618 29-12-2016 00:00:00 6.70583 C 61.8833 %
619 30-12-2016 00:00:00 5.99833 C 63.3083 %
620 31-12-2016 00:00:00 5.83083 C 62.2667 %
621 01-01-2017 00:00:00 5.44917 C 64.1833 %
622 02-01-2017 00:00:00 5.875 C 67.6500 %
623 03-01-2017 00:00:00 6.26833 C 69.1333 %
624 04-01-2017 00:00:00 6.87333 C 70.5333 %
625 05-01-2017 00:00:00 6.42167 C 64.7417 %
Sensor: Nr:Datum:Temp:Feuchte:
G-T/H 626 06-01-2017 00:00:00 5.2175 C 62.1250 %
627 07-01-2017 00:00:00 5.225 C 61.2333 %
628 08-01-2017 00:00:00 5.37083 C 67.6667 %
629 09-01-2017 00:00:00 5.805 C 70.2583 %
630 10-01-2017 00:00:00 6.215 C 69.9833 %
631 11-01-2017 00:00:00 6.85417 C 73.1167 %
632 12-01-2017 00:00:00 7.36667 C 72.3333 %
633 13-01-2017 00:00:00 7.38917 C 68.9917 %
634 14-01-2017 00:00:00 6.96667 C 66.6000 %
635 15-01-2017 00:00:00 6.63083 C 66.1917 %
636 16-01-2017 00:00:00 5.80917 C 64.9167 %
637 17-01-2017 00:00:00 5.4625 C 65.3000 %
638 18-01-2017 00:00:00 5.16083 C 63.5417 %
639 19-01-2017 00:00:00 4.74667 C 62.7667 %
640 20-01-2017 00:00:00 4.44583 C 61.4250 %
641 21-01-2017 00:00:00 4.46917 C 61.4667 %
642 22-01-2017 00:00:00 6.90667 C 56.2500 %
643 23-01-2017 00:00:00 4.80167 C 59.9750 %
644 24-01-2017 00:00:00 4.74333 C 66.7000 %
645 25-01-2017 00:00:00 5.13697 C 66.5546 %
646 26-01-2017 00:00:00 4.95 C 66.4333 %
647 27-01-2017 00:00:00 4.87667 C 64.0167 %
648 28-01-2017 00:00:00 4.965 C 64.2417 %
649 29-01-2017 00:00:00 5.46167 C 67.2750 %
650 30-01-2017 00:00:00 6.3575 C 70.0750 %
Sensor: Nr:Datum:Temp:Feuchte:
G-T/H 651 31-01-2017 00:00:00 7.135 C 70.9417 %
652 01-02-2017 00:00:00 7.0975 C 69.4500 %
653 02-02-2017 00:00:00 7.63083 C 71.6000 %
654 03-02-2017 00:00:00 7.80583 C 71.7917 %
655 04-02-2017 00:00:00 7.86667 C 73.2833 %
656 05-02-2017 00:00:00 7.52167 C 72.1917 %
657 06-02-2017 00:00:00 7.44667 C 71.3500 %
658 07-02-2017 00:00:00 7.65917 C 69.1583 %
659 08-02-2017 00:00:00 7.745 C 67.0667 %
660 09-02-2017 00:00:00 6.61083 C 60.3750 %
661 10-02-2017 00:00:00 6.26583 C 62.6250 %
662 11-02-2017 00:00:00 6.50167 C 66.3417 %
663 12-02-2017 00:00:00 6.90333 C 69.8583 %
664 13-02-2017 00:00:00 6.77417 C 66.2250 %
665 14-02-2017 00:00:00 6.34667 C 63.3750 %
666 15-02-2017 00:00:00 6.06333 C 64.3167 %
667 16-02-2017 00:00:00 6.4425 C 67.4583 %
668 17-02-2017 00:00:00 7.16417 C 70.9167 %
669 18-02-2017 00:00:00 7.8825 C 71.6500 %
670 19-02-2017 00:00:00 6.91667 C 66.6917 %
671 20-02-2017 00:00:00 7.93417 C 71.2667 %
672 21-02-2017 00:00:00 9.10333 C 73.0000 %
673 22-02-2017 00:00:00 9.84667 C 73.5750 %
674 23-02-2017 00:00:00 10.02917 C 72.3500 %
675 24-02-2017 00:00:00 9.025 C 66.0583 %
Sensor: Nr:Datum:Temp:Feuchte:
G-T/H 676 25-02-2017 00:00:00 7.8125 C 64.1750 %
677 26-02-2017 00:00:00 8.2975 C 69.2667 %
678 27-02-2017 00:00:00 9.63917 C 70.5750 %
679 28-02-2017 00:00:00 9.33 C 66.9583 %
680 01-03-2017 00:00:00 8.60583 C 69.5417 %
681 02-03-2017 00:00:00 8.9175 C 65.6500 %
682 03-03-2017 00:00:00 8.58667 C 65.2583 %
683 04-03-2017 00:00:00 9.72083 C 67.1417 %
684 05-03-2017 00:00:00 9.9025 C 68.5167 %
685 06-03-2017 00:00:00 9.1775 C 69.4333 %
686 07-03-2017 00:00:00 8.97833 C 70.7333 %
687 08-03-2017 00:00:00 8.28333 C 70.1333 %
688 09-03-2017 00:00:00 9.54333 C 71.3083 %
689 10-03-2017 00:00:00 9.94 C 66.3417 %
690 11-03-2017 00:00:00 9.4 C 61.6667 %
691 12-03-2017 00:00:00 9.37083 C 56.6667 %
692 13-03-2017 00:00:00 9.06083 C 61.4333 %
693 14-03-2017 00:00:00 9.58917 C 65.5667 %
694 15-03-2017 00:00:00 10.38083 C 67.1833 %
695 16-03-2017 00:00:00 9.89833 C 64.6750 %
696 17-03-2017 00:00:00 9.92917 C 66.9833 %
697 18-03-2017 00:00:00 10.04833 C 66.3167 %
698 19-03-2017 00:00:00 10.80333 C 69.8417 %
699 20-03-2017 00:00:00 11.3975 C 70.0000 %
700 21-03-2017 00:00:00 11.28667 C 69.3000 %
Sensor: Nr:Datum:Temp:Feuchte:
G-T/H 701 22-03-2017 00:00:00 9.84 C 63.8000 %
702 23-03-2017 00:00:00 10.27083 C 66.0750 %
703 24-03-2017 00:00:00 10.7825 C 62.7500 %
704 25-03-2017 00:00:00 10.76167 C 57.7333 %
705 26-03-2017 00:00:00 10.54783 C 58.5826 %
706 27-03-2017 00:00:00 10.2775 C 50.5417 %
707 28-03-2017 00:00:00 11.49667 C 53.5167 %
708 29-03-2017 00:00:00 12.4025 C 60.0000 %
709 30-03-2017 00:00:00 13.8 C 58.8333 %
710 31-03-2017 00:00:00 13.9 C 55.5083 %
711 01-04-2017 00:00:00 13.5225 C 61.1333 %
712 02-04-2017 00:00:00 13.045 C 62.0500 %
713 03-04-2017 00:00:00 12.37917 C 61.7583 %
714 04-04-2017 00:00:00 11.70917 C 61.7250 %
715 05-04-2017 00:00:00 11.2225 C 60.3000 %
716 06-04-2017 00:00:00 11.25083 C 61.8833 %
717 07-04-2017 00:00:00 11.30833 C 61.5667 %
718 08-04-2017 00:00:00 12.10917 C 64.3167 %
719 09-04-2017 00:00:00 11.93083 C 63.3250 %
720 10-04-2017 00:00:00 12.2625 C 64.3417 %
721 11-04-2017 00:00:00 11.93333 C 61.3750 %
722 12-04-2017 00:00:00 11.73417 C 62.1250 %
723 13-04-2017 00:00:00 12.4775 C 62.8750 %
724 14-04-2017 00:00:00 12.10583 C 60.6583 %
725 15-04-2017 00:00:00 11.93917 C 62.9917 %
Sensor: Nr:Datum:Temp:Feuchte:
G-T/H 726 16-04-2017 00:00:00 11.1475 C 62.5750 %
727 17-04-2017 00:00:00 10.5075 C 62.2583 %
728 18-04-2017 00:00:00 9.84833 C 61.1750 %
729 19-04-2017 00:00:00 9.13917 C 59.2667 %
730 20-04-2017 00:00:00 8.37167 C 53.2417 %
731 21-04-2017 00:00:00 9.44167 C 57.5750 %
732 22-04-2017 00:00:00 10.7925 C 61.3833 %
733 23-04-2017 00:00:00 10.56417 C 59.6333 %
734 24-04-2017 00:00:00 10.66583 C 57.9750 %
735 25-04-2017 00:00:00 11.07395 C 57.7143 %
736 26-04-2017 00:00:00 10.9975 C 52.8000 %
737 27-04-2017 00:00:00 10.80167 C 55.5250 %
738 28-04-2017 00:00:00 9.695 C 54.5000 %
739 29-04-2017 00:00:00 10.51083 C 59.0833 %
740 30-04-2017 00:00:00 11.60583 C 55.6167 %
741 01-05-2017 00:00:00 12.7 C 56.0000 %
742 02-05-2017 00:00:00 11.525 C 63.9432 %
743 03-05-2017 00:00:00 11.48417 C 65.4750 %
744 04-05-2017 00:00:00 12.02333 C 66.8667 %
745 05-05-2017 00:00:00 12.46583 C 66.8917 %
746 06-05-2017 00:00:00 12.505 C 65.2333 %
747 07-05-2017 00:00:00 13.83043 C 67.2696 %
748 08-05-2017 00:00:00 12.83417 C 66.4333 %
749 09-05-2017 00:00:00 12.20583 C 62.3250 %
750 10-05-2017 00:00:00 12.52917 C 54.6833 %
Sensor: Nr:Datum:Temp:Feuchte:
G-T/H 751 11-05-2017 00:00:00 13.12917 C 60.2667 %
752 12-05-2017 00:00:00 14.3375 C 64.2333 %
753 13-05-2017 00:00:00 14.86667 C 65.6583 %
754 14-05-2017 00:00:00 15.34083 C 65.8667 %
755 15-05-2017 00:00:00 16.35667 C 54.4250 %
756 16-05-2017 00:00:00 18.42417 C 50.3083 %
757 17-05-2017 00:00:00 19.76083 C 51.8500 %
758 18-05-2017 00:00:00 18.36833 C 59.9083 %
759 19-05-2017 00:00:00 16.6075 C 64.9333 %
760 20-05-2017 00:00:00 14.935 C 64.1833 %
761 21-05-2017 00:00:00 15.3875 C 58.0667 %
762 22-05-2017 00:00:00 16.8975 C 56.7000 %
763 23-05-2017 00:00:00 17.30167 C 60.5667 %
764 24-05-2017 00:00:00 17.77333 C 59.5750 %
765 25-05-2017 00:00:00 17.38 C 63.0583 %
766 26-05-2017 00:00:00 18.09583 C 61.1583 %
767 27-05-2017 00:00:00 17.95583 C 63.3917 %
768 28-05-2017 00:00:00 18.6625 C 65.0333 %
769 29-05-2017 00:00:00 22.53667 C 59.7333 %
770 30-05-2017 00:00:00 22.135 C 60.5250 %
771 31-05-2017 00:00:00 19.19583 C 54.8917 %
772 01-06-2017 00:00:00 19.02333 C 60.4250 %
773 02-06-2017 00:00:00 19.42667 C 64.1667 %
774 03-06-2017 00:00:00 18.96167 C 68.0500 %
775 04-06-2017 00:00:00 18.245 C 68.2333 %
Sensor: Nr:Datum:Temp:Feuchte:
G-T/H 776 05-06-2017 00:00:00 17.78167 C 63.8583 %
777 06-06-2017 00:00:00 17.53167 C 62.7417 %
778 07-06-2017 00:00:00 16.31 C 63.1083 %
779 08-06-2017 00:00:00 17.10583 C 63.0167 %
780 09-06-2017 00:00:00 17.65833 C 65.4167 %
781 10-06-2017 00:00:00 17.03667 C 64.8083 %
782 11-06-2017 00:00:00 17.98917 C 66.8667 %
783 12-06-2017 00:00:00 20.2225 C 51.9750 %
784 13-06-2017 00:00:00 19.605 C 52.3167 %
785 14-06-2017 00:00:00 20.2375 C 52.8333 %
786 15-06-2017 00:00:00 22.41083 C 52.1917 %
787 16-06-2017 00:00:00 21.05417 C 50.7750 %
788 17-06-2017 00:00:00 19.55083 C 56.9583 %
789 18-06-2017 00:00:00 19.47917 C 61.1333 %
790 19-06-2017 00:00:00 21.37083 C 53.8417 %
791 20-06-2017 00:00:00 23.81417 C 48.4333 %
792 21-06-2017 00:00:00 23.19167 C 55.3333 %
793 22-06-2017 00:00:00 24.54167 C 57.7417 %
794 23-06-2017 00:00:00 23.06 C 57.7583 %
795 24-06-2017 00:00:00 22.64 C 51.3500 %
796 25-06-2017 00:00:00 21.49083 C 54.8583 %
797 26-06-2017 00:00:00 21.5775 C 55.2833 %
798 27-06-2017 00:00:00 20.69417 C 59.6083 %
799 28-06-2017 00:00:00 19.86 C 64.0167 %
800 29-06-2017 00:00:00 19.49417 C 65.1083 %
Sensor: Nr:Datum:Temp:Feuchte:
G-T/H 801 30-06-2017 00:00:00 19.17167 C 60.7667 %
802 01-07-2017 00:00:00 18.81833 C 64.2833 %
803 02-07-2017 00:00:00 18.1925 C 66.6917 %
804 03-07-2017 00:00:00 19.315 C 56.5417 %
805 04-07-2017 00:00:00 20.50083 C 54.7667 %
806 05-07-2017 00:00:00 21.10917 C 57.5583 %
807 06-07-2017 00:00:00 21.4425 C 61.7000 %
808 07-07-2017 00:00:00 21.30333 C 64.3833 %
809 08-07-2017 00:00:00 22.9425 C 56.5250 %
810 09-07-2017 00:00:00 22.685 C 59.5417 %
811 10-07-2017 00:00:00 21.98167 C 63.7417 %
812 11-07-2017 00:00:00 21.20417 C 60.4000 %
813 12-07-2017 00:00:00 20.39167 C 63.4250 %
814 13-07-2017 00:00:00 18.97917 C 57.3833 %
815 14-07-2017 00:00:00 18.96417 C 57.4250 %
816 15-07-2017 00:00:00 18.67083 C 60.6333 %
817 16-07-2017 00:00:00 19.535 C 63.6583 %
818 17-07-2017 00:00:00 19.89917 C 65.6333 %
819 18-07-2017 00:00:00 21.48667 C 62.7583 %
820 19-07-2017 00:00:00 23.825 C 58.2333 %
821 20-07-2017 00:00:00 22.49083 C 62.1083 %
822 21-07-2017 00:00:00 21.79917 C 56.1083 %
823 22-07-2017 00:00:00 22.77167 C 60.8833 %
824 23-07-2017 00:00:00 20.45167 C 59.6000 %
825 24-07-2017 00:00:00 19.83667 C 60.9500 %
Sensor: Nr:Datum:Temp:Feuchte:
G-T/H 826 25-07-2017 00:00:00 18.2725 C 64.9333 %
827 26-07-2017 00:00:00 17.95417 C 67.3667 %
828 27-07-2017 00:00:00 18.53667 C 68.7167 %
829 28-07-2017 00:00:00 18.61833 C 68.6833 %
830 29-07-2017 00:00:00 19.14917 C 68.9333 %
831 30-07-2017 00:00:00 20.87667 C 66.4833 %
832 31-07-2017 00:00:00 21.91167 C 61.1500 %
833 01-08-2017 00:00:00 20.985 C 66.8500 %
834 02-08-2017 00:00:00 21.5925 C 67.6250 %
835 03-08-2017 00:00:00 22.08 C 67.0000 %
836 04-08-2017 00:00:00 21.2975 C 66.9500 %
837 05-08-2017 00:00:00 21.27333 C 64.2583 %
838 06-08-2017 00:00:00 20.1425 C 61.5500 %
839 07-08-2017 00:00:00 19.51083 C 54.8250 %
840 08-08-2017 00:00:00 19.4725 C 62.0000 %
841 09-08-2017 00:00:00 19.2825 C 61.9750 %
842 10-08-2017 00:00:00 18.88083 C 65.6083 %
843 11-08-2017 00:00:00 17.85167 C 68.4083 %
844 12-08-2017 00:00:00 17.38667 C 69.6917 %
845 13-08-2017 00:00:00 17.925 C 70.8917 %
846 14-08-2017 00:00:00 19.18583 C 69.3417 %
847 15-08-2017 00:00:00 19.95167 C 75.4000 %
848 16-08-2017 00:00:00 20.395 C 70.4750 %
849 17-08-2017 00:00:00 20.77833 C 67.9583 %
850 18-08-2017 00:00:00 20.07417 C 69.9500 %
Sensor: Nr:Datum:Temp:Feuchte:
G-T/H 851 19-08-2017 00:00:00 18.63167 C 65.2583 %
852 20-08-2017 00:00:00 18.18833 C 65.5833 %
853 21-08-2017 00:00:00 18.33833 C 61.8250 %
854 22-08-2017 00:00:00 18.3375 C 62.2833 %
855 23-08-2017 00:00:00 19.39 C 63.6250 %
856 24-08-2017 00:00:00 19.39667 C 66.6750 %
857 25-08-2017 00:00:00 19.01417 C 68.4583 %
858 26-08-2017 00:00:00 19.33833 C 70.7917 %
859 27-08-2017 00:00:00 19.525 C 71.7250 %
860 28-08-2017 00:00:00 20.30583 C 68.8833 %
861 29-08-2017 00:00:00 21.09333 C 67.8833 %
862 30-08-2017 00:00:00 20.41167 C 70.1917 %
863 31-08-2017 00:00:00 19.86975 C 70.1176 %
864 01-09-2017 00:00:00 18.04083 C 64.9250 %
865 02-09-2017 00:00:00 17.755 C 68.6500 %
866 03-09-2017 00:00:00 16.90667 C 68.1250 %
867 04-09-2017 00:00:00 16.00917 C 69.3750 %
868 05-09-2017 00:00:00 18.28917 C 72.6000 %
869 06-09-2017 00:00:00 18.70833 C 64.8917 %
870 07-09-2017 00:00:00 17.72833 C 62.5167 %
871 08-09-2017 00:00:00 17.6225 C 64.3417 %
872 09-09-2017 00:00:00 17.3775 C 67.9250 %
873 10-09-2017 00:00:00 16.50417 C 66.3083 %
874 11-09-2017 00:00:00 16.29333 C 68.5500 %
875 12-09-2017 00:00:00 16.13083 C 70.5250 %
Sensor: Nr:Datum:Temp:Feuchte:
G-T/H 876 13-09-2017 00:00:00 15.99917 C 71.1667 %
877 14-09-2017 00:00:00 15.7775 C 71.3250 %
878 15-09-2017 00:00:00 15.14 C 71.7083 %
879 16-09-2017 00:00:00 14.15 C 67.6833 %
880 17-09-2017 00:00:00 14.06833 C 69.8750 %
881 18-09-2017 00:00:00 13.68417 C 70.3917 %
882 19-09-2017 00:00:00 14.2875 C 73.3667 %
883 20-09-2017 00:00:00 14.18167 C 72.9250 %
884 21-09-2017 00:00:00 14.33333 C 68.9000 %
885 22-09-2017 00:00:00 14.20083 C 71.1333 %
886 23-09-2017 00:00:00 14.86583 C 71.6917 %
887 24-09-2017 00:00:00 13.5 C 74.4750 %
888 25-09-2017 00:00:00 14.49667 C 74.4000 %
889 26-09-2017 00:00:00 14.90833 C 74.1417 %
890 27-09-2017 00:00:00 15.24333 C 75.2000 %
891 28-09-2017 00:00:00 15.29833 C 75.7917 %
892 29-09-2017 00:00:00 16.4625 C 76.9750 %
893 30-09-2017 00:00:00 16.51167 C 76.8667 %
894 01-10-2017 00:00:00 15.07167 C 73.4917 %
895 02-10-2017 00:00:00 14.96167 C 75.8333 %
896 03-10-2017 00:00:00 15.05583 C 75.3167 %
897 04-10-2017 00:00:00 14.14417 C 72.4833 %
898 05-10-2017 00:00:00 14.39917 C 74.4417 %
899 06-10-2017 00:00:00 13.515 C 72.0000 %
900 07-10-2017 00:00:00 13.36583 C 74.1000 %
Sensor: Nr:Datum:Temp:Feuchte:
G-T/H 901 08-10-2017 00:00:00 13.59833 C 76.1167 %
902 09-10-2017 00:00:00 13.71417 C 76.4750 %
903 10-10-2017 00:00:00 14.10667 C 77.2250 %
904 11-10-2017 00:00:00 14.48833 C 77.7500 %
905 12-10-2017 00:00:00 14.45833 C 77.2083 %
906 13-10-2017 00:00:00 14.39417 C 77.1167 %
907 14-10-2017 00:00:00 14.55667 C 77.2000 %
908 15-10-2017 00:00:00 14.22167 C 77.1917 %
909 16-10-2017 00:00:00 14.72417 C 80.6250 %
910 17-10-2017 00:00:00 14.50583 C 80.0333 %
911 18-10-2017 00:00:00 14.23 C 79.1833 %
912 19-10-2017 00:00:00 13.8025 C 76.9750 %
913 20-10-2017 00:00:00 14.11261 C 77.8235 %
914 21-10-2017 00:00:00 13.58417 C 75.6250 %
915 22-10-2017 00:00:00 13.64333 C 74.5083 %
916 23-10-2017 00:00:00 13.15167 C 73.8667 %
917 24-10-2017 00:00:00 13.7125 C 77.3167 %
918 25-10-2017 00:00:00 14.60167 C 78.0000 %
919 26-10-2017 00:00:00 14.7325 C 78.0000 %
920 27-10-2017 00:00:00 14.395 C 76.2583 %
921 28-10-2017 00:00:00 13.38917 C 71.6000 %
922 29-10-2017 00:00:00 13.2736 C 70.4000 %
923 30-10-2017 00:00:00 11.94167 C 67.1167 %
924 31-10-2017 00:00:00 11.315 C 67.7083 %
925 01-11-2017 00:00:00 11.75833 C 71.3750 %
Sensor: Nr:Datum:Temp:Feuchte:
G-T/H 926 02-11-2017 00:00:00 11.43667 C 71.0500 %
927 03-11-2017 00:00:00 11.36333 C 71.6167 %
928 04-11-2017 00:00:00 11.05083 C 71.6417 %
929 05-11-2017 00:00:00 11.7925 C 73.8417 %
930 06-11-2017 00:00:00 10.80417 C 68.9083 %
931 07-11-2017 00:00:00 10.16167 C 68.1500 %
932 08-11-2017 00:00:00 10.51583 C 72.8417 %
933 09-11-2017 00:00:00 10.89833 C 74.4833 %
934 10-11-2017 00:00:00 10.70833 C 72.4333 %
935 11-11-2017 00:00:00 10.25917 C 71.3500 %
936 12-11-2017 00:00:00 9.99417 C 71.9333 %
937 13-11-2017 00:00:00 9.82667 C 72.4833 %
938 14-11-2017 00:00:00 9.44833 C 71.5833 %
939 15-11-2017 00:00:00 9.78417 C 73.4833 %
940 16-11-2017 00:00:00 9.8675 C 71.0000 %
941 17-11-2017 00:00:00 10.21917 C 72.6917 %
942 18-11-2017 00:00:00 8.93333 C 68.2833 %
943 19-11-2017 00:00:00 9.44917 C 70.7667 %
944 20-11-2017 00:00:00 9.4175 C 70.1500 %
945 21-11-2017 00:00:00 10.07833 C 73.5833 %
946 22-11-2017 00:00:00 10.72 C 73.9917 %
947 23-11-2017 00:00:00 10.0175 C 71.3000 %
948 24-11-2017 00:00:00 11.32583 C 75.4750 %
949 25-11-2017 00:00:00 10.815 C 70.9083 %
950 26-11-2017 00:00:00 9.25 C 65.7167 %
Sensor: Nr:Datum:Temp:Feuchte:
G-T/H 951 27-11-2017 00:00:00 9.09917 C 68.4083 %
952 28-11-2017 00:00:00 9.38167 C 70.0917 %
953 29-11-2017 00:00:00 8.70583 C 68.4167 %
954 30-11-2017 00:00:00 8.38083 C 67.8167 %
955 01-12-2017 00:00:00 7.8275 C 66.9750 %
956 02-12-2017 00:00:00 6.8025 C 64.3667 %
957 03-12-2017 00:00:00 7.2 C 63.1583 %
958 04-12-2017 00:00:00 7.5275 C 69.7417 %
959 05-12-2017 00:00:00 8.31833 C 73.2750 %
960 06-12-2017 00:00:00 8.98333 C 73.6833 %
961 07-12-2017 00:00:00 8.76667 C 67.2083 %
962 08-12-2017 00:00:00 8.66917 C 66.2417 %
963 09-12-2017 00:00:00 7.4925 C 59.9167 %
964 10-12-2017 00:00:00 7.18333 C 64.1750 %
965 11-12-2017 00:00:00 7.94417 C 72.5667 %
966 12-12-2017 00:00:00 8.19083 C 68.4083 %
967 13-12-2017 00:00:00 7.93917 C 67.1333 %
968 14-12-2017 00:00:00 7.92667 C 69.1000 %
969 15-12-2017 00:00:00 7.94167 C 70.5000 %
970 16-12-2017 00:00:00 7.925 C 71.0833 %
971 17-12-2017 00:00:00 7.8375 C 69.7667 %
972 18-12-2017 00:00:00 7.10333 C 67.6500 %
973 19-12-2017 00:00:00 7.60417 C 70.4667 %
974 20-12-2017 00:00:00 8.29083 C 73.0000 %
975 21-12-2017 00:00:00 9.43333 C 74.8833 %
Sensor: Nr:Datum:Temp:Feuchte:
G-T/H 976 22-12-2017 00:00:00 10.32333 C 75.8833 %
977 23-12-2017 00:00:00 10.45667 C 76.0750 %
978 24-12-2017 00:00:00 10.61417 C 75.9000 %
979 25-12-2017 00:00:00 10.30833 C 71.7667 %
980 26-12-2017 00:00:00 9.0975 C 68.1083 %
981 27-12-2017 00:00:00 8.905 C 71.4083 %
982 28-12-2017 00:00:00 8.96167 C 70.6417 %
983 29-12-2017 00:00:00 14.36852 C 70.8611 %
984 30-12-2017 00:00:00 8.1925 C 73.4750 %
985 31-12-2017 00:00:00 10.73 C 74.9167 %
986 01-01-2018 00:00:00 10.91333 C 70.9167 %
987 02-01-2018 00:00:00 9.93833 C 71.7000 %
988 03-01-2018 00:00:00 9.98417 C 71.9333 %
989 04-01-2018 00:00:00 9.81167 C 73.7667 %
990 05-01-2018 00:00:00 10.06833 C 72.5333 %
991 06-01-2018 00:00:00 9.95417 C 74.1667 %
992 07-01-2018 00:00:00 9.5275 C 72.0083 %
993 08-01-2018 00:00:00 8.9575 C 69.3000 %
994 09-01-2018 00:00:00 8.81583 C 71.4583 %
995 10-01-2018 00:00:00 9.03917 C 73.1917 %
996 11-01-2018 00:00:00 9.4725 C 74.4333 %
997 12-01-2018 00:00:00 9.7375 C 75.0000 %
998 13-01-2018 00:00:00 9.48 C 71.6333 %
999 14-01-2018 00:00:00 8.7325 C 64.1833 %
1000 15-01-2018 00:00:00 8.00083 C 65.2500 %
Sensor: Nr:Datum:Temp:Feuchte:
G-T/H 1001 16-01-2018 00:00:00 8.6025 C 70.4000 %
1002 17-01-2018 00:00:00 8.19 C 66.7833 %
1003 18-01-2018 00:00:00 8.2875 C 68.1000 %
1004 19-01-2018 00:00:00 8.47333 C 67.2417 %
1005 20-01-2018 00:00:00 7.515 C 67.7833 %
1006 21-01-2018 00:00:00 7.5275 C 70.9250 %
1007 22-01-2018 00:00:00 7.75 C 71.9417 %
1008 23-01-2018 00:00:00 8.69492 C 73.4661 %
1009 24-01-2018 00:00:00 9.75556 C 74.8120 %
1010 25-01-2018 00:00:00 10.6075 C 75.1917 %
1011 26-01-2018 00:00:00 10.3125 C 74.1917 %
1012 27-01-2018 00:00:00 9.54 C 72.2583 %
1013 28-01-2018 00:00:00 9.4625 C 73.1917 %
1014 29-01-2018 00:00:00 10.13833 C 74.2667 %
1015 30-01-2018 00:00:00 9.76167 C 71.3917 %
1016 31-01-2018 00:00:00 9.43 C 72.7083 %
1017 01-02-2018 00:00:00 8.55 C 67.8083 %
1018 02-02-2018 00:00:00 7.83917 C 68.3833 %
1019 03-02-2018 00:00:00 7.98992 C 68.2521 %
1020 04-02-2018 00:00:00 7.4 C 63.4333 %
1021 05-02-2018 00:00:00 6.47 C 60.2917 %
1022 06-02-2018 00:00:00 6.30833 C 61.8333 %
1023 07-02-2018 00:00:00 6.2075 C 63.0250 %
1024 08-02-2018 00:00:00 5.975 C 61.9833 %
1025 09-02-2018 00:00:00 5.43333 C 63.6917 %
Sensor: Nr:Datum:Temp:Feuchte:
G-T/H 1026 10-02-2018 00:00:00 6.105 C 66.3083 %
1027 11-02-2018 00:00:00 6.99167 C 66.3833 %
1028 12-02-2018 00:00:00 7.07833 C 64.5250 %
1029 13-02-2018 00:00:00 6.335 C 60.4167 %
1030 14-02-2018 00:00:00 5.87917 C 61.6500 %
1031 15-02-2018 00:00:00 5.88583 C 66.8833 %
1032 16-02-2018 00:00:00 6.29667 C 70.6750 %
1033 17-02-2018 00:00:00 6.07083 C 67.1000 %
1034 18-02-2018 00:00:00 5.89667 C 66.5500 %
1035 19-02-2018 00:00:00 5.89083 C 68.3167 %
1036 20-02-2018 00:00:00 6.01 C 66.1333 %
1037 21-02-2018 00:00:00 5.89083 C 63.8500 %
1038 22-02-2018 00:00:00 5.73333 C 61.2667 %
1039 23-02-2018 00:00:00 5.48583 C 60.5583 %
1040 24-02-2018 00:00:00 5.12583 C 59.3667 %
1041 25-02-2018 00:00:00 4.93667 C 56.8667 %
1042 26-02-2018 00:00:00 4.61167 C 55.2417 %
1043 27-02-2018 00:00:00 4.5275 C 52.9667 %
1044 28-02-2018 00:00:00 4.28667 C 51.9750 %
1045 01-03-2018 00:00:00 4.305 C 53.0333 %
1046 02-03-2018 00:00:00 4.77417 C 54.7917 %
1047 03-03-2018 00:00:00 5.21917 C 60.2833 %
1048 04-03-2018 00:00:00 6.01083 C 65.3000 %
1049 05-03-2018 00:00:00 7.26 C 67.7083 %
1050 06-03-2018 00:00:00 7.275 C 64.2583 %
Sensor: Nr:Datum:Temp:Feuchte:
G-T/H 1051 07-03-2018 00:00:00 8.05833 C 67.2083 %
1052 08-03-2018 00:00:00 8.30667 C 69.2500 %
1053 09-03-2018 00:00:00 8.13 C 70.0750 %
1054 10-03-2018 00:00:00 8.92167 C 72.5500 %
1055 11-03-2018 00:00:00 10.33 C 74.6417 %
1056 12-03-2018 00:00:00 10.33667 C 74.2417 %
1057 13-03-2018 00:00:00 10.06083 C 73.3417 %
1058 14-03-2018 00:00:00 9.31667 C 70.8667 %
1059 15-03-2018 00:00:00 8.67083 C 68.2833 %
1060 16-03-2018 00:00:00 9.4175 C 72.0250 %
1061 17-03-2018 00:00:00 8.13333 C 61.2417 %
1062 18-03-2018 00:00:00 6.64 C 57.5417 %
1063 19-03-2018 00:00:00 6.395 C 58.4417 %
1064 20-03-2018 00:00:00 6.19167 C 59.8333 %
1065 21-03-2018 00:00:00 6.24 C 61.0167 %
1066 22-03-2018 00:00:00 6.45333 C 62.8500 %
1067 23-03-2018 00:00:00 7.555 C 68.1250 %
1068 24-03-2018 00:00:00 7.95833 C 66.2333 %
1069 25-03-2018 00:00:00 7.42522 C 63.5130 %
1070 26-03-2018 00:00:00 8.47583 C 65.8417 %
1071 27-03-2018 00:00:00 8.32583 C 65.0083 %
1072 28-03-2018 00:00:00 9.05 C 70.1833 %
1073 29-03-2018 00:00:00 9.1875 C 67.9333 %
1074 30-03-2018 00:00:00 8.73083 C 65.5333 %
1075 31-03-2018 00:00:00 9.3075 C 68.4417 %
Sensor: Nr:Datum:Temp:Feuchte:
G-T/H 1076 01-04-2018 00:00:00 9.65917 C 69.4500 %
1077 02-04-2018 00:00:00 9.52333 C 68.1000 %
1078 03-04-2018 00:00:00 10.725 C 69.7000 %
1079 04-04-2018 00:00:00 11.48583 C 70.6333 %
1080 05-04-2018 00:00:00 10.94833 C 68.8000 %
1081 06-04-2018 00:00:00 9.26167 C 62.4833 %
1082 07-04-2018 00:00:00 10.58667 C 62.3917 %
1083 08-04-2018 00:00:00 13.47 C 59.0417 %
1084 09-04-2018 00:00:00 14.53917 C 57.1667 %
1085 10-04-2018 00:00:00 13.77667 C 63.5000 %
1086 11-04-2018 00:00:00 13.00917 C 66.6083 %
1087 12-04-2018 00:00:00 12.9425 C 66.9917 %
1088 13-04-2018 00:00:00 12.73333 C 67.2917 %
1089 14-04-2018 00:00:00 13.63417 C 61.7667 %
1090 15-04-2018 00:00:00 13.92167 C 65.0333 %
1091 16-04-2018 00:00:00 14.52167 C 62.0000 %
1092 17-04-2018 00:00:00 14.20333 C 61.1500 %
1093 18-04-2018 00:00:00 14.54417 C 62.2333 %
1094 19-04-2018 00:00:00 14.79583 C 62.5583 %
1095 20-04-2018 00:00:00 15.73333 C 61.3833 %
1096 21-04-2018 00:00:00 15.80333 C 63.5083 %
1097 22-04-2018 00:00:00 15.78333 C 66.2917 %
1098 23-04-2018 00:00:00 17.01667 C 62.7833 %
1099 24-04-2018 00:00:00 16.23833 C 56.5917 %
1100 25-04-2018 00:00:00 15.21833 C 62.0333 %
Sensor: Nr:Datum:Temp:Feuchte:
G-T/H 1101 26-04-2018 00:00:00 13.76 C 51.5583 %
1102 27-04-2018 00:00:00 13.61917 C 56.6250 %
1103 28-04-2018 00:00:00 13.9325 C 61.2917 %
1104 29-04-2018 00:00:00 14.02083 C 64.6000 %
1105 30-04-2018 00:00:00 14.6725 C 64.2917 %
1106 01-05-2018 00:00:00 13.36417 C 58.0083 %
1107 02-05-2018 00:00:00 13.24833 C 56.1500 %
1108 03-05-2018 00:00:00 13.77 C 57.8750 %
1109 04-05-2018 00:00:00 13.83917 C 58.3750 %
1110 05-05-2018 00:00:00 15.43167 C 55.9333 %
1111 06-05-2018 00:00:00 15.6825 C 57.6750 %
1112 07-05-2018 00:00:00 17.61 C 52.7917 %
1113 08-05-2018 00:00:00 18.74917 C 49.1583 %
1114 09-05-2018 00:00:00 17.61417 C 55.5167 %
1115 10-05-2018 00:00:00 16.74583 C 61.1667 %
1116 11-05-2018 00:00:00 15.555 C 63.3500 %
1117 12-05-2018 00:00:00 15.79083 C 63.9333 %
1118 13-05-2018 00:00:00 16.08833 C 66.4583 %
1119 14-05-2018 00:00:00 15.57667 C 68.2083 %
1120 15-05-2018 00:00:00 16.8825 C 59.6083 %
1121 16-05-2018 00:00:00 16.71333 C 63.0083 %
1122 17-05-2018 00:00:00 15.91 C 63.1083 %
1123 18-05-2018 00:00:00 15.1975 C 60.7083 %
1124 19-05-2018 00:00:00 15.0375 C 63.1750 %
1125 20-05-2018 00:00:00 15.13333 C 64.4667 %
Sensor: Nr:Datum:Temp:Feuchte:
G-T/H 1126 21-05-2018 00:00:00 16.85667 C 64.3167 %
1127 22-05-2018 00:00:00 17.2475 C 65.6333 %
1128 23-05-2018 00:00:00 16.85417 C 68.0583 %
1129 24-05-2018 00:00:00 16.56417 C 69.4500 %
1130 25-05-2018 00:00:00 17.3275 C 69.1583 %
1131 26-05-2018 00:00:00 18.92583 C 67.1167 %
1132 27-05-2018 00:00:00 18.99167 C 68.2750 %
1133 28-05-2018 00:00:00 18.94167 C 69.8667 %
1134 29-05-2018 00:00:00 19.4375 C 69.9667 %
1135 30-05-2018 00:00:00 19.22417 C 70.2750 %
1136 31-05-2018 00:00:00 19.74667 C 69.8500 %
1137 01-06-2018 00:00:00 19.70417 C 70.5583 %
1138 02-06-2018 00:00:00 19.1175 C 70.5000 %
1139 03-06-2018 00:00:00 19.86917 C 66.6000 %
1140 04-06-2018 00:00:00 21.16 C 62.4500 %
1141 05-06-2018 00:00:00 21.1225 C 62.2500 %
1142 06-06-2018 00:00:00 20.28167 C 64.7000 %
1143 07-06-2018 00:00:00 20.33167 C 66.7250 %
1144 08-06-2018 00:00:00 20.14167 C 68.3250 %
1145 09-06-2018 00:00:00 21.14508 C 68.4918 %
1146 10-06-2018 00:00:00 20.73583 C 69.4833 %
1147 11-06-2018 00:00:00 20.2075 C 70.2833 %
1148 12-06-2018 00:00:00 18.93333 C 70.9417 %
1149 13-06-2018 00:00:00 17.78333 C 67.8500 %
1150 14-06-2018 00:00:00 17.08167 C 65.6167 %
Sensor: Nr:Datum:Temp:Feuchte:
G-T/H 1151 15-06-2018 00:00:00 17.87667 C 69.7333 %
1152 16-06-2018 00:00:00 19.23167 C 66.0250 %
1153 17-06-2018 00:00:00 19.20917 C 66.1250 %
1154 18-06-2018 00:00:00 18.5725 C 66.5167 %
1155 19-06-2018 00:00:00 19.3025 C 68.1667 %
1156 20-06-2018 00:00:00 21.34417 C 62.6417 %
1157 21-06-2018 00:00:00 20.40083 C 61.7667 %
1158 22-06-2018 00:00:00 18.12583 C 59.1417 %
1159 23-06-2018 00:00:00 16.91917 C 60.9000 %
1160 24-06-2018 00:00:00 17.08583 C 64.6833 %
1161 25-06-2018 00:00:00 17.72833 C 66.0250 %
1162 26-06-2018 00:00:00 18.48917 C 62.1583 %
1163 27-06-2018 00:00:00 19.815 C 57.9000 %
1164 28-06-2018 00:00:00 20.73667 C 53.0667 %
1165 29-06-2018 00:00:00 22.01 C 53.8250 %
1166 30-06-2018 00:00:00 22.90917 C 48.2667 %
1167 01-07-2018 00:00:00 21.50833 C 49.2500 %
1168 02-07-2018 00:00:00 21.34083 C 43.1083 %
1169 03-07-2018 00:00:00 20.70167 C 49.9250 %
1170 04-07-2018 00:00:00 21.1075 C 60.3667 %
1171 05-07-2018 00:00:00 21.2225 C 66.7750 %
1172 06-07-2018 00:00:00 20.8225 C 63.6917 %
1173 07-07-2018 00:00:00 20.45126 C 62.5294 %
1174 08-07-2018 00:00:00 20.11833 C 59.9000 %
1175 09-07-2018 00:00:00 20.74917 C 55.1417 %
Sensor: Nr:Datum:Temp:Feuchte:
G-T/H 1176 10-07-2018 00:00:00 20.3825 C 58.3167 %
1177 11-07-2018 00:00:00 18.89583 C 62.6083 %
1178 12-07-2018 00:00:00 18.92167 C 65.2500 %
1179 13-07-2018 00:00:00 20.39417 C 62.1167 %
1180 14-07-2018 00:00:00 20.52583 C 63.2833 %
1181 15-07-2018 00:00:00 20.67417 C 63.4333 %
1182 16-07-2018 00:00:00 20.8475 C 63.2583 %
1183 17-07-2018 00:00:00 20.97167 C 63.0667 %
1184 18-07-2018 00:00:00 20.9325 C 59.6167 %
1185 19-07-2018 00:00:00 21.11667 C 54.9500 %
1186 20-07-2018 00:00:00 21.86917 C 52.9083 %
1187 21-07-2018 00:00:00 21.57333 C 58.8500 %
1188 22-07-2018 00:00:00 20.75417 C 62.4750 %
1189 23-07-2018 00:00:00 22.1575 C 57.9833 %
1190 24-07-2018 00:00:00 23.88 C 52.9250 %
1191 25-07-2018 00:00:00 24.83333 C 49.4917 %
1192 26-07-2018 00:00:00 25.99417 C 48.0750 %
1193 27-07-2018 00:00:00 25.445 C 46.9000 %
1194 28-07-2018 00:00:00 24.04917 C 55.1667 %
1195 29-07-2018 00:00:00 22.61667 C 58.5167 %
1196 30-07-2018 00:00:00 24.22583 C 54.8000 %
1197 31-07-2018 00:00:00 25.41833 C 51.8250 %
1198 01-08-2018 00:00:00 23.80667 C 61.0833 %
1199 02-08-2018 00:00:00 23.36417 C 62.3583 %
1200 03-08-2018 00:00:00 24.53167 C 58.5333 %
Sensor: Nr:Datum:Temp:Feuchte:
G-T/H 1201 04-08-2018 00:00:00 25.9125 C 50.5583 %
1202 05-08-2018 00:00:00 24.74417 C 53.5917 %
1203 06-08-2018 00:00:00 24.53333 C 49.9583 %
1204 07-08-2018 00:00:00 24.12667 C 54.2583 %
1205 08-08-2018 00:00:00 24.27667 C 57.4917 %
1206 09-08-2018 00:00:00 23.23333 C 60.5250 %
1207 10-08-2018 00:00:00 21.49417 C 54.0000 %
1208 11-08-2018 00:00:00 20.81667 C 56.0583 %
1209 12-08-2018 00:00:00 20.13 C 56.1333 %
1210 13-08-2018 00:00:00 20.07083 C 60.5667 %
1211 14-08-2018 00:00:00 19.80333 C 63.5000 %
1212 15-08-2018 00:00:00 19.82917 C 65.0667 %
1213 16-08-2018 00:00:00 19.9875 C 64.3500 %
1214 17-08-2018 00:00:00 20.46083 C 64.9583 %
1215 18-08-2018 00:00:00 19.96167 C 62.2667 %
1216 19-08-2018 00:00:00 19.83667 C 62.1667 %
1217 20-08-2018 00:00:00 21.2525 C 62.2667 %
1218 21-08-2018 00:00:00 21.17667 C 63.9333 %
1219 22-08-2018 00:00:00 21.1725 C 64.1750 %
1220 23-08-2018 00:00:00 21.47667 C 64.7000 %
1221 24-08-2018 00:00:00 21.1275 C 62.0417 %
1222 25-08-2018 00:00:00 19.5075 C 59.1667 %
1223 26-08-2018 00:00:00 18.22417 C 55.7083 %
1224 27-08-2018 00:00:00 18.48167 C 60.4500 %
1225 28-08-2018 00:00:00 18.53833 C 61.2250 %
Sensor: Nr:Datum:Temp:Feuchte:
G-T/H 1226 29-08-2018 00:00:00 18.56917 C 62.2417 %
1227 30-08-2018 00:00:00 18.82333 C 63.4833 %
1228 31-08-2018 00:00:00 18.3025 C 59.8750 %
1229 01-09-2018 00:00:00 17.4825 C 59.8917 %
1230 02-09-2018 00:00:00 16.9325 C 62.1583 %
1231 03-09-2018 00:00:00 18.13333 C 66.0000 %
1232 04-09-2018 00:00:00 19.61083 C 66.7083 %
1233 05-09-2018 00:00:00 19.59583 C 67.1750 %
1234 06-09-2018 00:00:00 19.38917 C 68.3667 %
1235 07-09-2018 00:00:00 18.6775 C 67.7917 %
1236 08-09-2018 00:00:00 17.10833 C 59.8333 %
1237 09-09-2018 00:00:00 17.1975 C 64.7667 %
1238 10-09-2018 00:00:00 18.47583 C 60.5250 %
1239 11-09-2018 00:00:00 19.45417 C 58.4917 %
1240 12-09-2018 00:00:00 18.84083 C 60.8833 %
1241 13-09-2018 00:00:00 18.58083 C 66.2167 %
1242 14-09-2018 00:00:00 18.04833 C 65.0000 %
1243 15-09-2018 00:00:00 17.66667 C 59.8833 %
1244 16-09-2018 00:00:00 16.83 C 61.8000 %
1245 17-09-2018 00:00:00 17.8475 C 57.0583 %
1246 18-09-2018 00:00:00 19.79417 C 56.2333 %
1247 19-09-2018 00:00:00 21.03083 C 58.0583 %
1248 20-09-2018 00:00:00 20.82 C 55.5500 %
1249 21-09-2018 00:00:00 19.29417 C 59.4833 %
1250 22-09-2018 00:00:00 17.24917 C 60.5250 %
Sensor: Nr:Datum:Temp:Feuchte:
G-T/H 1251 23-09-2018 00:00:00 16.50167 C 65.7500 %
1252 24-09-2018 00:00:00 15.14583 C 63.3167 %
1253 25-09-2018 00:00:00 13.7275 C 62.7333 %
1254 26-09-2018 00:00:00 13.02583 C 63.2917 %
1255 27-09-2018 00:00:00 13.0625 C 65.7333 %
1256 28-09-2018 00:00:00 13.53583 C 69.5083 %
1257 29-09-2018 00:00:00 12.62 C 64.5750 %
1258 30-09-2018 00:00:00 11.83417 C 63.4000 %
1259 01-10-2018 00:00:00 12.43167 C 68.0167 %
1260 02-10-2018 00:00:00 12.47917 C 67.0333 %
1261 03-10-2018 00:00:00 13.125 C 70.8750 %
1262 04-10-2018 00:00:00 12.85083 C 66.8417 %
1263 05-10-2018 00:00:00 13.175 C 68.1250 %
1264 06-10-2018 00:00:00 12.79833 C 73.9167 %
1265 07-10-2018 00:00:00 14.22167 C 74.0833 %
1266 08-10-2018 00:00:00 13.52083 C 69.3917 %
1267 09-10-2018 00:00:00 13.39083 C 72.8583 %
1268 10-10-2018 00:00:00 13.75333 C 75.3000 %
1269 11-10-2018 00:00:00 13.985 C 75.0167 %
1270 12-10-2018 00:00:00 14.54333 C 75.8417 %
1271 13-10-2018 00:00:00 15.69 C 72.6083 %
1272 14-10-2018 00:00:00 15.11667 C 72.1917 %
1273 15-10-2018 00:00:00 14.6725 C 73.1583 %
1274 16-10-2018 00:00:00 14.08333 C 72.8917 %
1275 17-10-2018 00:00:00 13.86667 C 73.4083 %
Sensor: Nr:Datum:Temp:Feuchte:
G-T/H 1276 18-10-2018 00:00:00 14.26083 C 74.7500 %
1277 19-10-2018 00:00:00 14.28333 C 73.2417 %
1278 20-10-2018 00:00:00 14.01833 C 72.8250 %
1279 21-10-2018 00:00:00 12.52583 C 67.5917 %
1280 22-10-2018 00:00:00 11.7575 C 67.8750 %
1281 23-10-2018 00:00:00 11.71417 C 69.2333 %
1282 24-10-2018 00:00:00 13.1175 C 73.3417 %
1283 25-10-2018 00:00:00 13.88083 C 73.4083 %
1284 26-10-2018 00:00:00 13.5375 C 68.0250 %
1285 27-10-2018 00:00:00 12.19667 C 65.8417 %
1286 28-10-2018 00:00:00 10.9176 C 62.4880 %
1287 29-10-2018 00:00:00 10.95583 C 65.6250 %
1288 30-10-2018 00:00:00 10.86333 C 67.5167 %
1289 31-10-2018 00:00:00 10.8775 C 68.4750 %
1290 01-11-2018 00:00:00 10.72083 C 69.2750 %
1291 02-11-2018 00:00:00 11.285 C 72.4667 %
1292 03-11-2018 00:00:00 10.44 C 67.0750 %
1293 04-11-2018 00:00:00 10.265 C 68.6167 %
1294 05-11-2018 00:00:00 11.60167 C 72.5750 %
1295 06-11-2018 00:00:00 11.5475 C 72.0167 %
1296 07-11-2018 00:00:00 11.24083 C 72.4083 %
1297 08-11-2018 00:00:00 11.87833 C 74.0333 %
1298 09-11-2018 00:00:00 11.62333 C 73.2750 %
1299 10-11-2018 00:00:00 12.22833 C 74.7000 %
1300 11-11-2018 00:00:00 12.73917 C 75.7833 %
Sensor: Nr:Datum:Temp:Feuchte:
G-T/H 1301 12-11-2018 00:00:00 13.255 C 75.6083 %
1302 13-11-2018 00:00:00 13.2975 C 75.3417 %
1303 14-11-2018 00:00:00 11.54667 C 70.8583 %
1304 15-11-2018 00:00:00 11.19417 C 71.8333 %
1305 16-11-2018 00:00:00 10.76833 C 68.8833 %
1306 17-11-2018 00:00:00 9.25167 C 68.0000 %
1307 18-11-2018 00:00:00 8.3775 C 68.4167 %
1308 19-11-2018 00:00:00 8.15 C 69.1333 %
1309 20-11-2018 00:00:00 8.56667 C 68.8833 %
1310 21-11-2018 00:00:00 8.45333 C 69.6833 %
1311 22-11-2018 00:00:00 8.65333 C 70.9083 %
1312 23-11-2018 00:00:00 7.69667 C 69.4917 %
1313 24-11-2018 00:00:00 8.0325 C 72.4750 %
1314 25-11-2018 00:00:00 9.05667 C 73.9333 %
1315 26-11-2018 00:00:00 9.6625 C 74.3250 %
1316 27-11-2018 00:00:00 9.61333 C 72.8000 %
1317 28-11-2018 00:00:00 8.91917 C 71.9583 %
1318 29-11-2018 00:00:00 9.26083 C 73.8000 %
1319 30-11-2018 00:00:00 9.63 C 74.7833 %
1320 01-12-2018 00:00:00 9.92417 C 74.6250 %
1321 02-12-2018 00:00:00 10.7275 C 75.6167 %
1322 03-12-2018 00:00:00 11.87333 C 76.5417 %
1323 04-12-2018 00:00:00 11.3275 C 72.0250 %
1324 05-12-2018 00:00:00 9.61933 C 69.0504 %
1325 06-12-2018 00:00:00 10.40583 C 72.9583 %
Sensor: Nr:Datum:Temp:Feuchte:
G-T/H 1326 07-12-2018 00:00:00 11.82917 C 74.0583 %
1327 08-12-2018 00:00:00 11.04667 C 70.6667 %
1328 09-12-2018 00:00:00 10.81167 C 72.8000 %
1329 10-12-2018 00:00:00 10.01083 C 71.3083 %
1330 11-12-2018 00:00:00 9.19083 C 71.8583 %
1331 12-12-2018 00:00:00 8.70667 C 72.1583 %
1332 13-12-2018 00:00:00 8.07083 C 70.1167 %
1333 14-12-2018 00:00:00 7.78 C 68.6583 %
1334 15-12-2018 00:00:00 7.575 C 68.1083 %
1335 16-12-2018 00:00:00 7.33667 C 67.4333 %
1336 17-12-2018 00:00:00 7.74583 C 71.2333 %
1337 18-12-2018 00:00:00 8.3475 C 72.4667 %
1338 19-12-2018 00:00:00 8.60083 C 72.9417 %
1339 20-12-2018 00:00:00 9.3175 C 74.0000 %
1340 21-12-2018 00:00:00 10.0375 C 74.8333 %
1341 22-12-2018 00:00:00 10.99417 C 74.3000 %
1342 23-12-2018 00:00:00 10.525 C 74.6917 %
1343 24-12-2018 00:00:00 10.26583 C 72.2917 %
1344 25-12-2018 00:00:00 8.6825 C 71.1167 %
1345 26-12-2018 00:00:00 7.58083 C 70.1333 %
1346 27-12-2018 00:00:00 6.98167 C 70.2333 %
1347 28-12-2018 00:00:00 6.8575 C 71.5833 %
1348 29-12-2018 00:00:00 7.085 C 72.4583 %
1349 30-12-2018 00:00:00 8.24 C 74.4417 %
1350 31-12-2018 00:00:00 9.18833 C 75.6083 %
Sensor: Nr:Datum:Temp:Feuchte:
G-T/H 1351 01-01-2019 00:00:00 9.65583 C 75.8167 %
1352 02-01-2019 00:00:00 8.91333 C 73.4000 %
1353 03-01-2019 00:00:00 7.65417 C 72.7000 %
1354 04-01-2019 00:00:00 7.72667 C 73.7750 %
1355 05-01-2019 00:00:00 8.26833 C 74.6083 %
1356 06-01-2019 00:00:00 8.8 C 75.9250 %
1357 07-01-2019 00:00:00 8.94 C 75.0167 %
1358 08-01-2019 00:00:00 9.01833 C 74.5417 %
1359 09-01-2019 00:00:00 8.46417 C 73.0417 %
1360 10-01-2019 00:00:00 7.90083 C 71.3750 %
1361 11-01-2019 00:00:00 7.57167 C 72.1167 %
1362 12-01-2019 00:00:00 8.24417 C 74.2500 %
1363 13-01-2019 00:00:00 8.91667 C 75.6333 %
1364 14-01-2019 00:00:00 9.11083 C 74.7417 %
1365 15-01-2019 00:00:00 8.33333 C 74.3833 %
1366 16-01-2019 00:00:00 8.5125 C 74.7083 %
1367 17-01-2019 00:00:00 8.4975 C 74.5500 %
1368 18-01-2019 00:00:00 7.79333 C 72.6583 %
1369 19-01-2019 00:00:00 6.99833 C 69.2000 %
1370 20-01-2019 00:00:00 6.61083 C 64.8583 %
1371 21-01-2019 00:00:00 6.18667 C 61.1750 %
1372 22-01-2019 00:00:00 6.04833 C 60.2083 %
1373 23-01-2019 00:00:00 6.2575 C 63.4917 %
1374 24-01-2019 00:00:00 6.30833 C 65.6583 %
1375 25-01-2019 00:00:00 6.2425 C 67.2833 %
Sensor: Nr:Datum:Temp:Feuchte:
G-T/H 1376 26-01-2019 00:00:00 6.51833 C 71.7083 %
1377 27-01-2019 00:00:00 7.75333 C 73.9667 %
1378 28-01-2019 00:00:00 7.77417 C 74.2417 %
1379 29-01-2019 00:00:00 7.46167 C 73.9917 %
1380 30-01-2019 00:00:00 6.65667 C 69.5667 %
1381 31-01-2019 00:00:00 6.54333 C 72.1667 %
1382 01-02-2019 00:00:00 6.475 C 73.4167 %
1383 02-02-2019 00:00:00 6.70083 C 74.6612 %
1384 03-02-2019 00:00:00 6.98667 C 74.3417 %
1385 04-02-2019 00:00:00 6.68333 C 73.8083 %
1386 05-02-2019 00:00:00 7.12 C 74.5083 %
1387 06-02-2019 00:00:00 6.9875 C 73.4333 %
1388 07-02-2019 00:00:00 7.0025 C 74.8750 %
1389 08-02-2019 00:00:00 7.93833 C 76.1083 %
1390 09-02-2019 00:00:00 8.85917 C 76.1583 %
1391 10-02-2019 00:00:00 9.2225 C 75.9667 %
1392 11-02-2019 00:00:00 8.8125 C 75.1083 %
1393 12-02-2019 00:00:00 8.09167 C 74.2167 %
1394 13-02-2019 00:00:00 7.47583 C 73.5000 %
1395 14-02-2019 00:00:00 6.95583 C 72.5083 %
1396 15-02-2019 00:00:00 6.6825 C 71.6250 %
1397 16-02-2019 00:00:00 6.53917 C 73.3083 %
1398 17-02-2019 00:00:00 6.63667 C 74.1417 %
1399 18-02-2019 00:00:00 6.65583 C 74.3000 %
1400 19-02-2019 00:00:00 7.19417 C 75.8083 %
Sensor: Nr:Datum:Temp:Feuchte:
G-T/H 1401 20-02-2019 00:00:00 7.495 C 75.5500 %
1402 21-02-2019 00:00:00 7.76167 C 75.7333 %
1403 22-02-2019 00:00:00 9.21417 C 77.2250 %
1404 23-02-2019 00:00:00 9.20583 C 74.8917 %
1405 24-02-2019 00:00:00 8.01917 C 72.1333 %
1406 25-02-2019 00:00:00 7.5975 C 71.6250 %
1407 26-02-2019 00:00:00 7.74083 C 71.5500 %
1408 27-02-2019 00:00:00 6.63667 C 68.6917 %
1409 28-02-2019 00:00:00 8.11917 C 73.1500 %
1410 01-03-2019 00:00:00 9.37083 C 74.7583 %
1411 02-03-2019 00:00:00 9.69333 C 72.8750 %
1412 03-03-2019 00:00:00 10.36917 C 73.5083 %
1413 04-03-2019 00:00:00 10.60917 C 73.1083 %
1414 05-03-2019 00:00:00 9.71 C 71.6083 %
1415 06-03-2019 00:00:00 9.71 C 73.4333 %
1416 07-03-2019 00:00:00 10.48417 C 73.6500 %
1417 08-03-2019 00:00:00 10.0575 C 72.7250 %
1418 09-03-2019 00:00:00 10.17167 C 73.4333 %
1419 10-03-2019 00:00:00 10.60917 C 71.4667 %
1420 11-03-2019 00:00:00 9.44833 C 67.3667 %
1421 12-03-2019 00:00:00 8.92417 C 70.4667 %
1422 13-03-2019 00:00:00 9.345 C 71.3250 %
1423 14-03-2019 00:00:00 9.13333 C 72.3750 %
1424 15-03-2019 00:00:00 10.055 C 74.0583 %
1425 16-03-2019 00:00:00 10.57417 C 72.1333 %
Sensor: Nr:Datum:Temp:Feuchte:
G-T/H 1426 17-03-2019 00:00:00 9.70583 C 61.2083 %
1427 18-03-2019 00:00:00 6.8675 C 62.4667 %
1428 19-03-2019 00:00:00 6.02333 C 59.7583 %
1429 20-03-2019 00:00:00 7.52333 C 64.5167 %
1430 21-03-2019 00:00:00 9.29167 C 60.4917 %
1431 22-03-2019 00:00:00 10.14833 C 61.3250 %
1432 23-03-2019 00:00:00 10.15917 C 64.7250 %
1433 24-03-2019 00:00:00 9.54833 C 67.2167 %
1434 25-03-2019 00:00:00 9.15583 C 67.9000 %
1435 26-03-2019 00:00:00 9.0525 C 69.7250 %
1436 27-03-2019 00:00:00 9.47917 C 69.9333 %
1437 28-03-2019 00:00:00 9.49583 C 69.9417 %
1438 29-03-2019 00:00:00 10.2825 C 66.2583 %
1439 30-03-2019 00:00:00 9.79667 C 60.6083 %
1440 31-03-2019 00:00:00 11.2313 C 64.9130 %
1441 01-04-2019 00:00:00 11.50333 C 60.3833 %
1442 02-04-2019 00:00:00 11.2875 C 63.6333 %
1443 03-04-2019 00:00:00 11.49833 C 67.0000 %
1444 04-04-2019 00:00:00 10.56333 C 67.8833 %
1445 05-04-2019 00:00:00 9.87333 C 68.5417 %
1446 06-04-2019 00:00:00 10.76333 C 69.0417 %
1447 07-04-2019 00:00:00 11.4925 C 68.0667 %
1448 08-04-2019 00:00:00 12.30917 C 70.6833 %
1449 09-04-2019 00:00:00 12.2875 C 74.7333 %
1450 10-04-2019 00:00:00 12.35917 C 56.9917 %
Sensor: Nr:Datum:Temp:Feuchte:
G-T/H 1451 11-04-2019 00:00:00 10.73083 C 48.4917 %
1452 12-04-2019 00:00:00 9.57417 C 46.6333 %
1453 13-04-2019 00:00:00 9.48583 C 55.2583 %
1454 14-04-2019 00:00:00 9.175 C 58.5167 %
1455 15-04-2019 00:00:00 10.07667 C 62.0833 %
1456 16-04-2019 00:00:00 11.07083 C 62.2083 %
1457 17-04-2019 00:00:00 12.33417 C 65.8333 %
1458 18-04-2019 00:00:00 13.09417 C 62.0833 %
1459 19-04-2019 00:00:00 14.9125 C 51.5500 %
1460 20-04-2019 00:00:00 15.6775 C 48.0417 %
1461 21-04-2019 00:00:00 16.29 C 47.3167 %
1462 22-04-2019 00:00:00 15.22333 C 52.2417 %
1463 23-04-2019 00:00:00 15.61417 C 53.2333 %
1464 24-04-2019 00:00:00 15.37833 C 59.4167 %
1465 25-04-2019 00:00:00 14.5575 C 61.5833 %
1466 26-04-2019 00:00:00 14.28667 C 64.1250 %
1467 27-04-2019 00:00:00 13.445 C 64.1833 %
1468 28-04-2019 00:00:00 12.45 C 64.1833 %
1469 29-04-2019 00:00:00 11.95083 C 63.4083 %
1470 30-04-2019 00:00:00 13.89833 C 57.8083 %
1471 01-05-2019 00:00:00 14.135 C 60.2833 %
1472 02-05-2019 00:00:00 13.82333 C 62.1750 %
1473 03-05-2019 00:00:00 13.86417 C 59.4750 %
1474 04-05-2019 00:00:00 12.72083 C 59.0083 %
1475 05-05-2019 00:00:00 11.31667 C 59.7917 %
Sensor: Nr:Datum:Temp:Feuchte:
G-T/H 1476 06-05-2019 00:00:00 11.38833 C 61.2833 %
1477 07-05-2019 00:00:00 11.88083 C 62.6250 %
1478 08-05-2019 00:00:00 11.97 C 62.9333 %
1479 09-05-2019 00:00:00 12.35167 C 66.7333 %
1480 10-05-2019 00:00:00 12.92101 C 67.6218 %
1481 11-05-2019 00:00:00 13.15833 C 68.0833 %
1482 12-05-2019 00:00:00 12.12833 C 64.0833 %
1483 13-05-2019 00:00:00 12.045 C 60.0000 %
1484 14-05-2019 00:00:00 12.31083 C 59.7417 %
1485 15-05-2019 00:00:00 12.7725 C 52.9833 %
1486 16-05-2019 00:00:00 13.015 C 56.6333 %
1487 17-05-2019 00:00:00 13.21917 C 63.1000 %
1488 18-05-2019 00:00:00 14.04667 C 66.4250 %
1489 19-05-2019 00:00:00 14.825 C 68.0750 %
1490 20-05-2019 00:00:00 14.84583 C 68.8000 %
1491 21-05-2019 00:00:00 14.15167 C 70.0167 %
1492 22-05-2019 00:00:00 13.71167 C 69.7583 %
1493 23-05-2019 00:00:00 15.29917 C 61.3750 %
1494 24-05-2019 00:00:00 17.54 C 55.6333 %
1495 25-05-2019 00:00:00 17.29083 C 56.6250 %
1496 26-05-2019 00:00:00 16.44583 C 60.8167 %
1497 27-05-2019 00:00:00 16.3925 C 64.3917 %
1498 28-05-2019 00:00:00 15.71583 C 66.5333 %
1499 29-05-2019 00:00:00 16.0475 C 54.4250 %
1500 30-05-2019 00:00:00 15.75417 C 61.4167 %
Sensor: Nr:Datum:Temp:Feuchte:
G-T/H 1501 31-05-2019 00:00:00 17.74167 C 65.2667 %
1502 01-06-2019 00:00:00 18.025 C 65.0750 %
1503 02-06-2019 00:00:00 18.60667 C 66.0917 %
1504 03-06-2019 00:00:00 19.92333 C 65.8667 %
1505 04-06-2019 00:00:00 19.69667 C 66.1500 %
1506 05-06-2019 00:00:00 20.025 C 66.6917 %
1507 06-06-2019 00:00:00 19.2775 C 64.1917 %
1508 07-06-2019 00:00:00 17.86583 C 60.1250 %
1509 08-06-2019 00:00:00 17.565 C 60.2333 %
1510 09-06-2019 00:00:00 16.99667 C 61.5667 %
1511 10-06-2019 00:00:00 17.96333 C 64.8583 %
1512 11-06-2019 00:00:00 18.18333 C 66.3917 %
1513 12-06-2019 00:00:00 17.70333 C 67.3917 %
1514 13-06-2019 00:00:00 17.89167 C 58.1667 %
1515 14-06-2019 00:00:00 19.59083 C 60.6083 %
1516 15-06-2019 00:00:00 19.6625 C 64.9917 %
1517 16-06-2019 00:00:00 19.56917 C 62.4417 %
1518 17-06-2019 00:00:00 19.01167 C 62.8417 %
1519 18-06-2019 00:00:00 21.23667 C 58.9250 %
1520 19-06-2019 00:00:00 21.53167 C 61.1000 %
1521 20-06-2019 00:00:00 20.7375 C 63.5667 %
1522 21-06-2019 00:00:00 20.53083 C 52.5000 %
1523 22-06-2019 00:00:00 20.16917 C 54.8083 %
1524 23-06-2019 00:00:00 21.31917 C 57.1667 %
1525 24-06-2019 00:00:00 23.94167 C 55.3000 %
Sensor: Nr:Datum:Temp:Feuchte:
G-T/H 1526 25-06-2019 00:00:00 23.93083 C 58.5083 %
1527 26-06-2019 00:00:00 24.37417 C 62.9417 %
1528 27-06-2019 00:00:00 23.60667 C 60.8333 %
1529 28-06-2019 00:00:00 22.21417 C 58.6667 %
1530 29-06-2019 00:00:00 24.105 C 45.4667 %
1531 30-06-2019 00:00:00 23.46833 C 52.6667 %
1532 01-07-2019 00:00:00 23.14417 C 56.9333 %
1533 02-07-2019 00:00:00 21.5975 C 49.7667 %
1534 03-07-2019 00:00:00 20.46667 C 46.5000 %
1535 04-07-2019 00:00:00 20.24 C 44.2750 %
1536 05-07-2019 00:00:00 20.99583 C 47.4667 %
1537 06-07-2019 00:00:00 21.055 C 53.0250 %
1538 07-07-2019 00:00:00 20.39667 C 54.9083 %
1539 08-07-2019 00:00:00 18.37167 C 51.1250 %
1540 09-07-2019 00:00:00 18.10583 C 49.1417 %
1541 10-07-2019 00:00:00 18.91917 C 42.0333 %
1542 11-07-2019 00:00:00 18.91167 C 59.7083 %
1543 12-07-2019 00:00:00 18.3025 C 73.7917 %
1544 13-07-2019 00:00:00 18.47333 C 67.7417 %
1545 14-07-2019 00:00:00 18.46917 C 65.0917 %
1546 15-07-2019 00:00:00 18.2725 C 59.6250 %
1547 16-07-2019 00:00:00 17.95917 C 58.3667 %
1548 17-07-2019 00:00:00 18.23667 C 61.2917 %
1549 18-07-2019 00:00:00 19.79417 C 58.3083 %
1550 19-07-2019 00:00:00 19.79417 C 61.5917 %
Sensor: Nr:Datum:Temp:Feuchte:
G-T/H 1551 20-07-2019 00:00:00 19.78583 C 63.8500 %
1552 21-07-2019 00:00:00 20.41333 C 63.8583 %
1553 22-07-2019 00:00:00 22.33167 C 54.5167 %
1554 23-07-2019 00:00:00 22.5225 C 56.8667 %
1555 24-07-2019 00:00:00 23.21833 C 58.3417 %
1556 25-07-2019 00:00:00 24.345 C 57.0083 %
1557 26-07-2019 00:00:00 24.17667 C 57.8500 %
1558 27-07-2019 00:00:00 23.54 C 61.3083 %
1559 28-07-2019 00:00:00 22.08333 C 64.8167 %
1560 29-07-2019 00:00:00 21.58833 C 59.7917 %
1561 30-07-2019 00:00:00 21.785 C 58.7750 %
1562 31-07-2019 00:00:00 22.4025 C 50.4333 %
1563 01-08-2019 00:00:00 21.77083 C 49.7000 %
1564 02-08-2019 00:00:00 21.34583 C 55.7750 %
1565 03-08-2019 00:00:00 20.90667 C 59.1167 %
1566 04-08-2019 00:00:00 20.4525 C 59.4750 %
1567 05-08-2019 00:00:00 22.07 C 57.0167 %
1568 06-08-2019 00:00:00 21.48083 C 59.7417 %
1569 07-08-2019 00:00:00 21.08 C 63.1500 %
1570 08-08-2019 00:00:00 20.60333 C 62.6167 %
1571 09-08-2019 00:00:00 20.50167 C 64.6000 %
1572 10-08-2019 00:00:00 20.38917 C 65.0917 %
1573 11-08-2019 00:00:00 19.8725 C 64.3750 %
1574 12-08-2019 00:00:00 19.0475 C 65.6000 %
1575 13-08-2019 00:00:00 18.645 C 58.8417 %
Sensor: Nr:Datum:Temp:Feuchte:
G-T/H 1576 14-08-2019 00:00:00 18.54583 C 57.0833 %
1577 15-08-2019 00:00:00 18.91583 C 62.6250 %
1578 16-08-2019 00:00:00 18.59917 C 65.5583 %
1579 17-08-2019 00:00:00 18.78167 C 67.1583 %
1580 18-08-2019 00:00:00 19.07417 C 68.7167 %
1581 19-08-2019 00:00:00 19.70167 C 61.8833 %
1582 20-08-2019 00:00:00 18.7775 C 58.6500 %
1583 21-08-2019 00:00:00 18.37 C 62.6500 %
1584 22-08-2019 00:00:00 18.7725 C 58.7167 %
1585 23-08-2019 00:00:00 19.34333 C 56.0250 %
1586 24-08-2019 00:00:00 19.1825 C 58.5917 %
1587 25-08-2019 00:00:00 19.53 C 63.3500 %
1588 26-08-2019 00:00:00 21.84417 C 64.5833 %
1589 27-08-2019 00:00:00 21.31417 C 66.1667 %
1590 28-08-2019 00:00:00 21.07 C 66.6583 %
1591 29-08-2019 00:00:00 21.03417 C 66.8417 %
1592 30-08-2019 00:00:00 20.6775 C 66.8917 %
1593 31-08-2019 00:00:00 20.2775 C 66.5917 %
1594 01-09-2019 00:00:00 20.59167 C 65.4167 %
1595 02-09-2019 00:00:00 18.59583 C 51.3417 %
1596 03-09-2019 00:00:00 16.5475 C 53.5583 %
1597 04-09-2019 00:00:00 18.68667 C 56.9667 %
1598 05-09-2019 00:00:00 18.34667 C 60.0000 %
1599 06-09-2019 00:00:00 17.44333 C 56.1750 %
1600 07-09-2019 00:00:00 17.36583 C 60.4417 %
Sensor: Nr:Datum:Temp:Feuchte:
G-T/H 1601 08-09-2019 00:00:00 16.54309 C 65.9350 %
1602 09-09-2019 00:00:00 16.06067 C 66.7333 %
1603 10-09-2019 00:00:00 15.23333 C 63.6597 %
1604 11-09-2019 00:00:00 15.74097 C 61.0833 %
1605 12-09-2019 00:00:00 17.93194 C 67.6319 %
1606 13-09-2019 00:00:00 18.68472 C 70.9653 %
1607 14-09-2019 00:00:00 18.01181 C 65.5903 %
1608 15-09-2019 00:00:00 17.60347 C 61.9722 %
1609 16-09-2019 00:00:00 17.78264 C 60.7361 %
1610 17-09-2019 00:00:00 17.67431 C 62.7083 %
1611 18-09-2019 00:00:00 15.39444 C 57.2778 %
1612 19-09-2019 00:00:00 14.12361 C 57.3125 %
1613 20-09-2019 00:00:00 13.22639 C 59.3056 %
1614 21-09-2019 00:00:00 15.10833 C 52.5278 %
1615 22-09-2019 00:00:00 15.13194 C 59.2083 %
1616 23-09-2019 00:00:00 16.27153 C 64.4028 %
1617 24-09-2019 00:00:00 16.11528 C 66.2778 %
1618 25-09-2019 00:00:00 16.20556 C 67.8681 %
1619 26-09-2019 00:00:00 16.33542 C 69.4097 %
1620 27-09-2019 00:00:00 16.76458 C 69.3611 %
1621 28-09-2019 00:00:00 16.47083 C 68.9792 %
1622 29-09-2019 00:00:00 16.41458 C 69.6528 %
1623 30-09-2019 00:00:00 16.64236 C 66.7917 %
1624 01-10-2019 00:00:00 16.54167 C 68.3542 %
1625 02-10-2019 00:00:00 16.15694 C 67.3056 %
Sensor: Nr:Datum:Temp:Feuchte:
G-T/H 1626 03-10-2019 00:00:00 14.67222 C 66.7361 %
1627 04-10-2019 00:00:00 14.15556 C 70.1319 %
1628 05-10-2019 00:00:00 14.31875 C 71.1667 %
1629 06-10-2019 00:00:00 13.69306 C 70.7847 %
1630 07-10-2019 00:00:00 13.58056 C 72.7153 %
1631 08-10-2019 00:00:00 14.14097 C 74.1597 %
1632 09-10-2019 00:00:00 14.23472 C 74.0486 %
1633 10-10-2019 00:00:00 14.00139 C 74.0278 %
1634 11-10-2019 00:00:00 13.98819 C 74.3333 %
1635 12-10-2019 00:00:00 14.71181 C 71.7639 %
1636 13-10-2019 00:00:00 15.13472 C 74.9097 %
1637 14-10-2019 00:00:00 16.34722 C 74.3958 %
1638 15-10-2019 00:00:00 15.98125 C 73.6597 %
1639 16-10-2019 00:00:00 15.42708 C 73.2986 %
1640 17-10-2019 00:00:00 15.28056 C 74.7292 %
1641 18-10-2019 00:00:00 15.18681 C 74.6042 %
1642 19-10-2019 00:00:00 14.72222 C 74.1944 %
1643 20-10-2019 00:00:00 14.40278 C 81.1597 %
1644 21-10-2019 00:00:00 14.60625 C 80.9028 %
1645 22-10-2019 00:00:00 14.62153 C 77.5000 %
1646 23-10-2019 00:00:00 14.00764 C 76.3542 %
1647 24-10-2019 00:00:00 14.52986 C 78.0139 %
1648 25-10-2019 00:00:00 15.10694 C 74.8681 %
1649 26-10-2019 00:00:00 14.99028 C 74.2153 %
1650 27-10-2019 00:00:00 14.43933 C 74.9333 %
Sensor: Nr:Datum:Temp:Feuchte:
G-T/H 1651 28-10-2019 00:00:00 12.81389 C 71.1806 %
1652 29-10-2019 00:00:00 12.35556 C 71.6389 %
1653 30-10-2019 00:00:00 10.98611 C 65.8194 %
1654 31-10-2019 00:00:00 9.49097 C 64.1736 %
1655 01-11-2019 00:00:00 9.67014 C 69.2569 %
1656 02-11-2019 00:00:00 12.01181 C 74.2222 %
1657 03-11-2019 00:00:00 12.91806 C 75.4861 %
1658 04-11-2019 00:00:00 12.97569 C 75.6250 %
1659 05-11-2019 00:00:00 12.58194 C 75.9444 %
1660 06-11-2019 00:00:00 12.33194 C 75.6528 %
1661 07-11-2019 00:00:00 12.18403 C 75.3403 %
1662 08-11-2019 00:00:00 11.13611 C 70.1181 %
1663 09-11-2019 00:00:00 11.02014 C 69.0972 %
1664 10-11-2019 00:00:00 9.95556 C 68.3056 %
1665 11-11-2019 00:00:00 9.96458 C 71.2708 %
1666 12-11-2019 00:00:00 10.11458 C 72.0972 %
1667 13-11-2019 00:00:00 10.0125 C 72.4097 %
1668 14-11-2019 00:00:00 9.73403 C 68.3958 %
1669 15-11-2019 00:00:00 9.68819 C 69.4028 %
1670 16-11-2019 00:00:00 9.6125 C 68.7083 %
1671 17-11-2019 00:00:00 9.03819 C 69.9306 %
1672 18-11-2019 00:00:00 9.47361 C 72.2500 %
1673 19-11-2019 00:00:00 9.40903 C 72.0833 %
1674 20-11-2019 00:00:00 8.93333 C 71.1181 %
1675 21-11-2019 00:00:00 8.40559 C 70.8182 %
Sensor: Nr:Datum:Temp:Feuchte:
G-T/H 1676 22-11-2019 00:00:00 8.70556 C 72.6736 %
1677 23-11-2019 00:00:00 9.32569 C 73.0972 %
1678 24-11-2019 00:00:00 9.08333 C 72.0764 %
1679 25-11-2019 00:00:00 9.04375 C 73.5069 %
1680 26-11-2019 00:00:00 9.85139 C 74.9375 %
1681 27-11-2019 00:00:00 10.87847 C 75.9236 %
1682 28-11-2019 00:00:00 11.51597 C 75.5069 %
1683 29-11-2019 00:00:00 11.25208 C 72.3542 %
1684 30-11-2019 00:00:00 9.66736 C 68.9097 %
1685 01-12-2019 00:00:00 8.81806 C 70.1806 %
1686 02-12-2019 00:00:00 8.35278 C 70.5417 %
1687 03-12-2019 00:00:00 8.74514 C 73.3472 %
1688 04-12-2019 00:00:00 8.79375 C 71.8403 %
1689 05-12-2019 00:00:00 7.92014 C 69.1458 %
1690 06-12-2019 00:00:00 7.57292 C 70.7014 %
1691 07-12-2019 00:00:00 8.97014 C 74.4514 %
1692 08-12-2019 00:00:00 10.25694 C 75.1667 %
1693 09-12-2019 00:00:00 10.48403 C 74.1111 %
1694 10-12-2019 00:00:00 9.34028 C 71.5903 %
1695 11-12-2019 00:00:00 8.75694 C 73.1250 %
1696 12-12-2019 00:00:00 8.81042 C 73.2500 %
1697 13-12-2019 00:00:00 8.51944 C 72.1458 %
1698 14-12-2019 00:00:00 8.92153 C 73.0764 %
1699 15-12-2019 00:00:00 9.56736 C 74.6667 %
1700 16-12-2019 00:00:00 9.90486 C 75.1389 %
Sensor: Nr:Datum:Temp:Feuchte:
G-T/H 1701 17-12-2019 00:00:00 10.43333 C 75.4583 %
1702 18-12-2019 00:00:00 10.925 C 75.4861 %
1703 19-12-2019 00:00:00 9.76667 C 73.6667 %
1704 20-12-2019 00:00:00 9.69375 C 75.0208 %
1705 21-12-2019 00:00:00 10.06458 C 74.5833 %
1706 22-12-2019 00:00:00 10.1375 C 75.1528 %
1707 23-12-2019 00:00:00 10.30417 C 75.3681 %
1708 24-12-2019 00:00:00 10.12639 C 74.9375 %
1709 25-12-2019 00:00:00 10.24444 C 75.9653 %
1710 26-12-2019 00:00:00 9.92708 C 75.2569 %
1711 27-12-2019 00:00:00 9.69444 C 75.5833 %
1712 28-12-2019 00:00:00 8.37639 C 70.3194 %
1713 29-12-2019 00:00:00 7.21528 C 69.6875 %
1714 30-12-2019 00:00:00 7.16944 C 69.0486 %
1715 31-12-2019 00:00:00 6.93194 C 69.9722 %
1716 01-01-2020 00:00:00 7.23125 C 70.8403 %
1717 02-01-2020 00:00:00 7.28958 C 70.5417 %
1718 03-01-2020 00:00:00 8.41389 C 73.4792 %
1719 04-01-2020 00:00:00 9.12431 C 73.5833 %
1720 05-01-2020 00:00:00 9.42917 C 73.5694 %
1721 06-01-2020 00:00:00 9.33958 C 72.1181 %
1722 07-01-2020 00:00:00 8.74583 C 72.1111 %
1723 08-01-2020 00:00:00 9.18611 C 74.0347 %
1724 09-01-2020 00:00:00 10.3875 C 76.5556 %
1725 10-01-2020 00:00:00 11.02153 C 75.1389 %
Sensor: Nr:Datum:Temp:Feuchte:
G-T/H 1726 11-01-2020 00:00:00 10.04097 C 73.2014 %
1727 12-01-2020 00:00:00 9.14861 C 72.8958 %
1728 13-01-2020 00:00:00 9.30833 C 74.5139 %
1729 14-01-2020 00:00:00 9.78958 C 75.6597 %
1730 15-01-2020 00:00:00 10.59028 C 75.5972 %
1731 16-01-2020 00:00:00 10.82222 C 75.8264 %
1732 17-01-2020 00:00:00 9.87847 C 74.9583 %
1733 18-01-2020 00:00:00 9.38125 C 74.1597 %
1734 19-01-2020 00:00:00 8.86667 C 74.2569 %
1735 20-01-2020 00:00:00 8.75 C 73.1111 %
1736 21-01-2020 00:00:00 7.77014 C 69.7847 %
1737 22-01-2020 00:00:00 7.17083 C 69.5903 %
1738 23-01-2020 00:00:00 7.63472 C 70.8611 %
1739 24-01-2020 00:00:00 7.71319 C 70.9097 %
1740 25-01-2020 00:00:00 7.96806 C 71.5139 %
1741 26-01-2020 00:00:00 7.98611 C 72.6597 %
1742 27-01-2020 00:00:00 8.21875 C 74.7500 %
1743 28-01-2020 00:00:00 8.85833 C 75.1458 %
1744 29-01-2020 00:00:00 8.44306 C 74.0000 %
1745 30-01-2020 00:00:00 8.61389 C 74.8750 %
1746 31-01-2020 00:00:00 10.32431 C 76.3958 %
1747 01-02-2020 00:00:00 11.40556 C 76.3681 %
1748 02-02-2020 00:00:00 11.15903 C 73.6736 %
1749 03-02-2020 00:00:00 11.4875 C 75.0000 %
1750 04-02-2020 00:00:00 10.54722 C 71.2847 %
Sensor: Nr:Datum:Temp:Feuchte:
G-T/H 1751 05-02-2020 00:00:00 9.47153 C 71.9236 %
1752 06-02-2020 00:00:00 8.34306 C 70.5208 %
1753 07-02-2020 00:00:00 7.79097 C 69.9167 %
1754 08-02-2020 00:00:00 7.33681 C 70.6528 %
1755 09-02-2020 00:00:00 8.3 C 73.5694 %
1756 10-02-2020 00:00:00 9.82708 C 73.9167 %
1757 11-02-2020 00:00:00 9.18194 C 72.2431 %
1758 12-02-2020 00:00:00 8.72083 C 72.8750 %
1759 13-02-2020 00:00:00 8.20208 C 72.5208 %
1760 14-02-2020 00:00:00 8.84653 C 74.7500 %
1761 15-02-2020 00:00:00 8.93958 C 73.5903 %
1762 16-02-2020 00:00:00 11.3125 C 68.1111 %
1763 17-02-2020 00:00:00 11.77708 C 69.2778 %
1764 18-02-2020 00:00:00 10.43056 C 67.4028 %
1765 19-02-2020 00:00:00 9.94514 C 69.4583 %
1766 20-02-2020 00:00:00 9.73472 C 71.6875 %
1767 21-02-2020 00:00:00 9.56875 C 71.4931 %
1768 22-02-2020 00:00:00 9.25625 C 72.0625 %
1769 23-02-2020 00:00:00 10.38403 C 73.7708 %
1770 24-02-2020 00:00:00 10.40903 C 71.9792 %
1771 25-02-2020 00:00:00 10.88819 C 73.0278 %
1772 26-02-2020 00:00:00 10.02917 C 68.9306 %
1773 27-02-2020 00:00:00 9.17986 C 71.0208 %
1774 28-02-2020 00:00:00 8.31042 C 73.7708 %
1775 29-02-2020 00:00:00 9.28125 C 75.1597 %
Sensor: Nr:Datum:Temp:Feuchte:
G-T/H 1776 01-03-2020 00:00:00 9.80486 C 74.3403 %
1777 02-03-2020 00:00:00 9.67847 C 73.5833 %
1778 03-03-2020 00:00:00 9.53681 C 73.3194 %
1779 04-03-2020 00:00:00 8.95833 C 73.5139 %
1780 05-03-2020 00:00:00 9.15833 C 73.9861 %
1781 06-03-2020 00:00:00 9.48958 C 74.9514 %
1782 07-03-2020 00:00:00 9.38611 C 74.0556 %
1783 08-03-2020 00:00:00 9.99583 C 74.7292 %
1784 09-03-2020 00:00:00 10.54861 C 73.8819 %
1785 10-03-2020 00:00:00 10.28056 C 73.3819 %
1786 11-03-2020 00:00:00 11.72083 C 75.8889 %
1787 12-03-2020 00:00:00 12.29653 C 71.3333 %
1788 13-03-2020 00:00:00 11.08333 C 68.2014 %
1789 14-03-2020 00:00:00 10.32361 C 70.1250 %
1790 15-03-2020 00:00:00 10.87153 C 65.1667 %
1791 16-03-2020 00:00:00 10.71667 C 66.3819 %
1792 17-03-2020 00:00:00 11.47153 C 70.7292 %
1793 18-03-2020 00:00:00 11.42569 C 70.3472 %
1794 19-03-2020 00:00:00 12.36736 C 67.4583 %
1795 20-03-2020 00:00:00 12.53217 C 67.5944 %
1796 21-03-2020 00:00:00 11.55903 C 63.9097 %
1797 22-03-2020 00:00:00 9.66111 C 61.2292 %
1798 23-03-2020 00:00:00 8.67431 C 62.8819 %
1799 24-03-2020 00:00:00 8.04028 C 63.8611 %
1800 25-03-2020 00:00:00 7.80833 C 63.4722 %
Sensor: Nr:Datum:Temp:Feuchte:
G-T/H 1801 26-03-2020 00:00:00 8.04028 C 64.0208 %
1802 27-03-2020 00:00:00 9.19722 C 61.4583 %
1803 28-03-2020 00:00:00 10.48264 C 59.6944 %
1804 29-03-2020 00:00:00 10.14855 C 60.5362 %
1805 30-03-2020 00:00:00 8.62708 C 59.5417 %
1806 31-03-2020 00:00:00 8.58472 C 62.8194 %
1807 01-04-2020 00:00:00 8.20764 C 62.6181 %
1808 02-04-2020 00:00:00 8.18194 C 64.4097 %
1809 03-04-2020 00:00:00 9.17708 C 61.3125 %
1810 04-04-2020 00:00:00 7.05486 C 55.4306 %
1811 05-04-2020 00:00:00 9.21944 C 61.8056 %
1812 06-04-2020 00:00:00 10.2125 C 63.7569 %
1813 07-04-2020 00:00:00 13.11319 C 59.7083 %
1814 08-04-2020 00:00:00 13.17153 C 61.2847 %
1815 09-04-2020 00:00:00 13.65556 C 60.0069 %
1816 10-04-2020 00:00:00 13.73681 C 60.7847 %
1817 11-04-2020 00:00:00 13.3125 C 61.3611 %
1818 12-04-2020 00:00:00 13.45 C 63.2500 %
1819 13-04-2020 00:00:00 13.15556 C 59.7986 %
1820 14-04-2020 00:00:00 11.44375 C 58.7847 %
1821 15-04-2020 00:00:00 11.16875 C 56.8333 %
1822 16-04-2020 00:00:00 11.42917 C 52.3542 %
1823 17-04-2020 00:00:00 14.90625 C 55.3958 %
1824 18-04-2020 00:00:00 14.63333 C 62.5347 %
1825 19-04-2020 00:00:00 14.45833 C 64.6250 %
Sensor: Nr:Datum:Temp:Feuchte:
G-T/H 1826 20-04-2020 00:00:00 13.53681 C 59.6042 %
1827 21-04-2020 00:00:00 13.28819 C 58.7986 %

Maximal/Minimal-Werte vom 22.04.2015 - 21.04.2020

Sensor Min Max Avg
Temp
(Aussen-T/F)
-18.7 °C
20-06-2016  11:38:17
46.2 °C
19-06-2017  18:30:17
11.15 °C
Feuchte
(Aussen-T/F)
20 %
23-04-2015  17:21:17
95 %
01-05-2015  02:34:17
38.46 %
Temp
(G-T/H)
-6 °C
01-12-2016  10:32:18
29.7 °C
26-07-2018  16:25:17
13.47 °C
Feuchte
(G-T/H)
25 %
29-06-2019  18:04:17
85 %
16-10-2017  15:03:17
66.86 %

Die Daten stammen von einer Davis Vantage Pro 2 Wetter-Station und werden unter Linux mit der Software wview2wettercgi und aufbereitet. Alle Angaben erfolgen ohne Gewähr für ihre Vollständigkeit oder Richtigkeit.
Kontakt: Rainer Krienke krienke@uni-koblenz.de . Meine Webseiten an der Uni Koblenz oder privat.
Version: $Revision: 0.78 $